<?xml version="1.0" encoding="UTF-8" standalone="no" ?>
<gpx xmlns="http://www.topografix.com/GPX/1/1" xmlns:xsi="http://www.w3.org/2001/XMLSchema-instance" xsi:schemaLocation="http://www.topografix.com/GPX/1/1 http://www.topografix.com/GPX/1/1/gpx.xsd" version="1.1" creator="VisuGPX - https://www.visugpx.com">
  <metadata>
    <name>Le Puy Mary</name>
    <desc><![CDATA[Randonnée vers le Puy Mary, au départ du parking du Font de Cère, en passant par le col de Rombières, le col de Cabre et la brèche de Rolland. Retour par le Pas de Peyrol, le pied du Puy Mary le long de la D 680, sous la brèche de Rolland et remonté vers le GR 4, puis le même chemin que l'aller.]]></desc>
  </metadata>
  <trk>
    <name><![CDATA[JUIL-13-19 17:03:41]]></name>
    <trkseg>
      <trkpt lat="45.08509" lon="2.73351">
        <ele>1286.38</ele>
        <time>2019-07-13T07:25:36Z</time>
      </trkpt>
      <trkpt lat="45.08509" lon="2.73351">
        <ele>1285.9</ele>
        <time>2019-07-13T07:25:46Z</time>
      </trkpt>
      <trkpt lat="45.0851" lon="2.73351">
        <ele>1286.38</ele>
        <time>2019-07-13T07:26:36Z</time>
      </trkpt>
      <trkpt lat="45.08514" lon="2.73354">
        <ele>1287.34</ele>
        <time>2019-07-13T07:28:15Z</time>
      </trkpt>
      <trkpt lat="45.08519" lon="2.73364">
        <ele>1288.78</ele>
        <time>2019-07-13T07:28:26Z</time>
      </trkpt>
      <trkpt lat="45.08529" lon="2.73378">
        <ele>1287.82</ele>
        <time>2019-07-13T07:28:42Z</time>
      </trkpt>
      <trkpt lat="45.08536" lon="2.73391">
        <ele>1287.34</ele>
        <time>2019-07-13T07:28:55Z</time>
      </trkpt>
      <trkpt lat="45.0854" lon="2.73402">
        <ele>1287.34</ele>
        <time>2019-07-13T07:29:05Z</time>
      </trkpt>
      <trkpt lat="45.08542" lon="2.73405">
        <ele>1287.82</ele>
        <time>2019-07-13T07:29:07Z</time>
      </trkpt>
      <trkpt lat="45.08543" lon="2.7341">
        <ele>1286.86</ele>
        <time>2019-07-13T07:29:11Z</time>
      </trkpt>
      <trkpt lat="45.08549" lon="2.73422">
        <ele>1287.34</ele>
        <time>2019-07-13T07:29:22Z</time>
      </trkpt>
      <trkpt lat="45.08554" lon="2.73418">
        <ele>1287.82</ele>
        <time>2019-07-13T07:29:32Z</time>
      </trkpt>
      <trkpt lat="45.08557" lon="2.73408">
        <ele>1289.75</ele>
        <time>2019-07-13T07:29:43Z</time>
      </trkpt>
      <trkpt lat="45.0856" lon="2.73393">
        <ele>1291.19</ele>
        <time>2019-07-13T07:29:55Z</time>
      </trkpt>
      <trkpt lat="45.08564" lon="2.73382">
        <ele>1292.15</ele>
        <time>2019-07-13T07:30:06Z</time>
      </trkpt>
      <trkpt lat="45.08568" lon="2.73369">
        <ele>1292.63</ele>
        <time>2019-07-13T07:30:19Z</time>
      </trkpt>
      <trkpt lat="45.08572" lon="2.73358">
        <ele>1294.55</ele>
        <time>2019-07-13T07:30:31Z</time>
      </trkpt>
      <trkpt lat="45.08575" lon="2.73354">
        <ele>1295.03</ele>
        <time>2019-07-13T07:30:36Z</time>
      </trkpt>
      <trkpt lat="45.08578" lon="2.73345">
        <ele>1295.99</ele>
        <time>2019-07-13T07:30:49Z</time>
      </trkpt>
      <trkpt lat="45.08586" lon="2.73327">
        <ele>1298.4</ele>
        <time>2019-07-13T07:31:03Z</time>
      </trkpt>
      <trkpt lat="45.08591" lon="2.73311">
        <ele>1299.84</ele>
        <time>2019-07-13T07:31:16Z</time>
      </trkpt>
      <trkpt lat="45.08594" lon="2.733">
        <ele>1301.76</ele>
        <time>2019-07-13T07:31:29Z</time>
      </trkpt>
      <trkpt lat="45.08595" lon="2.73294">
        <ele>1303.69</ele>
        <time>2019-07-13T07:31:41Z</time>
      </trkpt>
      <trkpt lat="45.08596" lon="2.73281">
        <ele>1305.61</ele>
        <time>2019-07-13T07:31:54Z</time>
      </trkpt>
      <trkpt lat="45.08597" lon="2.73271">
        <ele>1307.05</ele>
        <time>2019-07-13T07:32:05Z</time>
      </trkpt>
      <trkpt lat="45.08597" lon="2.73263">
        <ele>1308.01</ele>
        <time>2019-07-13T07:32:15Z</time>
      </trkpt>
      <trkpt lat="45.08599" lon="2.73255">
        <ele>1310.41</ele>
        <time>2019-07-13T07:32:29Z</time>
      </trkpt>
      <trkpt lat="45.08598" lon="2.73248">
        <ele>1311.38</ele>
        <time>2019-07-13T07:32:37Z</time>
      </trkpt>
      <trkpt lat="45.08599" lon="2.73237">
        <ele>1311.86</ele>
        <time>2019-07-13T07:32:47Z</time>
      </trkpt>
      <trkpt lat="45.08601" lon="2.73223">
        <ele>1312.82</ele>
        <time>2019-07-13T07:33:00Z</time>
      </trkpt>
      <trkpt lat="45.08603" lon="2.73208">
        <ele>1314.26</ele>
        <time>2019-07-13T07:33:16Z</time>
      </trkpt>
      <trkpt lat="45.0861" lon="2.73202">
        <ele>1316.18</ele>
        <time>2019-07-13T07:33:29Z</time>
      </trkpt>
      <trkpt lat="45.08613" lon="2.73195">
        <ele>1317.62</ele>
        <time>2019-07-13T07:33:40Z</time>
      </trkpt>
      <trkpt lat="45.08615" lon="2.73189">
        <ele>1319.07</ele>
        <time>2019-07-13T07:33:52Z</time>
      </trkpt>
      <trkpt lat="45.08619" lon="2.73183">
        <ele>1321.47</ele>
        <time>2019-07-13T07:34:06Z</time>
      </trkpt>
      <trkpt lat="45.08624" lon="2.73178">
        <ele>1324.35</ele>
        <time>2019-07-13T07:34:17Z</time>
      </trkpt>
      <trkpt lat="45.0863" lon="2.73171">
        <ele>1325.8</ele>
        <time>2019-07-13T07:34:29Z</time>
      </trkpt>
      <trkpt lat="45.08633" lon="2.73168">
        <ele>1327.72</ele>
        <time>2019-07-13T07:34:38Z</time>
      </trkpt>
      <trkpt lat="45.08635" lon="2.73164">
        <ele>1328.68</ele>
        <time>2019-07-13T07:34:48Z</time>
      </trkpt>
      <trkpt lat="45.08639" lon="2.73163">
        <ele>1330.12</ele>
        <time>2019-07-13T07:34:59Z</time>
      </trkpt>
      <trkpt lat="45.0864" lon="2.73155">
        <ele>1332.04</ele>
        <time>2019-07-13T07:35:11Z</time>
      </trkpt>
      <trkpt lat="45.08642" lon="2.73152">
        <ele>1333.97</ele>
        <time>2019-07-13T07:35:22Z</time>
      </trkpt>
      <trkpt lat="45.08648" lon="2.73142">
        <ele>1335.89</ele>
        <time>2019-07-13T07:35:33Z</time>
      </trkpt>
      <trkpt lat="45.08654" lon="2.73134">
        <ele>1337.33</ele>
        <time>2019-07-13T07:35:44Z</time>
      </trkpt>
      <trkpt lat="45.08658" lon="2.73128">
        <ele>1339.25</ele>
        <time>2019-07-13T07:35:54Z</time>
      </trkpt>
      <trkpt lat="45.08659" lon="2.73125">
        <ele>1340.7</ele>
        <time>2019-07-13T07:36:04Z</time>
      </trkpt>
      <trkpt lat="45.08662" lon="2.73116">
        <ele>1342.14</ele>
        <time>2019-07-13T07:36:16Z</time>
      </trkpt>
      <trkpt lat="45.08667" lon="2.7311">
        <ele>1344.06</ele>
        <time>2019-07-13T07:36:28Z</time>
      </trkpt>
      <trkpt lat="45.08667" lon="2.7311">
        <ele>1344.54</ele>
        <time>2019-07-13T07:36:29Z</time>
      </trkpt>
      <trkpt lat="45.08673" lon="2.73102">
        <ele>1345.98</ele>
        <time>2019-07-13T07:36:41Z</time>
      </trkpt>
      <trkpt lat="45.08673" lon="2.73097">
        <ele>1345.98</ele>
        <time>2019-07-13T07:36:57Z</time>
      </trkpt>
      <trkpt lat="45.08672" lon="2.73096">
        <ele>1345.98</ele>
        <time>2019-07-13T07:37:53Z</time>
      </trkpt>
      <trkpt lat="45.08673" lon="2.73095">
        <ele>1345.5</ele>
        <time>2019-07-13T07:38:19Z</time>
      </trkpt>
      <trkpt lat="45.08674" lon="2.73094">
        <ele>1345.02</ele>
        <time>2019-07-13T07:39:21Z</time>
      </trkpt>
      <trkpt lat="45.0868" lon="2.73088">
        <ele>1345.5</ele>
        <time>2019-07-13T07:39:33Z</time>
      </trkpt>
      <trkpt lat="45.08686" lon="2.73079">
        <ele>1348.39</ele>
        <time>2019-07-13T07:39:43Z</time>
      </trkpt>
      <trkpt lat="45.08689" lon="2.73071">
        <ele>1347.91</ele>
        <time>2019-07-13T07:39:51Z</time>
      </trkpt>
      <trkpt lat="45.08689" lon="2.73067">
        <ele>1348.39</ele>
        <time>2019-07-13T07:39:54Z</time>
      </trkpt>
      <trkpt lat="45.08689" lon="2.73049">
        <ele>1348.87</ele>
        <time>2019-07-13T07:40:06Z</time>
      </trkpt>
      <trkpt lat="45.08691" lon="2.73041">
        <ele>1349.35</ele>
        <time>2019-07-13T07:40:12Z</time>
      </trkpt>
      <trkpt lat="45.08696" lon="2.73023">
        <ele>1349.83</ele>
        <time>2019-07-13T07:40:27Z</time>
      </trkpt>
      <trkpt lat="45.08701" lon="2.73009">
        <ele>1350.79</ele>
        <time>2019-07-13T07:40:39Z</time>
      </trkpt>
      <trkpt lat="45.08705" lon="2.72991">
        <ele>1351.75</ele>
        <time>2019-07-13T07:40:52Z</time>
      </trkpt>
      <trkpt lat="45.08707" lon="2.72979">
        <ele>1352.23</ele>
        <time>2019-07-13T07:41:01Z</time>
      </trkpt>
      <trkpt lat="45.08706" lon="2.72961">
        <ele>1353.19</ele>
        <time>2019-07-13T07:41:13Z</time>
      </trkpt>
      <trkpt lat="45.08704" lon="2.72947">
        <ele>1353.19</ele>
        <time>2019-07-13T07:41:25Z</time>
      </trkpt>
      <trkpt lat="45.08703" lon="2.72939">
        <ele>1353.19</ele>
        <time>2019-07-13T07:41:32Z</time>
      </trkpt>
      <trkpt lat="45.08705" lon="2.72921">
        <ele>1353.19</ele>
        <time>2019-07-13T07:41:46Z</time>
      </trkpt>
      <trkpt lat="45.08703" lon="2.72902">
        <ele>1353.67</ele>
        <time>2019-07-13T07:41:59Z</time>
      </trkpt>
      <trkpt lat="45.08702" lon="2.72889">
        <ele>1355.12</ele>
        <time>2019-07-13T07:42:10Z</time>
      </trkpt>
      <trkpt lat="45.08702" lon="2.72884">
        <ele>1355.6</ele>
        <time>2019-07-13T07:42:16Z</time>
      </trkpt>
      <trkpt lat="45.08706" lon="2.72872">
        <ele>1355.6</ele>
        <time>2019-07-13T07:42:28Z</time>
      </trkpt>
      <trkpt lat="45.08708" lon="2.72869">
        <ele>1356.08</ele>
        <time>2019-07-13T07:42:35Z</time>
      </trkpt>
      <trkpt lat="45.08722" lon="2.72857">
        <ele>1356.08</ele>
        <time>2019-07-13T07:42:48Z</time>
      </trkpt>
      <trkpt lat="45.08726" lon="2.72842">
        <ele>1358.96</ele>
        <time>2019-07-13T07:43:01Z</time>
      </trkpt>
      <trkpt lat="45.08726" lon="2.72831">
        <ele>1360.4</ele>
        <time>2019-07-13T07:43:12Z</time>
      </trkpt>
      <trkpt lat="45.08723" lon="2.72827">
        <ele>1361.84</ele>
        <time>2019-07-13T07:43:19Z</time>
      </trkpt>
      <trkpt lat="45.08707" lon="2.72817">
        <ele>1363.77</ele>
        <time>2019-07-13T07:43:34Z</time>
      </trkpt>
      <trkpt lat="45.08702" lon="2.72813">
        <ele>1365.69</ele>
        <time>2019-07-13T07:43:47Z</time>
      </trkpt>
      <trkpt lat="45.08697" lon="2.72802">
        <ele>1366.17</ele>
        <time>2019-07-13T07:44:00Z</time>
      </trkpt>
      <trkpt lat="45.08697" lon="2.72799">
        <ele>1367.13</ele>
        <time>2019-07-13T07:44:02Z</time>
      </trkpt>
      <trkpt lat="45.08695" lon="2.72786">
        <ele>1368.57</ele>
        <time>2019-07-13T07:44:14Z</time>
      </trkpt>
      <trkpt lat="45.08696" lon="2.72775">
        <ele>1370.5</ele>
        <time>2019-07-13T07:44:25Z</time>
      </trkpt>
      <trkpt lat="45.08694" lon="2.72759">
        <ele>1370.98</ele>
        <time>2019-07-13T07:44:39Z</time>
      </trkpt>
      <trkpt lat="45.08692" lon="2.72745">
        <ele>1371.94</ele>
        <time>2019-07-13T07:44:51Z</time>
      </trkpt>
      <trkpt lat="45.08692" lon="2.72733">
        <ele>1372.9</ele>
        <time>2019-07-13T07:45:01Z</time>
      </trkpt>
      <trkpt lat="45.08689" lon="2.72725">
        <ele>1373.86</ele>
        <time>2019-07-13T07:45:09Z</time>
      </trkpt>
      <trkpt lat="45.08689" lon="2.72723">
        <ele>1373.86</ele>
        <time>2019-07-13T07:45:11Z</time>
      </trkpt>
      <trkpt lat="45.08686" lon="2.72717">
        <ele>1374.34</ele>
        <time>2019-07-13T07:45:16Z</time>
      </trkpt>
      <trkpt lat="45.08683" lon="2.727">
        <ele>1375.78</ele>
        <time>2019-07-13T07:45:31Z</time>
      </trkpt>
      <trkpt lat="45.08687" lon="2.72687">
        <ele>1377.23</ele>
        <time>2019-07-13T07:45:44Z</time>
      </trkpt>
      <trkpt lat="45.08692" lon="2.72675">
        <ele>1379.15</ele>
        <time>2019-07-13T07:45:56Z</time>
      </trkpt>
      <trkpt lat="45.08697" lon="2.72669">
        <ele>1379.15</ele>
        <time>2019-07-13T07:46:03Z</time>
      </trkpt>
      <trkpt lat="45.08702" lon="2.72661">
        <ele>1381.07</ele>
        <time>2019-07-13T07:46:14Z</time>
      </trkpt>
      <trkpt lat="45.08707" lon="2.7265">
        <ele>1382.99</ele>
        <time>2019-07-13T07:46:26Z</time>
      </trkpt>
      <trkpt lat="45.08708" lon="2.72646">
        <ele>1383.47</ele>
        <time>2019-07-13T07:46:32Z</time>
      </trkpt>
      <trkpt lat="45.08711" lon="2.72633">
        <ele>1384.92</ele>
        <time>2019-07-13T07:46:45Z</time>
      </trkpt>
      <trkpt lat="45.08714" lon="2.72623">
        <ele>1386.36</ele>
        <time>2019-07-13T07:46:55Z</time>
      </trkpt>
      <trkpt lat="45.08717" lon="2.72616">
        <ele>1387.8</ele>
        <time>2019-07-13T07:47:05Z</time>
      </trkpt>
      <trkpt lat="45.0872" lon="2.72608">
        <ele>1389.24</ele>
        <time>2019-07-13T07:47:15Z</time>
      </trkpt>
      <trkpt lat="45.08725" lon="2.72602">
        <ele>1390.68</ele>
        <time>2019-07-13T07:47:27Z</time>
      </trkpt>
      <trkpt lat="45.08726" lon="2.72601">
        <ele>1391.65</ele>
        <time>2019-07-13T07:47:30Z</time>
      </trkpt>
      <trkpt lat="45.08732" lon="2.72593">
        <ele>1393.09</ele>
        <time>2019-07-13T07:47:42Z</time>
      </trkpt>
      <trkpt lat="45.08735" lon="2.72589">
        <ele>1394.05</ele>
        <time>2019-07-13T07:47:51Z</time>
      </trkpt>
      <trkpt lat="45.0874" lon="2.72585">
        <ele>1396.45</ele>
        <time>2019-07-13T07:48:05Z</time>
      </trkpt>
      <trkpt lat="45.08745" lon="2.72578">
        <ele>1398.86</ele>
        <time>2019-07-13T07:48:16Z</time>
      </trkpt>
      <trkpt lat="45.08752" lon="2.72571">
        <ele>1399.82</ele>
        <time>2019-07-13T07:48:26Z</time>
      </trkpt>
      <trkpt lat="45.08754" lon="2.72567">
        <ele>1400.3</ele>
        <time>2019-07-13T07:48:30Z</time>
      </trkpt>
      <trkpt lat="45.08757" lon="2.72557">
        <ele>1401.26</ele>
        <time>2019-07-13T07:48:42Z</time>
      </trkpt>
      <trkpt lat="45.0876" lon="2.72551">
        <ele>1401.74</ele>
        <time>2019-07-13T07:48:48Z</time>
      </trkpt>
      <trkpt lat="45.08762" lon="2.72536">
        <ele>1403.66</ele>
        <time>2019-07-13T07:49:00Z</time>
      </trkpt>
      <trkpt lat="45.08763" lon="2.7252">
        <ele>1405.1</ele>
        <time>2019-07-13T07:49:16Z</time>
      </trkpt>
      <trkpt lat="45.0876" lon="2.72507">
        <ele>1406.55</ele>
        <time>2019-07-13T07:49:31Z</time>
      </trkpt>
      <trkpt lat="45.08758" lon="2.7249">
        <ele>1407.51</ele>
        <time>2019-07-13T07:49:45Z</time>
      </trkpt>
      <trkpt lat="45.08756" lon="2.72487">
        <ele>1407.51</ele>
        <time>2019-07-13T07:49:48Z</time>
      </trkpt>
      <trkpt lat="45.08757" lon="2.7247">
        <ele>1409.43</ele>
        <time>2019-07-13T07:50:02Z</time>
      </trkpt>
      <trkpt lat="45.08764" lon="2.72459">
        <ele>1410.39</ele>
        <time>2019-07-13T07:50:14Z</time>
      </trkpt>
      <trkpt lat="45.08765" lon="2.72457">
        <ele>1410.39</ele>
        <time>2019-07-13T07:50:16Z</time>
      </trkpt>
      <trkpt lat="45.08768" lon="2.72447">
        <ele>1410.39</ele>
        <time>2019-07-13T07:50:24Z</time>
      </trkpt>
      <trkpt lat="45.0876" lon="2.72416">
        <ele>1411.83</ele>
        <time>2019-07-13T07:50:36Z</time>
      </trkpt>
      <trkpt lat="45.08765" lon="2.72408">
        <ele>1411.83</ele>
        <time>2019-07-13T07:50:44Z</time>
      </trkpt>
      <trkpt lat="45.08772" lon="2.72396">
        <ele>1413.28</ele>
        <time>2019-07-13T07:50:58Z</time>
      </trkpt>
      <trkpt lat="45.08778" lon="2.72386">
        <ele>1414.24</ele>
        <time>2019-07-13T07:51:09Z</time>
      </trkpt>
      <trkpt lat="45.08781" lon="2.7238">
        <ele>1415.68</ele>
        <time>2019-07-13T07:51:17Z</time>
      </trkpt>
      <trkpt lat="45.08788" lon="2.72372">
        <ele>1416.64</ele>
        <time>2019-07-13T07:51:29Z</time>
      </trkpt>
      <trkpt lat="45.08791" lon="2.72365">
        <ele>1417.6</ele>
        <time>2019-07-13T07:51:40Z</time>
      </trkpt>
      <trkpt lat="45.08794" lon="2.72359">
        <ele>1419.04</ele>
        <time>2019-07-13T07:51:50Z</time>
      </trkpt>
      <trkpt lat="45.08795" lon="2.72348">
        <ele>1420</ele>
        <time>2019-07-13T07:52:00Z</time>
      </trkpt>
      <trkpt lat="45.08798" lon="2.72345">
        <ele>1420.49</ele>
        <time>2019-07-13T07:52:05Z</time>
      </trkpt>
      <trkpt lat="45.08805" lon="2.72338">
        <ele>1421.45</ele>
        <time>2019-07-13T07:52:16Z</time>
      </trkpt>
      <trkpt lat="45.08806" lon="2.72337">
        <ele>1421.45</ele>
        <time>2019-07-13T07:52:17Z</time>
      </trkpt>
      <trkpt lat="45.08815" lon="2.72326">
        <ele>1422.41</ele>
        <time>2019-07-13T07:52:30Z</time>
      </trkpt>
      <trkpt lat="45.08826" lon="2.72322">
        <ele>1424.33</ele>
        <time>2019-07-13T07:52:41Z</time>
      </trkpt>
      <trkpt lat="45.0883" lon="2.72319">
        <ele>1425.29</ele>
        <time>2019-07-13T07:52:47Z</time>
      </trkpt>
      <trkpt lat="45.08836" lon="2.72313">
        <ele>1425.77</ele>
        <time>2019-07-13T07:52:58Z</time>
      </trkpt>
      <trkpt lat="45.08838" lon="2.72304">
        <ele>1427.21</ele>
        <time>2019-07-13T07:53:09Z</time>
      </trkpt>
      <trkpt lat="45.08841" lon="2.72299">
        <ele>1428.66</ele>
        <time>2019-07-13T07:53:16Z</time>
      </trkpt>
      <trkpt lat="45.08844" lon="2.7229">
        <ele>1430.58</ele>
        <time>2019-07-13T07:53:28Z</time>
      </trkpt>
      <trkpt lat="45.08847" lon="2.72283">
        <ele>1431.06</ele>
        <time>2019-07-13T07:53:38Z</time>
      </trkpt>
      <trkpt lat="45.08849" lon="2.72282">
        <ele>1432.02</ele>
        <time>2019-07-13T07:53:41Z</time>
      </trkpt>
      <trkpt lat="45.0886" lon="2.72273">
        <ele>1433.46</ele>
        <time>2019-07-13T07:53:50Z</time>
      </trkpt>
      <trkpt lat="45.08871" lon="2.7227">
        <ele>1435.39</ele>
        <time>2019-07-13T07:54:02Z</time>
      </trkpt>
      <trkpt lat="45.0888" lon="2.72265">
        <ele>1437.31</ele>
        <time>2019-07-13T07:54:13Z</time>
      </trkpt>
      <trkpt lat="45.08888" lon="2.72262">
        <ele>1438.27</ele>
        <time>2019-07-13T07:54:21Z</time>
      </trkpt>
      <trkpt lat="45.08901" lon="2.72263">
        <ele>1439.71</ele>
        <time>2019-07-13T07:54:31Z</time>
      </trkpt>
      <trkpt lat="45.08909" lon="2.72259">
        <ele>1440.67</ele>
        <time>2019-07-13T07:54:41Z</time>
      </trkpt>
      <trkpt lat="45.08912" lon="2.72255">
        <ele>1440.19</ele>
        <time>2019-07-13T07:54:46Z</time>
      </trkpt>
      <trkpt lat="45.08919" lon="2.72247">
        <ele>1442.11</ele>
        <time>2019-07-13T07:55:00Z</time>
      </trkpt>
      <trkpt lat="45.08922" lon="2.72242">
        <ele>1443.56</ele>
        <time>2019-07-13T07:55:12Z</time>
      </trkpt>
      <trkpt lat="45.08928" lon="2.72234">
        <ele>1445</ele>
        <time>2019-07-13T07:55:25Z</time>
      </trkpt>
      <trkpt lat="45.08928" lon="2.72232">
        <ele>1445.96</ele>
        <time>2019-07-13T07:55:30Z</time>
      </trkpt>
      <trkpt lat="45.08935" lon="2.72223">
        <ele>1446.92</ele>
        <time>2019-07-13T07:55:44Z</time>
      </trkpt>
      <trkpt lat="45.08937" lon="2.72224">
        <ele>1446.44</ele>
        <time>2019-07-13T07:56:08Z</time>
      </trkpt>
      <trkpt lat="45.08945" lon="2.72229">
        <ele>1445.96</ele>
        <time>2019-07-13T07:56:26Z</time>
      </trkpt>
      <trkpt lat="45.08946" lon="2.72227">
        <ele>1446.44</ele>
        <time>2019-07-13T07:56:56Z</time>
      </trkpt>
      <trkpt lat="45.08945" lon="2.72227">
        <ele>1446.44</ele>
        <time>2019-07-13T07:57:32Z</time>
      </trkpt>
      <trkpt lat="45.08945" lon="2.72227">
        <ele>1446.92</ele>
        <time>2019-07-13T07:59:16Z</time>
      </trkpt>
      <trkpt lat="45.08945" lon="2.72227">
        <ele>1447.4</ele>
        <time>2019-07-13T08:00:14Z</time>
      </trkpt>
      <trkpt lat="45.08942" lon="2.72225">
        <ele>1447.88</ele>
        <time>2019-07-13T08:00:45Z</time>
      </trkpt>
      <trkpt lat="45.08942" lon="2.72225">
        <ele>1447.88</ele>
        <time>2019-07-13T08:01:15Z</time>
      </trkpt>
      <trkpt lat="45.08938" lon="2.72214">
        <ele>1448.84</ele>
        <time>2019-07-13T08:01:29Z</time>
      </trkpt>
      <trkpt lat="45.08938" lon="2.72213">
        <ele>1449.32</ele>
        <time>2019-07-13T08:01:30Z</time>
      </trkpt>
      <trkpt lat="45.08941" lon="2.72208">
        <ele>1449.81</ele>
        <time>2019-07-13T08:01:34Z</time>
      </trkpt>
      <trkpt lat="45.08947" lon="2.722">
        <ele>1450.29</ele>
        <time>2019-07-13T08:01:42Z</time>
      </trkpt>
      <trkpt lat="45.08956" lon="2.7219">
        <ele>1451.73</ele>
        <time>2019-07-13T08:01:54Z</time>
      </trkpt>
      <trkpt lat="45.08953" lon="2.72186">
        <ele>1452.69</ele>
        <time>2019-07-13T08:01:57Z</time>
      </trkpt>
      <trkpt lat="45.08952" lon="2.72183">
        <ele>1452.21</ele>
        <time>2019-07-13T08:01:59Z</time>
      </trkpt>
      <trkpt lat="45.08954" lon="2.72175">
        <ele>1452.21</ele>
        <time>2019-07-13T08:02:05Z</time>
      </trkpt>
      <trkpt lat="45.08954" lon="2.72172">
        <ele>1452.69</ele>
        <time>2019-07-13T08:02:08Z</time>
      </trkpt>
      <trkpt lat="45.08957" lon="2.72162">
        <ele>1453.17</ele>
        <time>2019-07-13T08:02:17Z</time>
      </trkpt>
      <trkpt lat="45.0895" lon="2.72146">
        <ele>1454.61</ele>
        <time>2019-07-13T08:02:30Z</time>
      </trkpt>
      <trkpt lat="45.08949" lon="2.72136">
        <ele>1456.05</ele>
        <time>2019-07-13T08:02:40Z</time>
      </trkpt>
      <trkpt lat="45.08945" lon="2.72127">
        <ele>1457.02</ele>
        <time>2019-07-13T08:02:49Z</time>
      </trkpt>
      <trkpt lat="45.08941" lon="2.72117">
        <ele>1459.42</ele>
        <time>2019-07-13T08:03:01Z</time>
      </trkpt>
      <trkpt lat="45.08941" lon="2.72115">
        <ele>1459.42</ele>
        <time>2019-07-13T08:03:02Z</time>
      </trkpt>
      <trkpt lat="45.08942" lon="2.72108">
        <ele>1460.86</ele>
        <time>2019-07-13T08:03:11Z</time>
      </trkpt>
      <trkpt lat="45.08938" lon="2.72101">
        <ele>1461.34</ele>
        <time>2019-07-13T08:03:19Z</time>
      </trkpt>
      <trkpt lat="45.08942" lon="2.72097">
        <ele>1461.82</ele>
        <time>2019-07-13T08:03:22Z</time>
      </trkpt>
      <trkpt lat="45.08945" lon="2.72091">
        <ele>1463.26</ele>
        <time>2019-07-13T08:03:31Z</time>
      </trkpt>
      <trkpt lat="45.08946" lon="2.72086">
        <ele>1464.23</ele>
        <time>2019-07-13T08:03:36Z</time>
      </trkpt>
      <trkpt lat="45.0894" lon="2.72075">
        <ele>1465.19</ele>
        <time>2019-07-13T08:03:45Z</time>
      </trkpt>
      <trkpt lat="45.08941" lon="2.72068">
        <ele>1465.67</ele>
        <time>2019-07-13T08:03:51Z</time>
      </trkpt>
      <trkpt lat="45.08942" lon="2.72057">
        <ele>1467.11</ele>
        <time>2019-07-13T08:04:05Z</time>
      </trkpt>
      <trkpt lat="45.08946" lon="2.72049">
        <ele>1468.07</ele>
        <time>2019-07-13T08:04:16Z</time>
      </trkpt>
      <trkpt lat="45.08948" lon="2.72039">
        <ele>1469.99</ele>
        <time>2019-07-13T08:04:27Z</time>
      </trkpt>
      <trkpt lat="45.08949" lon="2.72037">
        <ele>1470.47</ele>
        <time>2019-07-13T08:04:30Z</time>
      </trkpt>
      <trkpt lat="45.08953" lon="2.72029">
        <ele>1470.47</ele>
        <time>2019-07-13T08:04:39Z</time>
      </trkpt>
      <trkpt lat="45.08955" lon="2.72022">
        <ele>1471.44</ele>
        <time>2019-07-13T08:04:48Z</time>
      </trkpt>
      <trkpt lat="45.0896" lon="2.7201">
        <ele>1472.4</ele>
        <time>2019-07-13T08:05:00Z</time>
      </trkpt>
      <trkpt lat="45.08966" lon="2.71997">
        <ele>1473.84</ele>
        <time>2019-07-13T08:05:12Z</time>
      </trkpt>
      <trkpt lat="45.08968" lon="2.71992">
        <ele>1475.28</ele>
        <time>2019-07-13T08:05:22Z</time>
      </trkpt>
      <trkpt lat="45.08973" lon="2.71988">
        <ele>1475.76</ele>
        <time>2019-07-13T08:05:29Z</time>
      </trkpt>
      <trkpt lat="45.08979" lon="2.71982">
        <ele>1476.24</ele>
        <time>2019-07-13T08:05:39Z</time>
      </trkpt>
      <trkpt lat="45.0898" lon="2.71973">
        <ele>1478.16</ele>
        <time>2019-07-13T08:05:52Z</time>
      </trkpt>
      <trkpt lat="45.08987" lon="2.71968">
        <ele>1480.09</ele>
        <time>2019-07-13T08:06:02Z</time>
      </trkpt>
      <trkpt lat="45.0899" lon="2.71967">
        <ele>1481.53</ele>
        <time>2019-07-13T08:06:12Z</time>
      </trkpt>
      <trkpt lat="45.08991" lon="2.71963">
        <ele>1481.53</ele>
        <time>2019-07-13T08:06:18Z</time>
      </trkpt>
      <trkpt lat="45.08998" lon="2.71951">
        <ele>1482.49</ele>
        <time>2019-07-13T08:06:32Z</time>
      </trkpt>
      <trkpt lat="45.09013" lon="2.71937">
        <ele>1483.93</ele>
        <time>2019-07-13T08:06:48Z</time>
      </trkpt>
      <trkpt lat="45.09021" lon="2.71924">
        <ele>1485.85</ele>
        <time>2019-07-13T08:07:02Z</time>
      </trkpt>
      <trkpt lat="45.09024" lon="2.71916">
        <ele>1487.78</ele>
        <time>2019-07-13T08:07:13Z</time>
      </trkpt>
      <trkpt lat="45.09025" lon="2.71914">
        <ele>1487.78</ele>
        <time>2019-07-13T08:07:15Z</time>
      </trkpt>
      <trkpt lat="45.09027" lon="2.71902">
        <ele>1489.7</ele>
        <time>2019-07-13T08:07:27Z</time>
      </trkpt>
      <trkpt lat="45.09029" lon="2.71889">
        <ele>1491.62</ele>
        <time>2019-07-13T08:07:38Z</time>
      </trkpt>
      <trkpt lat="45.09028" lon="2.7188">
        <ele>1492.1</ele>
        <time>2019-07-13T08:07:48Z</time>
      </trkpt>
      <trkpt lat="45.09029" lon="2.7187">
        <ele>1493.55</ele>
        <time>2019-07-13T08:08:01Z</time>
      </trkpt>
      <trkpt lat="45.09027" lon="2.71858">
        <ele>1494.51</ele>
        <time>2019-07-13T08:08:14Z</time>
      </trkpt>
      <trkpt lat="45.09025" lon="2.71847">
        <ele>1494.99</ele>
        <time>2019-07-13T08:08:26Z</time>
      </trkpt>
      <trkpt lat="45.09025" lon="2.71846">
        <ele>1494.99</ele>
        <time>2019-07-13T08:08:38Z</time>
      </trkpt>
      <trkpt lat="45.09028" lon="2.71836">
        <ele>1495.47</ele>
        <time>2019-07-13T08:08:48Z</time>
      </trkpt>
      <trkpt lat="45.09029" lon="2.7183">
        <ele>1495.95</ele>
        <time>2019-07-13T08:08:53Z</time>
      </trkpt>
      <trkpt lat="45.09032" lon="2.7182">
        <ele>1497.87</ele>
        <time>2019-07-13T08:09:01Z</time>
      </trkpt>
      <trkpt lat="45.09037" lon="2.71805">
        <ele>1498.35</ele>
        <time>2019-07-13T08:09:13Z</time>
      </trkpt>
      <trkpt lat="45.09042" lon="2.71791">
        <ele>1498.35</ele>
        <time>2019-07-13T08:09:25Z</time>
      </trkpt>
      <trkpt lat="45.0905" lon="2.71778">
        <ele>1500.27</ele>
        <time>2019-07-13T08:09:39Z</time>
      </trkpt>
      <trkpt lat="45.09055" lon="2.71765">
        <ele>1502.2</ele>
        <time>2019-07-13T08:09:53Z</time>
      </trkpt>
      <trkpt lat="45.09064" lon="2.71758">
        <ele>1504.12</ele>
        <time>2019-07-13T08:10:06Z</time>
      </trkpt>
      <trkpt lat="45.09068" lon="2.71748">
        <ele>1506.04</ele>
        <time>2019-07-13T08:10:18Z</time>
      </trkpt>
      <trkpt lat="45.09074" lon="2.71737">
        <ele>1507</ele>
        <time>2019-07-13T08:10:31Z</time>
      </trkpt>
      <trkpt lat="45.09079" lon="2.71728">
        <ele>1508.45</ele>
        <time>2019-07-13T08:10:42Z</time>
      </trkpt>
      <trkpt lat="45.09083" lon="2.7172">
        <ele>1509.89</ele>
        <time>2019-07-13T08:10:55Z</time>
      </trkpt>
      <trkpt lat="45.09083" lon="2.71721">
        <ele>1509.89</ele>
        <time>2019-07-13T08:11:09Z</time>
      </trkpt>
      <trkpt lat="45.0909" lon="2.71717">
        <ele>1509.89</ele>
        <time>2019-07-13T08:11:22Z</time>
      </trkpt>
      <trkpt lat="45.09094" lon="2.71711">
        <ele>1511.81</ele>
        <time>2019-07-13T08:11:33Z</time>
      </trkpt>
      <trkpt lat="45.091" lon="2.7171">
        <ele>1512.77</ele>
        <time>2019-07-13T08:11:46Z</time>
      </trkpt>
      <trkpt lat="45.09109" lon="2.71707">
        <ele>1513.73</ele>
        <time>2019-07-13T08:11:56Z</time>
      </trkpt>
      <trkpt lat="45.09111" lon="2.71707">
        <ele>1513.73</ele>
        <time>2019-07-13T08:11:58Z</time>
      </trkpt>
      <trkpt lat="45.09119" lon="2.71706">
        <ele>1514.69</ele>
        <time>2019-07-13T08:12:10Z</time>
      </trkpt>
      <trkpt lat="45.09122" lon="2.71706">
        <ele>1515.18</ele>
        <time>2019-07-13T08:12:13Z</time>
      </trkpt>
      <trkpt lat="45.09126" lon="2.71706">
        <ele>1515.66</ele>
        <time>2019-07-13T08:12:18Z</time>
      </trkpt>
      <trkpt lat="45.09133" lon="2.71704">
        <ele>1517.1</ele>
        <time>2019-07-13T08:12:25Z</time>
      </trkpt>
      <trkpt lat="45.09142" lon="2.71704">
        <ele>1517.58</ele>
        <time>2019-07-13T08:12:38Z</time>
      </trkpt>
      <trkpt lat="45.09153" lon="2.71701">
        <ele>1517.58</ele>
        <time>2019-07-13T08:12:53Z</time>
      </trkpt>
      <trkpt lat="45.09163" lon="2.71697">
        <ele>1519.5</ele>
        <time>2019-07-13T08:13:06Z</time>
      </trkpt>
      <trkpt lat="45.09175" lon="2.71695">
        <ele>1519.98</ele>
        <time>2019-07-13T08:13:18Z</time>
      </trkpt>
      <trkpt lat="45.09185" lon="2.71692">
        <ele>1520.46</ele>
        <time>2019-07-13T08:13:30Z</time>
      </trkpt>
      <trkpt lat="45.09198" lon="2.71683">
        <ele>1519.98</ele>
        <time>2019-07-13T08:13:45Z</time>
      </trkpt>
      <trkpt lat="45.09211" lon="2.7168">
        <ele>1519.98</ele>
        <time>2019-07-13T08:13:59Z</time>
      </trkpt>
      <trkpt lat="45.09224" lon="2.71677">
        <ele>1519.98</ele>
        <time>2019-07-13T08:14:12Z</time>
      </trkpt>
      <trkpt lat="45.09227" lon="2.71677">
        <ele>1520.94</ele>
        <time>2019-07-13T08:14:15Z</time>
      </trkpt>
      <trkpt lat="45.09233" lon="2.71676">
        <ele>1520.94</ele>
        <time>2019-07-13T08:14:22Z</time>
      </trkpt>
      <trkpt lat="45.0924" lon="2.71677">
        <ele>1521.42</ele>
        <time>2019-07-13T08:14:32Z</time>
      </trkpt>
      <trkpt lat="45.09242" lon="2.71676">
        <ele>1521.9</ele>
        <time>2019-07-13T08:14:34Z</time>
      </trkpt>
      <trkpt lat="45.09251" lon="2.71675">
        <ele>1523.35</ele>
        <time>2019-07-13T08:14:47Z</time>
      </trkpt>
      <trkpt lat="45.09258" lon="2.71677">
        <ele>1524.79</ele>
        <time>2019-07-13T08:14:57Z</time>
      </trkpt>
      <trkpt lat="45.09266" lon="2.7168">
        <ele>1527.19</ele>
        <time>2019-07-13T08:15:09Z</time>
      </trkpt>
      <trkpt lat="45.09275" lon="2.7168">
        <ele>1528.15</ele>
        <time>2019-07-13T08:15:20Z</time>
      </trkpt>
      <trkpt lat="45.09286" lon="2.71684">
        <ele>1529.59</ele>
        <time>2019-07-13T08:15:33Z</time>
      </trkpt>
      <trkpt lat="45.09292" lon="2.71683">
        <ele>1531.04</ele>
        <time>2019-07-13T08:15:42Z</time>
      </trkpt>
      <trkpt lat="45.09298" lon="2.71677">
        <ele>1531.52</ele>
        <time>2019-07-13T08:15:55Z</time>
      </trkpt>
      <trkpt lat="45.09301" lon="2.71675">
        <ele>1532.48</ele>
        <time>2019-07-13T08:16:01Z</time>
      </trkpt>
      <trkpt lat="45.09305" lon="2.7168">
        <ele>1533.92</ele>
        <time>2019-07-13T08:16:16Z</time>
      </trkpt>
      <trkpt lat="45.09305" lon="2.7168">
        <ele>1534.4</ele>
        <time>2019-07-13T08:16:54Z</time>
      </trkpt>
      <trkpt lat="45.09305" lon="2.7168">
        <ele>1535.36</ele>
        <time>2019-07-13T08:17:10Z</time>
      </trkpt>
      <trkpt lat="45.09307" lon="2.71681">
        <ele>1533.44</ele>
        <time>2019-07-13T08:17:44Z</time>
      </trkpt>
      <trkpt lat="45.09308" lon="2.7168">
        <ele>1535.36</ele>
        <time>2019-07-13T08:18:02Z</time>
      </trkpt>
      <trkpt lat="45.09307" lon="2.7168">
        <ele>1534.88</ele>
        <time>2019-07-13T08:18:38Z</time>
      </trkpt>
      <trkpt lat="45.09306" lon="2.71681">
        <ele>1534.4</ele>
        <time>2019-07-13T08:18:57Z</time>
      </trkpt>
      <trkpt lat="45.09307" lon="2.71682">
        <ele>1534.4</ele>
        <time>2019-07-13T08:19:16Z</time>
      </trkpt>
      <trkpt lat="45.09307" lon="2.71682">
        <ele>1535.84</ele>
        <time>2019-07-13T08:20:15Z</time>
      </trkpt>
      <trkpt lat="45.09306" lon="2.71681">
        <ele>1536.32</ele>
        <time>2019-07-13T08:22:13Z</time>
      </trkpt>
      <trkpt lat="45.09307" lon="2.7168">
        <ele>1536.8</ele>
        <time>2019-07-13T08:23:10Z</time>
      </trkpt>
      <trkpt lat="45.09314" lon="2.71692">
        <ele>1535.84</ele>
        <time>2019-07-13T08:23:41Z</time>
      </trkpt>
      <trkpt lat="45.0932" lon="2.71696">
        <ele>1536.32</ele>
        <time>2019-07-13T08:23:48Z</time>
      </trkpt>
      <trkpt lat="45.09326" lon="2.71703">
        <ele>1535.84</ele>
        <time>2019-07-13T08:23:55Z</time>
      </trkpt>
      <trkpt lat="45.09339" lon="2.71711">
        <ele>1536.8</ele>
        <time>2019-07-13T08:24:09Z</time>
      </trkpt>
      <trkpt lat="45.09341" lon="2.71712">
        <ele>1536.8</ele>
        <time>2019-07-13T08:24:11Z</time>
      </trkpt>
      <trkpt lat="45.09343" lon="2.71714">
        <ele>1536.8</ele>
        <time>2019-07-13T08:24:14Z</time>
      </trkpt>
      <trkpt lat="45.09355" lon="2.71719">
        <ele>1535.84</ele>
        <time>2019-07-13T08:24:27Z</time>
      </trkpt>
      <trkpt lat="45.09359" lon="2.7172">
        <ele>1536.32</ele>
        <time>2019-07-13T08:24:31Z</time>
      </trkpt>
      <trkpt lat="45.09373" lon="2.71723">
        <ele>1535.84</ele>
        <time>2019-07-13T08:24:46Z</time>
      </trkpt>
      <trkpt lat="45.09388" lon="2.71729">
        <ele>1536.32</ele>
        <time>2019-07-13T08:25:00Z</time>
      </trkpt>
      <trkpt lat="45.09389" lon="2.71731">
        <ele>1536.32</ele>
        <time>2019-07-13T08:25:02Z</time>
      </trkpt>
      <trkpt lat="45.09391" lon="2.71731">
        <ele>1536.8</ele>
        <time>2019-07-13T08:25:04Z</time>
      </trkpt>
      <trkpt lat="45.09395" lon="2.71734">
        <ele>1536.8</ele>
        <time>2019-07-13T08:25:08Z</time>
      </trkpt>
      <trkpt lat="45.09397" lon="2.71737">
        <ele>1537.77</ele>
        <time>2019-07-13T08:25:11Z</time>
      </trkpt>
      <trkpt lat="45.0941" lon="2.71744">
        <ele>1537.29</ele>
        <time>2019-07-13T08:25:25Z</time>
      </trkpt>
      <trkpt lat="45.09418" lon="2.71747">
        <ele>1537.77</ele>
        <time>2019-07-13T08:25:33Z</time>
      </trkpt>
      <trkpt lat="45.09433" lon="2.71749">
        <ele>1537.77</ele>
        <time>2019-07-13T08:25:47Z</time>
      </trkpt>
      <trkpt lat="45.09434" lon="2.71749">
        <ele>1538.25</ele>
        <time>2019-07-13T08:25:48Z</time>
      </trkpt>
      <trkpt lat="45.09438" lon="2.7175">
        <ele>1538.25</ele>
        <time>2019-07-13T08:25:52Z</time>
      </trkpt>
      <trkpt lat="45.09452" lon="2.71756">
        <ele>1538.73</ele>
        <time>2019-07-13T08:26:06Z</time>
      </trkpt>
      <trkpt lat="45.09455" lon="2.71758">
        <ele>1539.21</ele>
        <time>2019-07-13T08:26:09Z</time>
      </trkpt>
      <trkpt lat="45.09459" lon="2.7176">
        <ele>1538.73</ele>
        <time>2019-07-13T08:26:13Z</time>
      </trkpt>
      <trkpt lat="45.09461" lon="2.7176">
        <ele>1538.73</ele>
        <time>2019-07-13T08:26:15Z</time>
      </trkpt>
      <trkpt lat="45.09469" lon="2.71763">
        <ele>1537.29</ele>
        <time>2019-07-13T08:26:28Z</time>
      </trkpt>
      <trkpt lat="45.09484" lon="2.71766">
        <ele>1538.73</ele>
        <time>2019-07-13T08:26:43Z</time>
      </trkpt>
      <trkpt lat="45.09491" lon="2.7177">
        <ele>1538.25</ele>
        <time>2019-07-13T08:26:50Z</time>
      </trkpt>
      <trkpt lat="45.09497" lon="2.71769">
        <ele>1539.21</ele>
        <time>2019-07-13T08:26:56Z</time>
      </trkpt>
      <trkpt lat="45.09502" lon="2.7177">
        <ele>1538.73</ele>
        <time>2019-07-13T08:27:00Z</time>
      </trkpt>
      <trkpt lat="45.09506" lon="2.71771">
        <ele>1538.73</ele>
        <time>2019-07-13T08:27:04Z</time>
      </trkpt>
      <trkpt lat="45.09507" lon="2.71771">
        <ele>1539.21</ele>
        <time>2019-07-13T08:27:06Z</time>
      </trkpt>
      <trkpt lat="45.09511" lon="2.7177">
        <ele>1538.73</ele>
        <time>2019-07-13T08:27:09Z</time>
      </trkpt>
      <trkpt lat="45.09524" lon="2.71769">
        <ele>1538.73</ele>
        <time>2019-07-13T08:27:21Z</time>
      </trkpt>
      <trkpt lat="45.09539" lon="2.7177">
        <ele>1538.73</ele>
        <time>2019-07-13T08:27:36Z</time>
      </trkpt>
      <trkpt lat="45.09544" lon="2.7177">
        <ele>1539.69</ele>
        <time>2019-07-13T08:27:42Z</time>
      </trkpt>
      <trkpt lat="45.09558" lon="2.71765">
        <ele>1539.69</ele>
        <time>2019-07-13T08:27:59Z</time>
      </trkpt>
      <trkpt lat="45.0956" lon="2.71764">
        <ele>1539.21</ele>
        <time>2019-07-13T08:28:01Z</time>
      </trkpt>
      <trkpt lat="45.09567" lon="2.71766">
        <ele>1539.69</ele>
        <time>2019-07-13T08:28:08Z</time>
      </trkpt>
      <trkpt lat="45.09572" lon="2.71766">
        <ele>1538.25</ele>
        <time>2019-07-13T08:28:12Z</time>
      </trkpt>
      <trkpt lat="45.09585" lon="2.71762">
        <ele>1538.25</ele>
        <time>2019-07-13T08:28:25Z</time>
      </trkpt>
      <trkpt lat="45.09589" lon="2.71762">
        <ele>1538.73</ele>
        <time>2019-07-13T08:28:28Z</time>
      </trkpt>
      <trkpt lat="45.09597" lon="2.71761">
        <ele>1538.73</ele>
        <time>2019-07-13T08:28:36Z</time>
      </trkpt>
      <trkpt lat="45.09602" lon="2.7176">
        <ele>1537.77</ele>
        <time>2019-07-13T08:28:42Z</time>
      </trkpt>
      <trkpt lat="45.09611" lon="2.7176">
        <ele>1538.73</ele>
        <time>2019-07-13T08:28:50Z</time>
      </trkpt>
      <trkpt lat="45.09612" lon="2.7176">
        <ele>1538.73</ele>
        <time>2019-07-13T08:28:52Z</time>
      </trkpt>
      <trkpt lat="45.09621" lon="2.71762">
        <ele>1538.73</ele>
        <time>2019-07-13T08:29:00Z</time>
      </trkpt>
      <trkpt lat="45.09627" lon="2.71761">
        <ele>1539.21</ele>
        <time>2019-07-13T08:29:06Z</time>
      </trkpt>
      <trkpt lat="45.09631" lon="2.71761">
        <ele>1539.21</ele>
        <time>2019-07-13T08:29:09Z</time>
      </trkpt>
      <trkpt lat="45.09638" lon="2.71758">
        <ele>1538.73</ele>
        <time>2019-07-13T08:29:16Z</time>
      </trkpt>
      <trkpt lat="45.0964" lon="2.71758">
        <ele>1539.21</ele>
        <time>2019-07-13T08:29:18Z</time>
      </trkpt>
      <trkpt lat="45.09646" lon="2.71754">
        <ele>1539.21</ele>
        <time>2019-07-13T08:29:26Z</time>
      </trkpt>
      <trkpt lat="45.09654" lon="2.71751">
        <ele>1539.69</ele>
        <time>2019-07-13T08:29:33Z</time>
      </trkpt>
      <trkpt lat="45.09657" lon="2.71752">
        <ele>1539.69</ele>
        <time>2019-07-13T08:29:36Z</time>
      </trkpt>
      <trkpt lat="45.09661" lon="2.71751">
        <ele>1540.17</ele>
        <time>2019-07-13T08:29:40Z</time>
      </trkpt>
      <trkpt lat="45.09667" lon="2.71747">
        <ele>1541.13</ele>
        <time>2019-07-13T08:29:47Z</time>
      </trkpt>
      <trkpt lat="45.09669" lon="2.71748">
        <ele>1541.13</ele>
        <time>2019-07-13T08:29:49Z</time>
      </trkpt>
      <trkpt lat="45.09676" lon="2.71745">
        <ele>1541.61</ele>
        <time>2019-07-13T08:29:56Z</time>
      </trkpt>
      <trkpt lat="45.09688" lon="2.71736">
        <ele>1542.57</ele>
        <time>2019-07-13T08:30:10Z</time>
      </trkpt>
      <trkpt lat="45.09697" lon="2.71731">
        <ele>1542.09</ele>
        <time>2019-07-13T08:30:21Z</time>
      </trkpt>
      <trkpt lat="45.09705" lon="2.71726">
        <ele>1542.57</ele>
        <time>2019-07-13T08:30:30Z</time>
      </trkpt>
      <trkpt lat="45.09714" lon="2.71718">
        <ele>1541.13</ele>
        <time>2019-07-13T08:30:42Z</time>
      </trkpt>
      <trkpt lat="45.09723" lon="2.71715">
        <ele>1541.13</ele>
        <time>2019-07-13T08:30:53Z</time>
      </trkpt>
      <trkpt lat="45.09726" lon="2.71713">
        <ele>1540.65</ele>
        <time>2019-07-13T08:30:58Z</time>
      </trkpt>
      <trkpt lat="45.09734" lon="2.71711">
        <ele>1541.13</ele>
        <time>2019-07-13T08:31:07Z</time>
      </trkpt>
      <trkpt lat="45.09744" lon="2.71706">
        <ele>1540.17</ele>
        <time>2019-07-13T08:31:19Z</time>
      </trkpt>
      <trkpt lat="45.09755" lon="2.71704">
        <ele>1541.61</ele>
        <time>2019-07-13T08:31:31Z</time>
      </trkpt>
      <trkpt lat="45.09756" lon="2.71703">
        <ele>1541.61</ele>
        <time>2019-07-13T08:31:32Z</time>
      </trkpt>
      <trkpt lat="45.09767" lon="2.71699">
        <ele>1541.13</ele>
        <time>2019-07-13T08:31:46Z</time>
      </trkpt>
      <trkpt lat="45.09771" lon="2.71696">
        <ele>1540.17</ele>
        <time>2019-07-13T08:31:52Z</time>
      </trkpt>
      <trkpt lat="45.09784" lon="2.71693">
        <ele>1539.21</ele>
        <time>2019-07-13T08:32:06Z</time>
      </trkpt>
      <trkpt lat="45.09789" lon="2.71691">
        <ele>1538.73</ele>
        <time>2019-07-13T08:32:11Z</time>
      </trkpt>
      <trkpt lat="45.09794" lon="2.71691">
        <ele>1538.73</ele>
        <time>2019-07-13T08:32:16Z</time>
      </trkpt>
      <trkpt lat="45.09797" lon="2.71691">
        <ele>1539.21</ele>
        <time>2019-07-13T08:32:18Z</time>
      </trkpt>
      <trkpt lat="45.0981" lon="2.71688">
        <ele>1538.25</ele>
        <time>2019-07-13T08:32:32Z</time>
      </trkpt>
      <trkpt lat="45.09813" lon="2.71686">
        <ele>1538.25</ele>
        <time>2019-07-13T08:32:35Z</time>
      </trkpt>
      <trkpt lat="45.09827" lon="2.71683">
        <ele>1538.73</ele>
        <time>2019-07-13T08:32:50Z</time>
      </trkpt>
      <trkpt lat="45.09835" lon="2.71679">
        <ele>1537.77</ele>
        <time>2019-07-13T08:33:00Z</time>
      </trkpt>
      <trkpt lat="45.09849" lon="2.71672">
        <ele>1537.77</ele>
        <time>2019-07-13T08:33:15Z</time>
      </trkpt>
      <trkpt lat="45.09855" lon="2.7167">
        <ele>1538.25</ele>
        <time>2019-07-13T08:33:23Z</time>
      </trkpt>
      <trkpt lat="45.09864" lon="2.71666">
        <ele>1538.25</ele>
        <time>2019-07-13T08:33:32Z</time>
      </trkpt>
      <trkpt lat="45.09872" lon="2.71665">
        <ele>1538.73</ele>
        <time>2019-07-13T08:33:41Z</time>
      </trkpt>
      <trkpt lat="45.09881" lon="2.71662">
        <ele>1538.25</ele>
        <time>2019-07-13T08:33:51Z</time>
      </trkpt>
      <trkpt lat="45.09894" lon="2.7166">
        <ele>1539.21</ele>
        <time>2019-07-13T08:34:06Z</time>
      </trkpt>
      <trkpt lat="45.09899" lon="2.71658">
        <ele>1539.21</ele>
        <time>2019-07-13T08:34:12Z</time>
      </trkpt>
      <trkpt lat="45.099" lon="2.71656">
        <ele>1538.73</ele>
        <time>2019-07-13T08:34:14Z</time>
      </trkpt>
      <trkpt lat="45.09908" lon="2.71654">
        <ele>1538.73</ele>
        <time>2019-07-13T08:34:23Z</time>
      </trkpt>
      <trkpt lat="45.09918" lon="2.71651">
        <ele>1537.77</ele>
        <time>2019-07-13T08:34:36Z</time>
      </trkpt>
      <trkpt lat="45.09931" lon="2.71649">
        <ele>1536.32</ele>
        <time>2019-07-13T08:34:50Z</time>
      </trkpt>
      <trkpt lat="45.09942" lon="2.71651">
        <ele>1534.88</ele>
        <time>2019-07-13T08:35:02Z</time>
      </trkpt>
      <trkpt lat="45.09954" lon="2.71647">
        <ele>1534.4</ele>
        <time>2019-07-13T08:35:15Z</time>
      </trkpt>
      <trkpt lat="45.09964" lon="2.71645">
        <ele>1532.96</ele>
        <time>2019-07-13T08:35:28Z</time>
      </trkpt>
      <trkpt lat="45.09973" lon="2.71647">
        <ele>1533.44</ele>
        <time>2019-07-13T08:35:36Z</time>
      </trkpt>
      <trkpt lat="45.0999" lon="2.71647">
        <ele>1532.48</ele>
        <time>2019-07-13T08:35:52Z</time>
      </trkpt>
      <trkpt lat="45.09995" lon="2.71649">
        <ele>1532.96</ele>
        <time>2019-07-13T08:35:57Z</time>
      </trkpt>
      <trkpt lat="45.10001" lon="2.7165">
        <ele>1532.48</ele>
        <time>2019-07-13T08:36:06Z</time>
      </trkpt>
      <trkpt lat="45.10012" lon="2.71652">
        <ele>1531.04</ele>
        <time>2019-07-13T08:36:18Z</time>
      </trkpt>
      <trkpt lat="45.10025" lon="2.71655">
        <ele>1529.59</ele>
        <time>2019-07-13T08:36:32Z</time>
      </trkpt>
      <trkpt lat="45.10033" lon="2.71656">
        <ele>1530.08</ele>
        <time>2019-07-13T08:36:40Z</time>
      </trkpt>
      <trkpt lat="45.10036" lon="2.71656">
        <ele>1529.59</ele>
        <time>2019-07-13T08:36:43Z</time>
      </trkpt>
      <trkpt lat="45.10037" lon="2.71655">
        <ele>1529.11</ele>
        <time>2019-07-13T08:36:45Z</time>
      </trkpt>
      <trkpt lat="45.10051" lon="2.71659">
        <ele>1528.15</ele>
        <time>2019-07-13T08:37:00Z</time>
      </trkpt>
      <trkpt lat="45.10056" lon="2.7166">
        <ele>1528.63</ele>
        <time>2019-07-13T08:37:05Z</time>
      </trkpt>
      <trkpt lat="45.10062" lon="2.71665">
        <ele>1527.67</ele>
        <time>2019-07-13T08:37:13Z</time>
      </trkpt>
      <trkpt lat="45.10064" lon="2.71665">
        <ele>1528.15</ele>
        <time>2019-07-13T08:37:15Z</time>
      </trkpt>
      <trkpt lat="45.10079" lon="2.71668">
        <ele>1529.11</ele>
        <time>2019-07-13T08:37:29Z</time>
      </trkpt>
      <trkpt lat="45.10087" lon="2.71669">
        <ele>1529.11</ele>
        <time>2019-07-13T08:37:38Z</time>
      </trkpt>
      <trkpt lat="45.10096" lon="2.71666">
        <ele>1528.63</ele>
        <time>2019-07-13T08:37:51Z</time>
      </trkpt>
      <trkpt lat="45.1011" lon="2.71658">
        <ele>1527.67</ele>
        <time>2019-07-13T08:38:07Z</time>
      </trkpt>
      <trkpt lat="45.10111" lon="2.71656">
        <ele>1527.67</ele>
        <time>2019-07-13T08:38:09Z</time>
      </trkpt>
      <trkpt lat="45.10113" lon="2.71654">
        <ele>1527.19</ele>
        <time>2019-07-13T08:38:11Z</time>
      </trkpt>
      <trkpt lat="45.10119" lon="2.71655">
        <ele>1527.67</ele>
        <time>2019-07-13T08:38:23Z</time>
      </trkpt>
      <trkpt lat="45.10119" lon="2.71655">
        <ele>1527.67</ele>
        <time>2019-07-13T08:38:40Z</time>
      </trkpt>
      <trkpt lat="45.10126" lon="2.71651">
        <ele>1528.15</ele>
        <time>2019-07-13T08:38:48Z</time>
      </trkpt>
      <trkpt lat="45.1013" lon="2.71649">
        <ele>1527.67</ele>
        <time>2019-07-13T08:38:53Z</time>
      </trkpt>
      <trkpt lat="45.10142" lon="2.71643">
        <ele>1527.67</ele>
        <time>2019-07-13T08:39:06Z</time>
      </trkpt>
      <trkpt lat="45.10143" lon="2.71642">
        <ele>1527.19</ele>
        <time>2019-07-13T08:39:07Z</time>
      </trkpt>
      <trkpt lat="45.10154" lon="2.71635">
        <ele>1527.19</ele>
        <time>2019-07-13T08:39:19Z</time>
      </trkpt>
      <trkpt lat="45.10168" lon="2.7163">
        <ele>1527.19</ele>
        <time>2019-07-13T08:39:33Z</time>
      </trkpt>
      <trkpt lat="45.10169" lon="2.71629">
        <ele>1527.67</ele>
        <time>2019-07-13T08:39:34Z</time>
      </trkpt>
      <trkpt lat="45.10174" lon="2.71629">
        <ele>1528.15</ele>
        <time>2019-07-13T08:39:39Z</time>
      </trkpt>
      <trkpt lat="45.10185" lon="2.71628">
        <ele>1526.71</ele>
        <time>2019-07-13T08:39:51Z</time>
      </trkpt>
      <trkpt lat="45.10189" lon="2.71628">
        <ele>1526.71</ele>
        <time>2019-07-13T08:39:55Z</time>
      </trkpt>
      <trkpt lat="45.10197" lon="2.71632">
        <ele>1527.67</ele>
        <time>2019-07-13T08:40:03Z</time>
      </trkpt>
      <trkpt lat="45.10199" lon="2.71633">
        <ele>1527.19</ele>
        <time>2019-07-13T08:40:06Z</time>
      </trkpt>
      <trkpt lat="45.10216" lon="2.71634">
        <ele>1526.71</ele>
        <time>2019-07-13T08:40:21Z</time>
      </trkpt>
      <trkpt lat="45.10217" lon="2.71634">
        <ele>1526.23</ele>
        <time>2019-07-13T08:40:22Z</time>
      </trkpt>
      <trkpt lat="45.1022" lon="2.71633">
        <ele>1525.75</ele>
        <time>2019-07-13T08:40:24Z</time>
      </trkpt>
      <trkpt lat="45.10229" lon="2.71637">
        <ele>1526.23</ele>
        <time>2019-07-13T08:40:33Z</time>
      </trkpt>
      <trkpt lat="45.10244" lon="2.71638">
        <ele>1527.67</ele>
        <time>2019-07-13T08:40:47Z</time>
      </trkpt>
      <trkpt lat="45.10258" lon="2.71642">
        <ele>1527.67</ele>
        <time>2019-07-13T08:41:01Z</time>
      </trkpt>
      <trkpt lat="45.10266" lon="2.71642">
        <ele>1528.15</ele>
        <time>2019-07-13T08:41:08Z</time>
      </trkpt>
      <trkpt lat="45.10278" lon="2.71646">
        <ele>1527.19</ele>
        <time>2019-07-13T08:41:20Z</time>
      </trkpt>
      <trkpt lat="45.10288" lon="2.71651">
        <ele>1527.19</ele>
        <time>2019-07-13T08:41:31Z</time>
      </trkpt>
      <trkpt lat="45.10301" lon="2.71651">
        <ele>1526.23</ele>
        <time>2019-07-13T08:41:45Z</time>
      </trkpt>
      <trkpt lat="45.10305" lon="2.71658">
        <ele>1525.75</ele>
        <time>2019-07-13T08:41:55Z</time>
      </trkpt>
      <trkpt lat="45.10312" lon="2.71665">
        <ele>1524.79</ele>
        <time>2019-07-13T08:42:05Z</time>
      </trkpt>
      <trkpt lat="45.10317" lon="2.71673">
        <ele>1524.31</ele>
        <time>2019-07-13T08:42:13Z</time>
      </trkpt>
      <trkpt lat="45.10325" lon="2.71685">
        <ele>1525.27</ele>
        <time>2019-07-13T08:42:27Z</time>
      </trkpt>
      <trkpt lat="45.10327" lon="2.71685">
        <ele>1524.31</ele>
        <time>2019-07-13T08:42:44Z</time>
      </trkpt>
      <trkpt lat="45.10327" lon="2.71686">
        <ele>1526.23</ele>
        <time>2019-07-13T08:43:07Z</time>
      </trkpt>
      <trkpt lat="45.10327" lon="2.71686">
        <ele>1524.31</ele>
        <time>2019-07-13T08:43:46Z</time>
      </trkpt>
      <trkpt lat="45.10327" lon="2.71687">
        <ele>1527.67</ele>
        <time>2019-07-13T08:43:59Z</time>
      </trkpt>
      <trkpt lat="45.10327" lon="2.71687">
        <ele>1525.27</ele>
        <time>2019-07-13T08:44:14Z</time>
      </trkpt>
      <trkpt lat="45.10328" lon="2.71687">
        <ele>1526.71</ele>
        <time>2019-07-13T08:44:19Z</time>
      </trkpt>
      <trkpt lat="45.10328" lon="2.71687">
        <ele>1525.75</ele>
        <time>2019-07-13T08:44:21Z</time>
      </trkpt>
      <trkpt lat="45.10329" lon="2.71688">
        <ele>1522.87</ele>
        <time>2019-07-13T08:46:10Z</time>
      </trkpt>
      <trkpt lat="45.10329" lon="2.71689">
        <ele>1525.75</ele>
        <time>2019-07-13T08:46:21Z</time>
      </trkpt>
      <trkpt lat="45.10329" lon="2.71689">
        <ele>1526.71</ele>
        <time>2019-07-13T08:46:23Z</time>
      </trkpt>
      <trkpt lat="45.10329" lon="2.71691">
        <ele>1522.87</ele>
        <time>2019-07-13T08:46:33Z</time>
      </trkpt>
      <trkpt lat="45.10328" lon="2.71692">
        <ele>1522.39</ele>
        <time>2019-07-13T08:46:35Z</time>
      </trkpt>
      <trkpt lat="45.10329" lon="2.71691">
        <ele>1525.75</ele>
        <time>2019-07-13T08:47:29Z</time>
      </trkpt>
      <trkpt lat="45.10328" lon="2.7169">
        <ele>1525.27</ele>
        <time>2019-07-13T08:47:43Z</time>
      </trkpt>
      <trkpt lat="45.10327" lon="2.71689">
        <ele>1524.31</ele>
        <time>2019-07-13T08:47:48Z</time>
      </trkpt>
      <trkpt lat="45.10327" lon="2.71688">
        <ele>1525.75</ele>
        <time>2019-07-13T08:48:31Z</time>
      </trkpt>
      <trkpt lat="45.10325" lon="2.71683">
        <ele>1526.23</ele>
        <time>2019-07-13T08:48:47Z</time>
      </trkpt>
      <trkpt lat="45.10318" lon="2.71672">
        <ele>1526.23</ele>
        <time>2019-07-13T08:48:58Z</time>
      </trkpt>
      <trkpt lat="45.10313" lon="2.7166">
        <ele>1525.27</ele>
        <time>2019-07-13T08:49:10Z</time>
      </trkpt>
      <trkpt lat="45.1031" lon="2.71652">
        <ele>1525.27</ele>
        <time>2019-07-13T08:49:19Z</time>
      </trkpt>
      <trkpt lat="45.10315" lon="2.71638">
        <ele>1525.27</ele>
        <time>2019-07-13T08:49:35Z</time>
      </trkpt>
      <trkpt lat="45.10317" lon="2.71638">
        <ele>1527.67</ele>
        <time>2019-07-13T08:49:41Z</time>
      </trkpt>
      <trkpt lat="45.10322" lon="2.71634">
        <ele>1529.59</ele>
        <time>2019-07-13T08:49:52Z</time>
      </trkpt>
      <trkpt lat="45.10324" lon="2.71632">
        <ele>1530.56</ele>
        <time>2019-07-13T08:50:04Z</time>
      </trkpt>
      <trkpt lat="45.10329" lon="2.71629">
        <ele>1532.48</ele>
        <time>2019-07-13T08:50:13Z</time>
      </trkpt>
      <trkpt lat="45.10335" lon="2.71626">
        <ele>1532.48</ele>
        <time>2019-07-13T08:50:21Z</time>
      </trkpt>
      <trkpt lat="45.10342" lon="2.71624">
        <ele>1533.44</ele>
        <time>2019-07-13T08:50:28Z</time>
      </trkpt>
      <trkpt lat="45.10356" lon="2.71617">
        <ele>1535.36</ele>
        <time>2019-07-13T08:50:44Z</time>
      </trkpt>
      <trkpt lat="45.10363" lon="2.71615">
        <ele>1532.48</ele>
        <time>2019-07-13T08:50:51Z</time>
      </trkpt>
      <trkpt lat="45.10365" lon="2.71615">
        <ele>1533.44</ele>
        <time>2019-07-13T08:50:53Z</time>
      </trkpt>
      <trkpt lat="45.10378" lon="2.71609">
        <ele>1532.96</ele>
        <time>2019-07-13T08:51:06Z</time>
      </trkpt>
      <trkpt lat="45.1039" lon="2.71601">
        <ele>1532.48</ele>
        <time>2019-07-13T08:51:19Z</time>
      </trkpt>
      <trkpt lat="45.10399" lon="2.71588">
        <ele>1532.48</ele>
        <time>2019-07-13T08:51:32Z</time>
      </trkpt>
      <trkpt lat="45.10405" lon="2.71575">
        <ele>1532</ele>
        <time>2019-07-13T08:51:44Z</time>
      </trkpt>
      <trkpt lat="45.10408" lon="2.71565">
        <ele>1533.44</ele>
        <time>2019-07-13T08:51:52Z</time>
      </trkpt>
      <trkpt lat="45.10414" lon="2.7155">
        <ele>1533.44</ele>
        <time>2019-07-13T08:52:05Z</time>
      </trkpt>
      <trkpt lat="45.10416" lon="2.71548">
        <ele>1534.4</ele>
        <time>2019-07-13T08:52:08Z</time>
      </trkpt>
      <trkpt lat="45.10418" lon="2.71544">
        <ele>1534.4</ele>
        <time>2019-07-13T08:52:11Z</time>
      </trkpt>
      <trkpt lat="45.10425" lon="2.71526">
        <ele>1534.4</ele>
        <time>2019-07-13T08:52:25Z</time>
      </trkpt>
      <trkpt lat="45.10426" lon="2.71524">
        <ele>1534.88</ele>
        <time>2019-07-13T08:52:27Z</time>
      </trkpt>
      <trkpt lat="45.10428" lon="2.71517">
        <ele>1534.88</ele>
        <time>2019-07-13T08:52:32Z</time>
      </trkpt>
      <trkpt lat="45.10429" lon="2.71513">
        <ele>1534.88</ele>
        <time>2019-07-13T08:52:35Z</time>
      </trkpt>
      <trkpt lat="45.10431" lon="2.71508">
        <ele>1534.88</ele>
        <time>2019-07-13T08:52:39Z</time>
      </trkpt>
      <trkpt lat="45.10436" lon="2.7149">
        <ele>1535.84</ele>
        <time>2019-07-13T08:52:53Z</time>
      </trkpt>
      <trkpt lat="45.10437" lon="2.71488">
        <ele>1536.8</ele>
        <time>2019-07-13T08:52:55Z</time>
      </trkpt>
      <trkpt lat="45.10438" lon="2.71482">
        <ele>1536.8</ele>
        <time>2019-07-13T08:53:00Z</time>
      </trkpt>
      <trkpt lat="45.10439" lon="2.71477">
        <ele>1537.29</ele>
        <time>2019-07-13T08:53:04Z</time>
      </trkpt>
      <trkpt lat="45.10442" lon="2.71461">
        <ele>1538.25</ele>
        <time>2019-07-13T08:53:19Z</time>
      </trkpt>
      <trkpt lat="45.10443" lon="2.71447">
        <ele>1539.21</ele>
        <time>2019-07-13T08:53:32Z</time>
      </trkpt>
      <trkpt lat="45.10442" lon="2.71439">
        <ele>1541.61</ele>
        <time>2019-07-13T08:53:43Z</time>
      </trkpt>
      <trkpt lat="45.10438" lon="2.71428">
        <ele>1542.57</ele>
        <time>2019-07-13T08:53:55Z</time>
      </trkpt>
      <trkpt lat="45.10439" lon="2.71427">
        <ele>1544.5</ele>
        <time>2019-07-13T08:53:58Z</time>
      </trkpt>
      <trkpt lat="45.1044" lon="2.71412">
        <ele>1544.01</ele>
        <time>2019-07-13T08:54:12Z</time>
      </trkpt>
      <trkpt lat="45.10438" lon="2.71392">
        <ele>1544.01</ele>
        <time>2019-07-13T08:54:27Z</time>
      </trkpt>
      <trkpt lat="45.10437" lon="2.71382">
        <ele>1544.5</ele>
        <time>2019-07-13T08:54:34Z</time>
      </trkpt>
      <trkpt lat="45.10437" lon="2.7137">
        <ele>1544.01</ele>
        <time>2019-07-13T08:54:44Z</time>
      </trkpt>
      <trkpt lat="45.10437" lon="2.71353">
        <ele>1544.98</ele>
        <time>2019-07-13T08:54:59Z</time>
      </trkpt>
      <trkpt lat="45.10438" lon="2.71351">
        <ele>1545.46</ele>
        <time>2019-07-13T08:55:00Z</time>
      </trkpt>
      <trkpt lat="45.10442" lon="2.71334">
        <ele>1546.42</ele>
        <time>2019-07-13T08:55:15Z</time>
      </trkpt>
      <trkpt lat="45.10451" lon="2.71326">
        <ele>1547.86</ele>
        <time>2019-07-13T08:55:28Z</time>
      </trkpt>
      <trkpt lat="45.10458" lon="2.71324">
        <ele>1548.34</ele>
        <time>2019-07-13T08:55:38Z</time>
      </trkpt>
      <trkpt lat="45.1046" lon="2.71323">
        <ele>1548.82</ele>
        <time>2019-07-13T08:55:41Z</time>
      </trkpt>
      <trkpt lat="45.10468" lon="2.71323">
        <ele>1550.74</ele>
        <time>2019-07-13T08:55:49Z</time>
      </trkpt>
      <trkpt lat="45.10473" lon="2.71321">
        <ele>1550.26</ele>
        <time>2019-07-13T08:55:55Z</time>
      </trkpt>
      <trkpt lat="45.10484" lon="2.71314">
        <ele>1550.74</ele>
        <time>2019-07-13T08:56:09Z</time>
      </trkpt>
      <trkpt lat="45.10495" lon="2.71311">
        <ele>1551.71</ele>
        <time>2019-07-13T08:56:21Z</time>
      </trkpt>
      <trkpt lat="45.10502" lon="2.71305">
        <ele>1553.15</ele>
        <time>2019-07-13T08:56:34Z</time>
      </trkpt>
      <trkpt lat="45.10505" lon="2.71299">
        <ele>1554.11</ele>
        <time>2019-07-13T08:56:40Z</time>
      </trkpt>
      <trkpt lat="45.1051" lon="2.71287">
        <ele>1555.55</ele>
        <time>2019-07-13T08:56:53Z</time>
      </trkpt>
      <trkpt lat="45.10516" lon="2.71281">
        <ele>1556.99</ele>
        <time>2019-07-13T08:57:01Z</time>
      </trkpt>
      <trkpt lat="45.10524" lon="2.71272">
        <ele>1558.43</ele>
        <time>2019-07-13T08:57:16Z</time>
      </trkpt>
      <trkpt lat="45.10527" lon="2.71261">
        <ele>1559.4</ele>
        <time>2019-07-13T08:57:27Z</time>
      </trkpt>
      <trkpt lat="45.10533" lon="2.71252">
        <ele>1561.32</ele>
        <time>2019-07-13T08:57:39Z</time>
      </trkpt>
      <trkpt lat="45.10535" lon="2.71246">
        <ele>1561.8</ele>
        <time>2019-07-13T08:57:45Z</time>
      </trkpt>
      <trkpt lat="45.10539" lon="2.7123">
        <ele>1562.28</ele>
        <time>2019-07-13T08:57:55Z</time>
      </trkpt>
      <trkpt lat="45.10545" lon="2.7122">
        <ele>1564.2</ele>
        <time>2019-07-13T08:58:10Z</time>
      </trkpt>
      <trkpt lat="45.1055" lon="2.71208">
        <ele>1565.16</ele>
        <time>2019-07-13T08:58:21Z</time>
      </trkpt>
      <trkpt lat="45.10553" lon="2.71207">
        <ele>1566.12</ele>
        <time>2019-07-13T08:58:26Z</time>
      </trkpt>
      <trkpt lat="45.10561" lon="2.71204">
        <ele>1567.09</ele>
        <time>2019-07-13T08:58:38Z</time>
      </trkpt>
      <trkpt lat="45.10567" lon="2.71195">
        <ele>1568.53</ele>
        <time>2019-07-13T08:58:49Z</time>
      </trkpt>
      <trkpt lat="45.10573" lon="2.71185">
        <ele>1569.49</ele>
        <time>2019-07-13T08:59:01Z</time>
      </trkpt>
      <trkpt lat="45.10579" lon="2.7118">
        <ele>1572.37</ele>
        <time>2019-07-13T08:59:15Z</time>
      </trkpt>
      <trkpt lat="45.10583" lon="2.71173">
        <ele>1573.82</ele>
        <time>2019-07-13T08:59:27Z</time>
      </trkpt>
      <trkpt lat="45.10584" lon="2.71164">
        <ele>1574.3</ele>
        <time>2019-07-13T08:59:38Z</time>
      </trkpt>
      <trkpt lat="45.10586" lon="2.71157">
        <ele>1573.82</ele>
        <time>2019-07-13T08:59:43Z</time>
      </trkpt>
      <trkpt lat="45.10589" lon="2.71143">
        <ele>1575.26</ele>
        <time>2019-07-13T08:59:57Z</time>
      </trkpt>
      <trkpt lat="45.10595" lon="2.71134">
        <ele>1575.74</ele>
        <time>2019-07-13T09:00:06Z</time>
      </trkpt>
      <trkpt lat="45.10597" lon="2.71132">
        <ele>1575.26</ele>
        <time>2019-07-13T09:00:08Z</time>
      </trkpt>
      <trkpt lat="45.10599" lon="2.7113">
        <ele>1575.74</ele>
        <time>2019-07-13T09:00:11Z</time>
      </trkpt>
      <trkpt lat="45.10604" lon="2.71122">
        <ele>1574.78</ele>
        <time>2019-07-13T09:00:24Z</time>
      </trkpt>
      <trkpt lat="45.10611" lon="2.71119">
        <ele>1575.26</ele>
        <time>2019-07-13T09:00:35Z</time>
      </trkpt>
      <trkpt lat="45.1062" lon="2.71112">
        <ele>1575.26</ele>
        <time>2019-07-13T09:00:47Z</time>
      </trkpt>
      <trkpt lat="45.10626" lon="2.71109">
        <ele>1575.74</ele>
        <time>2019-07-13T09:00:53Z</time>
      </trkpt>
      <trkpt lat="45.10628" lon="2.71109">
        <ele>1575.74</ele>
        <time>2019-07-13T09:00:55Z</time>
      </trkpt>
      <trkpt lat="45.10635" lon="2.71102">
        <ele>1577.18</ele>
        <time>2019-07-13T09:01:04Z</time>
      </trkpt>
      <trkpt lat="45.10644" lon="2.71091">
        <ele>1577.18</ele>
        <time>2019-07-13T09:01:17Z</time>
      </trkpt>
      <trkpt lat="45.10652" lon="2.7108">
        <ele>1578.62</ele>
        <time>2019-07-13T09:01:30Z</time>
      </trkpt>
      <trkpt lat="45.10658" lon="2.71073">
        <ele>1578.62</ele>
        <time>2019-07-13T09:01:42Z</time>
      </trkpt>
      <trkpt lat="45.10667" lon="2.71063">
        <ele>1579.58</ele>
        <time>2019-07-13T09:01:54Z</time>
      </trkpt>
      <trkpt lat="45.10675" lon="2.71054">
        <ele>1581.03</ele>
        <time>2019-07-13T09:02:07Z</time>
      </trkpt>
      <trkpt lat="45.10678" lon="2.71049">
        <ele>1581.03</ele>
        <time>2019-07-13T09:02:13Z</time>
      </trkpt>
      <trkpt lat="45.10681" lon="2.71038">
        <ele>1581.03</ele>
        <time>2019-07-13T09:02:26Z</time>
      </trkpt>
      <trkpt lat="45.10684" lon="2.71025">
        <ele>1582.95</ele>
        <time>2019-07-13T09:02:39Z</time>
      </trkpt>
      <trkpt lat="45.10688" lon="2.71015">
        <ele>1582.95</ele>
        <time>2019-07-13T09:02:51Z</time>
      </trkpt>
      <trkpt lat="45.10687" lon="2.71014">
        <ele>1582.47</ele>
        <time>2019-07-13T09:02:54Z</time>
      </trkpt>
      <trkpt lat="45.10687" lon="2.71012">
        <ele>1582.47</ele>
        <time>2019-07-13T09:02:57Z</time>
      </trkpt>
      <trkpt lat="45.10689" lon="2.71006">
        <ele>1583.43</ele>
        <time>2019-07-13T09:03:08Z</time>
      </trkpt>
      <trkpt lat="45.1069" lon="2.70993">
        <ele>1584.39</ele>
        <time>2019-07-13T09:03:23Z</time>
      </trkpt>
      <trkpt lat="45.10689" lon="2.70987">
        <ele>1585.35</ele>
        <time>2019-07-13T09:03:33Z</time>
      </trkpt>
      <trkpt lat="45.10687" lon="2.70982">
        <ele>1584.87</ele>
        <time>2019-07-13T09:03:48Z</time>
      </trkpt>
      <trkpt lat="45.10685" lon="2.7097">
        <ele>1586.31</ele>
        <time>2019-07-13T09:04:01Z</time>
      </trkpt>
      <trkpt lat="45.10684" lon="2.70959">
        <ele>1587.75</ele>
        <time>2019-07-13T09:04:13Z</time>
      </trkpt>
      <trkpt lat="45.1068" lon="2.70948">
        <ele>1584.87</ele>
        <time>2019-07-13T09:04:27Z</time>
      </trkpt>
      <trkpt lat="45.10679" lon="2.70948">
        <ele>1585.35</ele>
        <time>2019-07-13T09:04:29Z</time>
      </trkpt>
      <trkpt lat="45.10674" lon="2.70943">
        <ele>1583.43</ele>
        <time>2019-07-13T09:04:36Z</time>
      </trkpt>
      <trkpt lat="45.1067" lon="2.70933">
        <ele>1585.35</ele>
        <time>2019-07-13T09:04:49Z</time>
      </trkpt>
      <trkpt lat="45.10671" lon="2.70924">
        <ele>1587.27</ele>
        <time>2019-07-13T09:05:01Z</time>
      </trkpt>
      <trkpt lat="45.10673" lon="2.70918">
        <ele>1587.27</ele>
        <time>2019-07-13T09:05:19Z</time>
      </trkpt>
      <trkpt lat="45.10678" lon="2.70906">
        <ele>1587.75</ele>
        <time>2019-07-13T09:05:33Z</time>
      </trkpt>
      <trkpt lat="45.10684" lon="2.70892">
        <ele>1586.31</ele>
        <time>2019-07-13T09:05:45Z</time>
      </trkpt>
      <trkpt lat="45.1069" lon="2.70877">
        <ele>1586.79</ele>
        <time>2019-07-13T09:05:59Z</time>
      </trkpt>
      <trkpt lat="45.10694" lon="2.70867">
        <ele>1587.75</ele>
        <time>2019-07-13T09:06:09Z</time>
      </trkpt>
      <trkpt lat="45.10697" lon="2.70855">
        <ele>1588.24</ele>
        <time>2019-07-13T09:06:22Z</time>
      </trkpt>
      <trkpt lat="45.10696" lon="2.70845">
        <ele>1589.2</ele>
        <time>2019-07-13T09:06:33Z</time>
      </trkpt>
      <trkpt lat="45.10694" lon="2.70839">
        <ele>1590.16</ele>
        <time>2019-07-13T09:06:40Z</time>
      </trkpt>
      <trkpt lat="45.10689" lon="2.70823">
        <ele>1589.2</ele>
        <time>2019-07-13T09:06:55Z</time>
      </trkpt>
      <trkpt lat="45.10691" lon="2.70809">
        <ele>1588.72</ele>
        <time>2019-07-13T09:07:09Z</time>
      </trkpt>
      <trkpt lat="45.10693" lon="2.708">
        <ele>1587.75</ele>
        <time>2019-07-13T09:07:16Z</time>
      </trkpt>
      <trkpt lat="45.10694" lon="2.70784">
        <ele>1587.75</ele>
        <time>2019-07-13T09:07:30Z</time>
      </trkpt>
      <trkpt lat="45.10693" lon="2.70775">
        <ele>1587.27</ele>
        <time>2019-07-13T09:07:41Z</time>
      </trkpt>
      <trkpt lat="45.10691" lon="2.70767">
        <ele>1587.27</ele>
        <time>2019-07-13T09:07:55Z</time>
      </trkpt>
      <trkpt lat="45.1069" lon="2.70761">
        <ele>1587.27</ele>
        <time>2019-07-13T09:08:06Z</time>
      </trkpt>
      <trkpt lat="45.10688" lon="2.7075">
        <ele>1587.27</ele>
        <time>2019-07-13T09:08:42Z</time>
      </trkpt>
      <trkpt lat="45.10687" lon="2.70749">
        <ele>1587.75</ele>
        <time>2019-07-13T09:08:43Z</time>
      </trkpt>
      <trkpt lat="45.10686" lon="2.7074">
        <ele>1587.75</ele>
        <time>2019-07-13T09:08:50Z</time>
      </trkpt>
      <trkpt lat="45.10686" lon="2.70736">
        <ele>1586.79</ele>
        <time>2019-07-13T09:08:53Z</time>
      </trkpt>
      <trkpt lat="45.10682" lon="2.7072">
        <ele>1587.27</ele>
        <time>2019-07-13T09:09:06Z</time>
      </trkpt>
      <trkpt lat="45.1068" lon="2.70717">
        <ele>1587.75</ele>
        <time>2019-07-13T09:09:10Z</time>
      </trkpt>
      <trkpt lat="45.10679" lon="2.70715">
        <ele>1588.24</ele>
        <time>2019-07-13T09:09:12Z</time>
      </trkpt>
      <trkpt lat="45.10675" lon="2.70699">
        <ele>1588.24</ele>
        <time>2019-07-13T09:09:25Z</time>
      </trkpt>
      <trkpt lat="45.10669" lon="2.70687">
        <ele>1589.68</ele>
        <time>2019-07-13T09:09:37Z</time>
      </trkpt>
      <trkpt lat="45.10669" lon="2.70685">
        <ele>1589.68</ele>
        <time>2019-07-13T09:09:38Z</time>
      </trkpt>
      <trkpt lat="45.10666" lon="2.70681">
        <ele>1590.64</ele>
        <time>2019-07-13T09:09:42Z</time>
      </trkpt>
      <trkpt lat="45.10659" lon="2.70677">
        <ele>1590.16</ele>
        <time>2019-07-13T09:09:51Z</time>
      </trkpt>
      <trkpt lat="45.10653" lon="2.70666">
        <ele>1591.12</ele>
        <time>2019-07-13T09:10:04Z</time>
      </trkpt>
      <trkpt lat="45.10644" lon="2.70659">
        <ele>1591.12</ele>
        <time>2019-07-13T09:10:16Z</time>
      </trkpt>
      <trkpt lat="45.10637" lon="2.70651">
        <ele>1591.6</ele>
        <time>2019-07-13T09:10:27Z</time>
      </trkpt>
      <trkpt lat="45.10632" lon="2.70646">
        <ele>1591.6</ele>
        <time>2019-07-13T09:10:33Z</time>
      </trkpt>
      <trkpt lat="45.10625" lon="2.70641">
        <ele>1593.04</ele>
        <time>2019-07-13T09:10:45Z</time>
      </trkpt>
      <trkpt lat="45.10618" lon="2.70635">
        <ele>1594.48</ele>
        <time>2019-07-13T09:10:56Z</time>
      </trkpt>
      <trkpt lat="45.10612" lon="2.70621">
        <ele>1595.45</ele>
        <time>2019-07-13T09:11:11Z</time>
      </trkpt>
      <trkpt lat="45.10609" lon="2.70616">
        <ele>1595.45</ele>
        <time>2019-07-13T09:11:19Z</time>
      </trkpt>
      <trkpt lat="45.10606" lon="2.7061">
        <ele>1594.96</ele>
        <time>2019-07-13T09:11:25Z</time>
      </trkpt>
      <trkpt lat="45.10604" lon="2.70606">
        <ele>1595.45</ele>
        <time>2019-07-13T09:11:29Z</time>
      </trkpt>
      <trkpt lat="45.10597" lon="2.70594">
        <ele>1596.89</ele>
        <time>2019-07-13T09:11:42Z</time>
      </trkpt>
      <trkpt lat="45.10592" lon="2.70588">
        <ele>1597.85</ele>
        <time>2019-07-13T09:11:52Z</time>
      </trkpt>
      <trkpt lat="45.10591" lon="2.70587">
        <ele>1597.85</ele>
        <time>2019-07-13T09:11:55Z</time>
      </trkpt>
      <trkpt lat="45.10591" lon="2.70584">
        <ele>1599.77</ele>
        <time>2019-07-13T09:11:58Z</time>
      </trkpt>
      <trkpt lat="45.10587" lon="2.70575">
        <ele>1601.21</ele>
        <time>2019-07-13T09:12:10Z</time>
      </trkpt>
      <trkpt lat="45.10585" lon="2.70562">
        <ele>1600.25</ele>
        <time>2019-07-13T09:12:22Z</time>
      </trkpt>
      <trkpt lat="45.10586" lon="2.70553">
        <ele>1600.73</ele>
        <time>2019-07-13T09:12:28Z</time>
      </trkpt>
      <trkpt lat="45.10585" lon="2.7054">
        <ele>1601.21</ele>
        <time>2019-07-13T09:12:40Z</time>
      </trkpt>
      <trkpt lat="45.10586" lon="2.70537">
        <ele>1601.21</ele>
        <time>2019-07-13T09:12:43Z</time>
      </trkpt>
      <trkpt lat="45.10586" lon="2.70533">
        <ele>1602.17</ele>
        <time>2019-07-13T09:12:46Z</time>
      </trkpt>
      <trkpt lat="45.10586" lon="2.70521">
        <ele>1604.1</ele>
        <time>2019-07-13T09:12:58Z</time>
      </trkpt>
      <trkpt lat="45.10588" lon="2.70512">
        <ele>1605.06</ele>
        <time>2019-07-13T09:13:09Z</time>
      </trkpt>
      <trkpt lat="45.10588" lon="2.70502">
        <ele>1606.98</ele>
        <time>2019-07-13T09:13:20Z</time>
      </trkpt>
      <trkpt lat="45.10587" lon="2.70491">
        <ele>1608.42</ele>
        <time>2019-07-13T09:13:30Z</time>
      </trkpt>
      <trkpt lat="45.10586" lon="2.7048">
        <ele>1609.86</ele>
        <time>2019-07-13T09:13:42Z</time>
      </trkpt>
      <trkpt lat="45.10585" lon="2.70467">
        <ele>1610.35</ele>
        <time>2019-07-13T09:13:55Z</time>
      </trkpt>
      <trkpt lat="45.10587" lon="2.70449">
        <ele>1610.83</ele>
        <time>2019-07-13T09:14:10Z</time>
      </trkpt>
      <trkpt lat="45.10585" lon="2.70436">
        <ele>1611.31</ele>
        <time>2019-07-13T09:14:23Z</time>
      </trkpt>
      <trkpt lat="45.10581" lon="2.70423">
        <ele>1612.27</ele>
        <time>2019-07-13T09:14:35Z</time>
      </trkpt>
      <trkpt lat="45.10578" lon="2.70411">
        <ele>1612.27</ele>
        <time>2019-07-13T09:14:48Z</time>
      </trkpt>
      <trkpt lat="45.10574" lon="2.70399">
        <ele>1613.23</ele>
        <time>2019-07-13T09:14:59Z</time>
      </trkpt>
      <trkpt lat="45.1057" lon="2.70388">
        <ele>1613.71</ele>
        <time>2019-07-13T09:15:10Z</time>
      </trkpt>
      <trkpt lat="45.10564" lon="2.70375">
        <ele>1614.67</ele>
        <time>2019-07-13T09:15:22Z</time>
      </trkpt>
      <trkpt lat="45.10562" lon="2.70374">
        <ele>1614.19</ele>
        <time>2019-07-13T09:15:24Z</time>
      </trkpt>
      <trkpt lat="45.10561" lon="2.70372">
        <ele>1615.15</ele>
        <time>2019-07-13T09:15:26Z</time>
      </trkpt>
      <trkpt lat="45.10557" lon="2.70364">
        <ele>1615.63</ele>
        <time>2019-07-13T09:15:35Z</time>
      </trkpt>
      <trkpt lat="45.10551" lon="2.70356">
        <ele>1618.04</ele>
        <time>2019-07-13T09:15:46Z</time>
      </trkpt>
      <trkpt lat="45.10546" lon="2.70348">
        <ele>1619</ele>
        <time>2019-07-13T09:15:57Z</time>
      </trkpt>
      <trkpt lat="45.10542" lon="2.70338">
        <ele>1620.92</ele>
        <time>2019-07-13T09:16:09Z</time>
      </trkpt>
      <trkpt lat="45.10539" lon="2.70324">
        <ele>1621.88</ele>
        <time>2019-07-13T09:16:21Z</time>
      </trkpt>
      <trkpt lat="45.10539" lon="2.70311">
        <ele>1621.4</ele>
        <time>2019-07-13T09:16:33Z</time>
      </trkpt>
      <trkpt lat="45.1054" lon="2.70295">
        <ele>1619.96</ele>
        <time>2019-07-13T09:16:49Z</time>
      </trkpt>
      <trkpt lat="45.10544" lon="2.70278">
        <ele>1619.48</ele>
        <time>2019-07-13T09:17:04Z</time>
      </trkpt>
      <trkpt lat="45.10548" lon="2.70266">
        <ele>1619.48</ele>
        <time>2019-07-13T09:17:16Z</time>
      </trkpt>
      <trkpt lat="45.10547" lon="2.70252">
        <ele>1618.52</ele>
        <time>2019-07-13T09:17:30Z</time>
      </trkpt>
      <trkpt lat="45.10547" lon="2.70239">
        <ele>1619</ele>
        <time>2019-07-13T09:17:42Z</time>
      </trkpt>
      <trkpt lat="45.10549" lon="2.70224">
        <ele>1618.04</ele>
        <time>2019-07-13T09:17:55Z</time>
      </trkpt>
      <trkpt lat="45.10549" lon="2.70214">
        <ele>1618.52</ele>
        <time>2019-07-13T09:18:03Z</time>
      </trkpt>
      <trkpt lat="45.1055" lon="2.70212">
        <ele>1618.04</ele>
        <time>2019-07-13T09:18:05Z</time>
      </trkpt>
      <trkpt lat="45.10554" lon="2.70194">
        <ele>1619</ele>
        <time>2019-07-13T09:18:20Z</time>
      </trkpt>
      <trkpt lat="45.10554" lon="2.70189">
        <ele>1619</ele>
        <time>2019-07-13T09:18:24Z</time>
      </trkpt>
      <trkpt lat="45.10555" lon="2.70187">
        <ele>1619</ele>
        <time>2019-07-13T09:18:26Z</time>
      </trkpt>
      <trkpt lat="45.10553" lon="2.70173">
        <ele>1619.48</ele>
        <time>2019-07-13T09:18:39Z</time>
      </trkpt>
      <trkpt lat="45.10553" lon="2.70169">
        <ele>1619.96</ele>
        <time>2019-07-13T09:18:42Z</time>
      </trkpt>
      <trkpt lat="45.10554" lon="2.70162">
        <ele>1620.92</ele>
        <time>2019-07-13T09:18:52Z</time>
      </trkpt>
      <trkpt lat="45.10552" lon="2.70148">
        <ele>1621.88</ele>
        <time>2019-07-13T09:19:04Z</time>
      </trkpt>
      <trkpt lat="45.10552" lon="2.70147">
        <ele>1621.88</ele>
        <time>2019-07-13T09:19:05Z</time>
      </trkpt>
      <trkpt lat="45.10552" lon="2.70135">
        <ele>1622.36</ele>
        <time>2019-07-13T09:19:16Z</time>
      </trkpt>
      <trkpt lat="45.10552" lon="2.70119">
        <ele>1622.84</ele>
        <time>2019-07-13T09:19:30Z</time>
      </trkpt>
      <trkpt lat="45.10549" lon="2.70109">
        <ele>1623.32</ele>
        <time>2019-07-13T09:19:41Z</time>
      </trkpt>
      <trkpt lat="45.10546" lon="2.70096">
        <ele>1624.77</ele>
        <time>2019-07-13T09:19:53Z</time>
      </trkpt>
      <trkpt lat="45.10546" lon="2.70092">
        <ele>1625.25</ele>
        <time>2019-07-13T09:19:56Z</time>
      </trkpt>
      <trkpt lat="45.10544" lon="2.70085">
        <ele>1625.73</ele>
        <time>2019-07-13T09:20:02Z</time>
      </trkpt>
      <trkpt lat="45.10543" lon="2.70078">
        <ele>1627.17</ele>
        <time>2019-07-13T09:20:13Z</time>
      </trkpt>
      <trkpt lat="45.10542" lon="2.70071">
        <ele>1628.61</ele>
        <time>2019-07-13T09:20:24Z</time>
      </trkpt>
      <trkpt lat="45.10541" lon="2.70066">
        <ele>1629.09</ele>
        <time>2019-07-13T09:20:33Z</time>
      </trkpt>
      <trkpt lat="45.10538" lon="2.70055">
        <ele>1630.53</ele>
        <time>2019-07-13T09:20:45Z</time>
      </trkpt>
      <trkpt lat="45.10537" lon="2.70045">
        <ele>1632.94</ele>
        <time>2019-07-13T09:20:57Z</time>
      </trkpt>
      <trkpt lat="45.10537" lon="2.7004">
        <ele>1631.98</ele>
        <time>2019-07-13T09:21:09Z</time>
      </trkpt>
      <trkpt lat="45.10535" lon="2.70036">
        <ele>1632.46</ele>
        <time>2019-07-13T09:21:28Z</time>
      </trkpt>
      <trkpt lat="45.10533" lon="2.70029">
        <ele>1632.94</ele>
        <time>2019-07-13T09:21:39Z</time>
      </trkpt>
      <trkpt lat="45.10533" lon="2.7003">
        <ele>1631.98</ele>
        <time>2019-07-13T09:22:08Z</time>
      </trkpt>
      <trkpt lat="45.10535" lon="2.70033">
        <ele>1632.46</ele>
        <time>2019-07-13T09:23:39Z</time>
      </trkpt>
      <trkpt lat="45.10533" lon="2.70032">
        <ele>1633.42</ele>
        <time>2019-07-13T09:23:59Z</time>
      </trkpt>
      <trkpt lat="45.10533" lon="2.70031">
        <ele>1632.94</ele>
        <time>2019-07-13T09:24:15Z</time>
      </trkpt>
      <trkpt lat="45.10531" lon="2.70026">
        <ele>1633.42</ele>
        <time>2019-07-13T09:24:31Z</time>
      </trkpt>
      <trkpt lat="45.10531" lon="2.70027">
        <ele>1632.94</ele>
        <time>2019-07-13T09:24:51Z</time>
      </trkpt>
      <trkpt lat="45.10528" lon="2.70024">
        <ele>1633.9</ele>
        <time>2019-07-13T09:25:03Z</time>
      </trkpt>
      <trkpt lat="45.10527" lon="2.70022">
        <ele>1633.9</ele>
        <time>2019-07-13T09:25:05Z</time>
      </trkpt>
      <trkpt lat="45.1052" lon="2.70011">
        <ele>1633.9</ele>
        <time>2019-07-13T09:25:16Z</time>
      </trkpt>
      <trkpt lat="45.1051" lon="2.70001">
        <ele>1635.34</ele>
        <time>2019-07-13T09:25:29Z</time>
      </trkpt>
      <trkpt lat="45.10508" lon="2.69995">
        <ele>1636.3</ele>
        <time>2019-07-13T09:25:39Z</time>
      </trkpt>
      <trkpt lat="45.10502" lon="2.69987">
        <ele>1637.74</ele>
        <time>2019-07-13T09:25:50Z</time>
      </trkpt>
      <trkpt lat="45.10497" lon="2.6998">
        <ele>1639.19</ele>
        <time>2019-07-13T09:26:01Z</time>
      </trkpt>
      <trkpt lat="45.1049" lon="2.69975">
        <ele>1639.19</ele>
        <time>2019-07-13T09:26:10Z</time>
      </trkpt>
      <trkpt lat="45.10488" lon="2.69972">
        <ele>1639.67</ele>
        <time>2019-07-13T09:26:14Z</time>
      </trkpt>
      <trkpt lat="45.1048" lon="2.69964">
        <ele>1640.15</ele>
        <time>2019-07-13T09:26:27Z</time>
      </trkpt>
      <trkpt lat="45.10476" lon="2.6996">
        <ele>1642.07</ele>
        <time>2019-07-13T09:26:34Z</time>
      </trkpt>
      <trkpt lat="45.10472" lon="2.69955">
        <ele>1642.55</ele>
        <time>2019-07-13T09:26:39Z</time>
      </trkpt>
      <trkpt lat="45.10466" lon="2.69946">
        <ele>1643.51</ele>
        <time>2019-07-13T09:26:52Z</time>
      </trkpt>
      <trkpt lat="45.10457" lon="2.69935">
        <ele>1644.47</ele>
        <time>2019-07-13T09:27:06Z</time>
      </trkpt>
      <trkpt lat="45.10455" lon="2.69932">
        <ele>1645.43</ele>
        <time>2019-07-13T09:27:09Z</time>
      </trkpt>
      <trkpt lat="45.10446" lon="2.69925">
        <ele>1645.91</ele>
        <time>2019-07-13T09:27:19Z</time>
      </trkpt>
      <trkpt lat="45.10441" lon="2.69918">
        <ele>1644.47</ele>
        <time>2019-07-13T09:27:33Z</time>
      </trkpt>
      <trkpt lat="45.10436" lon="2.69911">
        <ele>1643.51</ele>
        <time>2019-07-13T09:27:43Z</time>
      </trkpt>
      <trkpt lat="45.10435" lon="2.6991">
        <ele>1643.03</ele>
        <time>2019-07-13T09:27:44Z</time>
      </trkpt>
      <trkpt lat="45.10432" lon="2.69907">
        <ele>1643.03</ele>
        <time>2019-07-13T09:27:48Z</time>
      </trkpt>
      <trkpt lat="45.10427" lon="2.69897">
        <ele>1643.03</ele>
        <time>2019-07-13T09:27:56Z</time>
      </trkpt>
      <trkpt lat="45.10421" lon="2.69879">
        <ele>1642.07</ele>
        <time>2019-07-13T09:28:12Z</time>
      </trkpt>
      <trkpt lat="45.10417" lon="2.69861">
        <ele>1640.63</ele>
        <time>2019-07-13T09:28:27Z</time>
      </trkpt>
      <trkpt lat="45.10414" lon="2.6985">
        <ele>1640.15</ele>
        <time>2019-07-13T09:28:42Z</time>
      </trkpt>
      <trkpt lat="45.10411" lon="2.69844">
        <ele>1639.67</ele>
        <time>2019-07-13T09:28:46Z</time>
      </trkpt>
      <trkpt lat="45.10407" lon="2.69831">
        <ele>1638.7</ele>
        <time>2019-07-13T09:28:56Z</time>
      </trkpt>
      <trkpt lat="45.10406" lon="2.69827">
        <ele>1638.22</ele>
        <time>2019-07-13T09:28:59Z</time>
      </trkpt>
      <trkpt lat="45.10401" lon="2.69809">
        <ele>1635.82</ele>
        <time>2019-07-13T09:29:12Z</time>
      </trkpt>
      <trkpt lat="45.10392" lon="2.69787">
        <ele>1635.34</ele>
        <time>2019-07-13T09:29:28Z</time>
      </trkpt>
      <trkpt lat="45.10389" lon="2.69777">
        <ele>1634.86</ele>
        <time>2019-07-13T09:29:35Z</time>
      </trkpt>
      <trkpt lat="45.10387" lon="2.69769">
        <ele>1634.86</ele>
        <time>2019-07-13T09:29:40Z</time>
      </trkpt>
      <trkpt lat="45.10384" lon="2.69758">
        <ele>1634.86</ele>
        <time>2019-07-13T09:29:47Z</time>
      </trkpt>
      <trkpt lat="45.10384" lon="2.69756">
        <ele>1635.34</ele>
        <time>2019-07-13T09:29:49Z</time>
      </trkpt>
      <trkpt lat="45.10381" lon="2.69741">
        <ele>1637.74</ele>
        <time>2019-07-13T09:30:01Z</time>
      </trkpt>
      <trkpt lat="45.10378" lon="2.6973">
        <ele>1640.15</ele>
        <time>2019-07-13T09:30:13Z</time>
      </trkpt>
      <trkpt lat="45.10378" lon="2.6972">
        <ele>1640.15</ele>
        <time>2019-07-13T09:30:20Z</time>
      </trkpt>
      <trkpt lat="45.10371" lon="2.69695">
        <ele>1640.15</ele>
        <time>2019-07-13T09:30:38Z</time>
      </trkpt>
      <trkpt lat="45.10365" lon="2.69676">
        <ele>1639.67</ele>
        <time>2019-07-13T09:30:52Z</time>
      </trkpt>
      <trkpt lat="45.10361" lon="2.69666">
        <ele>1639.19</ele>
        <time>2019-07-13T09:31:00Z</time>
      </trkpt>
      <trkpt lat="45.10358" lon="2.69649">
        <ele>1637.26</ele>
        <time>2019-07-13T09:31:14Z</time>
      </trkpt>
      <trkpt lat="45.10353" lon="2.69634">
        <ele>1635.34</ele>
        <time>2019-07-13T09:31:28Z</time>
      </trkpt>
      <trkpt lat="45.1035" lon="2.69626">
        <ele>1634.38</ele>
        <time>2019-07-13T09:31:34Z</time>
      </trkpt>
      <trkpt lat="45.10347" lon="2.69615">
        <ele>1633.9</ele>
        <time>2019-07-13T09:31:42Z</time>
      </trkpt>
      <trkpt lat="45.10346" lon="2.69602">
        <ele>1633.42</ele>
        <time>2019-07-13T09:31:50Z</time>
      </trkpt>
      <trkpt lat="45.10345" lon="2.69596">
        <ele>1632.94</ele>
        <time>2019-07-13T09:31:54Z</time>
      </trkpt>
      <trkpt lat="45.10345" lon="2.69591">
        <ele>1632.94</ele>
        <time>2019-07-13T09:31:58Z</time>
      </trkpt>
      <trkpt lat="45.10342" lon="2.69576">
        <ele>1631.98</ele>
        <time>2019-07-13T09:32:08Z</time>
      </trkpt>
      <trkpt lat="45.10341" lon="2.69564">
        <ele>1630.05</ele>
        <time>2019-07-13T09:32:20Z</time>
      </trkpt>
      <trkpt lat="45.1034" lon="2.69555">
        <ele>1628.61</ele>
        <time>2019-07-13T09:32:28Z</time>
      </trkpt>
      <trkpt lat="45.1034" lon="2.69546">
        <ele>1627.65</ele>
        <time>2019-07-13T09:32:43Z</time>
      </trkpt>
      <trkpt lat="45.1034" lon="2.69547">
        <ele>1628.61</ele>
        <time>2019-07-13T09:33:20Z</time>
      </trkpt>
      <trkpt lat="45.10337" lon="2.69539">
        <ele>1627.65</ele>
        <time>2019-07-13T09:33:26Z</time>
      </trkpt>
      <trkpt lat="45.10332" lon="2.69531">
        <ele>1630.05</ele>
        <time>2019-07-13T09:33:36Z</time>
      </trkpt>
      <trkpt lat="45.10329" lon="2.69527">
        <ele>1631.49</ele>
        <time>2019-07-13T09:33:44Z</time>
      </trkpt>
      <trkpt lat="45.10325" lon="2.69522">
        <ele>1633.42</ele>
        <time>2019-07-13T09:33:56Z</time>
      </trkpt>
      <trkpt lat="45.10319" lon="2.69518">
        <ele>1634.86</ele>
        <time>2019-07-13T09:34:06Z</time>
      </trkpt>
      <trkpt lat="45.10316" lon="2.69513">
        <ele>1637.26</ele>
        <time>2019-07-13T09:34:17Z</time>
      </trkpt>
      <trkpt lat="45.10312" lon="2.6951">
        <ele>1638.7</ele>
        <time>2019-07-13T09:34:28Z</time>
      </trkpt>
      <trkpt lat="45.1031" lon="2.69506">
        <ele>1640.63</ele>
        <time>2019-07-13T09:34:40Z</time>
      </trkpt>
      <trkpt lat="45.10307" lon="2.69503">
        <ele>1642.55</ele>
        <time>2019-07-13T09:34:50Z</time>
      </trkpt>
      <trkpt lat="45.10303" lon="2.69499">
        <ele>1643.99</ele>
        <time>2019-07-13T09:35:00Z</time>
      </trkpt>
      <trkpt lat="45.10301" lon="2.69496">
        <ele>1644.47</ele>
        <time>2019-07-13T09:35:10Z</time>
      </trkpt>
      <trkpt lat="45.10298" lon="2.6949">
        <ele>1646.88</ele>
        <time>2019-07-13T09:35:22Z</time>
      </trkpt>
      <trkpt lat="45.10298" lon="2.69489">
        <ele>1646.88</ele>
        <time>2019-07-13T09:35:26Z</time>
      </trkpt>
      <trkpt lat="45.10292" lon="2.69484">
        <ele>1648.32</ele>
        <time>2019-07-13T09:35:38Z</time>
      </trkpt>
      <trkpt lat="45.1029" lon="2.69482">
        <ele>1648.32</ele>
        <time>2019-07-13T09:35:42Z</time>
      </trkpt>
      <trkpt lat="45.10287" lon="2.6948">
        <ele>1649.28</ele>
        <time>2019-07-13T09:35:46Z</time>
      </trkpt>
      <trkpt lat="45.10281" lon="2.69473">
        <ele>1650.24</ele>
        <time>2019-07-13T09:35:57Z</time>
      </trkpt>
      <trkpt lat="45.10276" lon="2.69467">
        <ele>1652.16</ele>
        <time>2019-07-13T09:36:09Z</time>
      </trkpt>
      <trkpt lat="45.10273" lon="2.69463">
        <ele>1654.09</ele>
        <time>2019-07-13T09:36:23Z</time>
      </trkpt>
      <trkpt lat="45.10271" lon="2.6946">
        <ele>1655.53</ele>
        <time>2019-07-13T09:36:35Z</time>
      </trkpt>
      <trkpt lat="45.10268" lon="2.69454">
        <ele>1656.49</ele>
        <time>2019-07-13T09:36:41Z</time>
      </trkpt>
      <trkpt lat="45.10264" lon="2.69442">
        <ele>1657.45</ele>
        <time>2019-07-13T09:36:53Z</time>
      </trkpt>
      <trkpt lat="45.10263" lon="2.69441">
        <ele>1657.93</ele>
        <time>2019-07-13T09:36:54Z</time>
      </trkpt>
      <trkpt lat="45.1026" lon="2.6943">
        <ele>1658.41</ele>
        <time>2019-07-13T09:37:06Z</time>
      </trkpt>
      <trkpt lat="45.10257" lon="2.69423">
        <ele>1658.89</ele>
        <time>2019-07-13T09:37:32Z</time>
      </trkpt>
      <trkpt lat="45.10257" lon="2.69422">
        <ele>1660.33</ele>
        <time>2019-07-13T09:37:34Z</time>
      </trkpt>
      <trkpt lat="45.10252" lon="2.69412">
        <ele>1661.78</ele>
        <time>2019-07-13T09:37:47Z</time>
      </trkpt>
      <trkpt lat="45.1025" lon="2.69409">
        <ele>1662.74</ele>
        <time>2019-07-13T09:37:51Z</time>
      </trkpt>
      <trkpt lat="45.10246" lon="2.69392">
        <ele>1663.7</ele>
        <time>2019-07-13T09:38:06Z</time>
      </trkpt>
      <trkpt lat="45.10244" lon="2.69384">
        <ele>1663.22</ele>
        <time>2019-07-13T09:38:14Z</time>
      </trkpt>
      <trkpt lat="45.10237" lon="2.6937">
        <ele>1663.7</ele>
        <time>2019-07-13T09:38:28Z</time>
      </trkpt>
      <trkpt lat="45.10234" lon="2.69358">
        <ele>1664.66</ele>
        <time>2019-07-13T09:38:41Z</time>
      </trkpt>
      <trkpt lat="45.10236" lon="2.69345">
        <ele>1665.14</ele>
        <time>2019-07-13T09:38:54Z</time>
      </trkpt>
      <trkpt lat="45.10237" lon="2.6934">
        <ele>1665.14</ele>
        <time>2019-07-13T09:38:58Z</time>
      </trkpt>
      <trkpt lat="45.10238" lon="2.69332">
        <ele>1664.66</ele>
        <time>2019-07-13T09:39:04Z</time>
      </trkpt>
      <trkpt lat="45.10239" lon="2.6932">
        <ele>1663.7</ele>
        <time>2019-07-13T09:39:13Z</time>
      </trkpt>
      <trkpt lat="45.10241" lon="2.69312">
        <ele>1664.18</ele>
        <time>2019-07-13T09:39:20Z</time>
      </trkpt>
      <trkpt lat="45.10242" lon="2.69309">
        <ele>1664.18</ele>
        <time>2019-07-13T09:39:22Z</time>
      </trkpt>
      <trkpt lat="45.10241" lon="2.69297">
        <ele>1662.74</ele>
        <time>2019-07-13T09:39:34Z</time>
      </trkpt>
      <trkpt lat="45.1024" lon="2.69283">
        <ele>1663.22</ele>
        <time>2019-07-13T09:39:45Z</time>
      </trkpt>
      <trkpt lat="45.1024" lon="2.69282">
        <ele>1662.26</ele>
        <time>2019-07-13T09:39:46Z</time>
      </trkpt>
      <trkpt lat="45.10245" lon="2.6927">
        <ele>1663.22</ele>
        <time>2019-07-13T09:39:59Z</time>
      </trkpt>
      <trkpt lat="45.10246" lon="2.69266">
        <ele>1664.18</ele>
        <time>2019-07-13T09:40:12Z</time>
      </trkpt>
      <trkpt lat="45.10247" lon="2.69254">
        <ele>1664.18</ele>
        <time>2019-07-13T09:40:33Z</time>
      </trkpt>
      <trkpt lat="45.10248" lon="2.69245">
        <ele>1664.66</ele>
        <time>2019-07-13T09:40:40Z</time>
      </trkpt>
      <trkpt lat="45.10249" lon="2.6924">
        <ele>1665.62</ele>
        <time>2019-07-13T09:40:44Z</time>
      </trkpt>
      <trkpt lat="45.10255" lon="2.69228">
        <ele>1665.62</ele>
        <time>2019-07-13T09:40:55Z</time>
      </trkpt>
      <trkpt lat="45.10257" lon="2.69223">
        <ele>1666.1</ele>
        <time>2019-07-13T09:41:00Z</time>
      </trkpt>
      <trkpt lat="45.10264" lon="2.6921">
        <ele>1664.66</ele>
        <time>2019-07-13T09:41:13Z</time>
      </trkpt>
      <trkpt lat="45.10265" lon="2.69203">
        <ele>1666.1</ele>
        <time>2019-07-13T09:41:18Z</time>
      </trkpt>
      <trkpt lat="45.10266" lon="2.69195">
        <ele>1665.14</ele>
        <time>2019-07-13T09:41:24Z</time>
      </trkpt>
      <trkpt lat="45.10273" lon="2.69174">
        <ele>1664.18</ele>
        <time>2019-07-13T09:41:40Z</time>
      </trkpt>
      <trkpt lat="45.10277" lon="2.69163">
        <ele>1663.7</ele>
        <time>2019-07-13T09:41:49Z</time>
      </trkpt>
      <trkpt lat="45.10284" lon="2.6914">
        <ele>1662.74</ele>
        <time>2019-07-13T09:42:05Z</time>
      </trkpt>
      <trkpt lat="45.10292" lon="2.69119">
        <ele>1661.3</ele>
        <time>2019-07-13T09:42:22Z</time>
      </trkpt>
      <trkpt lat="45.10295" lon="2.69104">
        <ele>1660.81</ele>
        <time>2019-07-13T09:42:32Z</time>
      </trkpt>
      <trkpt lat="45.10295" lon="2.69098">
        <ele>1659.37</ele>
        <time>2019-07-13T09:42:36Z</time>
      </trkpt>
      <trkpt lat="45.10296" lon="2.69096">
        <ele>1659.37</ele>
        <time>2019-07-13T09:42:38Z</time>
      </trkpt>
      <trkpt lat="45.103" lon="2.69083">
        <ele>1658.89</ele>
        <time>2019-07-13T09:42:49Z</time>
      </trkpt>
      <trkpt lat="45.10309" lon="2.69066">
        <ele>1656.01</ele>
        <time>2019-07-13T09:43:03Z</time>
      </trkpt>
      <trkpt lat="45.10311" lon="2.69063">
        <ele>1655.53</ele>
        <time>2019-07-13T09:43:06Z</time>
      </trkpt>
      <trkpt lat="45.1032" lon="2.69045">
        <ele>1655.05</ele>
        <time>2019-07-13T09:43:22Z</time>
      </trkpt>
      <trkpt lat="45.10321" lon="2.69039">
        <ele>1654.09</ele>
        <time>2019-07-13T09:43:29Z</time>
      </trkpt>
      <trkpt lat="45.1032" lon="2.69017">
        <ele>1654.09</ele>
        <time>2019-07-13T09:43:43Z</time>
      </trkpt>
      <trkpt lat="45.10319" lon="2.69004">
        <ele>1653.6</ele>
        <time>2019-07-13T09:43:51Z</time>
      </trkpt>
      <trkpt lat="45.10319" lon="2.68987">
        <ele>1654.57</ele>
        <time>2019-07-13T09:44:03Z</time>
      </trkpt>
      <trkpt lat="45.1032" lon="2.68974">
        <ele>1656.01</ele>
        <time>2019-07-13T09:44:14Z</time>
      </trkpt>
      <trkpt lat="45.1032" lon="2.68963">
        <ele>1657.45</ele>
        <time>2019-07-13T09:44:25Z</time>
      </trkpt>
      <trkpt lat="45.10321" lon="2.6896">
        <ele>1657.45</ele>
        <time>2019-07-13T09:44:29Z</time>
      </trkpt>
      <trkpt lat="45.10327" lon="2.6895">
        <ele>1658.41</ele>
        <time>2019-07-13T09:44:40Z</time>
      </trkpt>
      <trkpt lat="45.10333" lon="2.68939">
        <ele>1658.89</ele>
        <time>2019-07-13T09:44:52Z</time>
      </trkpt>
      <trkpt lat="45.10341" lon="2.68927">
        <ele>1659.85</ele>
        <time>2019-07-13T09:45:07Z</time>
      </trkpt>
      <trkpt lat="45.1035" lon="2.68917">
        <ele>1661.78</ele>
        <time>2019-07-13T09:45:19Z</time>
      </trkpt>
      <trkpt lat="45.10355" lon="2.68911">
        <ele>1661.78</ele>
        <time>2019-07-13T09:45:29Z</time>
      </trkpt>
      <trkpt lat="45.10357" lon="2.68904">
        <ele>1662.74</ele>
        <time>2019-07-13T09:45:42Z</time>
      </trkpt>
      <trkpt lat="45.10358" lon="2.68895">
        <ele>1663.7</ele>
        <time>2019-07-13T09:45:59Z</time>
      </trkpt>
      <trkpt lat="45.10358" lon="2.68893">
        <ele>1664.18</ele>
        <time>2019-07-13T09:46:00Z</time>
      </trkpt>
      <trkpt lat="45.10365" lon="2.68872">
        <ele>1662.74</ele>
        <time>2019-07-13T09:46:16Z</time>
      </trkpt>
      <trkpt lat="45.10369" lon="2.68855">
        <ele>1662.74</ele>
        <time>2019-07-13T09:46:29Z</time>
      </trkpt>
      <trkpt lat="45.1037" lon="2.68852">
        <ele>1662.26</ele>
        <time>2019-07-13T09:46:31Z</time>
      </trkpt>
      <trkpt lat="45.10371" lon="2.68831">
        <ele>1661.3</ele>
        <time>2019-07-13T09:46:47Z</time>
      </trkpt>
      <trkpt lat="45.10368" lon="2.68815">
        <ele>1659.37</ele>
        <time>2019-07-13T09:47:01Z</time>
      </trkpt>
      <trkpt lat="45.10367" lon="2.68811">
        <ele>1657.45</ele>
        <time>2019-07-13T09:47:04Z</time>
      </trkpt>
      <trkpt lat="45.10364" lon="2.688">
        <ele>1657.93</ele>
        <time>2019-07-13T09:47:13Z</time>
      </trkpt>
      <trkpt lat="45.10362" lon="2.68794">
        <ele>1657.45</ele>
        <time>2019-07-13T09:47:18Z</time>
      </trkpt>
      <trkpt lat="45.1036" lon="2.6878">
        <ele>1656.01</ele>
        <time>2019-07-13T09:47:29Z</time>
      </trkpt>
      <trkpt lat="45.1036" lon="2.68778">
        <ele>1656.01</ele>
        <time>2019-07-13T09:47:31Z</time>
      </trkpt>
      <trkpt lat="45.10361" lon="2.68762">
        <ele>1654.09</ele>
        <time>2019-07-13T09:47:45Z</time>
      </trkpt>
      <trkpt lat="45.10361" lon="2.68753">
        <ele>1652.64</ele>
        <time>2019-07-13T09:47:56Z</time>
      </trkpt>
      <trkpt lat="45.10362" lon="2.68736">
        <ele>1651.68</ele>
        <time>2019-07-13T09:48:10Z</time>
      </trkpt>
      <trkpt lat="45.10361" lon="2.68721">
        <ele>1650.24</ele>
        <time>2019-07-13T09:48:23Z</time>
      </trkpt>
      <trkpt lat="45.10363" lon="2.68716">
        <ele>1649.76</ele>
        <time>2019-07-13T09:48:32Z</time>
      </trkpt>
      <trkpt lat="45.10364" lon="2.68709">
        <ele>1649.28</ele>
        <time>2019-07-13T09:48:38Z</time>
      </trkpt>
      <trkpt lat="45.10368" lon="2.68698">
        <ele>1648.32</ele>
        <time>2019-07-13T09:48:48Z</time>
      </trkpt>
      <trkpt lat="45.10369" lon="2.68682">
        <ele>1645.91</ele>
        <time>2019-07-13T09:49:03Z</time>
      </trkpt>
      <trkpt lat="45.10373" lon="2.68674">
        <ele>1644.47</ele>
        <time>2019-07-13T09:49:17Z</time>
      </trkpt>
      <trkpt lat="45.10373" lon="2.68666">
        <ele>1643.03</ele>
        <time>2019-07-13T09:49:29Z</time>
      </trkpt>
      <trkpt lat="45.10371" lon="2.68657">
        <ele>1641.11</ele>
        <time>2019-07-13T09:49:41Z</time>
      </trkpt>
      <trkpt lat="45.10373" lon="2.68646">
        <ele>1640.15</ele>
        <time>2019-07-13T09:49:54Z</time>
      </trkpt>
      <trkpt lat="45.10371" lon="2.68636">
        <ele>1637.74</ele>
        <time>2019-07-13T09:50:07Z</time>
      </trkpt>
      <trkpt lat="45.10369" lon="2.68626">
        <ele>1635.34</ele>
        <time>2019-07-13T09:50:22Z</time>
      </trkpt>
      <trkpt lat="45.10369" lon="2.68619">
        <ele>1632.94</ele>
        <time>2019-07-13T09:50:34Z</time>
      </trkpt>
      <trkpt lat="45.10369" lon="2.68619">
        <ele>1631.49</ele>
        <time>2019-07-13T09:50:47Z</time>
      </trkpt>
      <trkpt lat="45.10369" lon="2.68618">
        <ele>1631.49</ele>
        <time>2019-07-13T09:51:14Z</time>
      </trkpt>
      <trkpt lat="45.10369" lon="2.68617">
        <ele>1631.01</ele>
        <time>2019-07-13T09:52:09Z</time>
      </trkpt>
      <trkpt lat="45.10369" lon="2.68617">
        <ele>1629.09</ele>
        <time>2019-07-13T09:52:26Z</time>
      </trkpt>
      <trkpt lat="45.1037" lon="2.68616">
        <ele>1628.13</ele>
        <time>2019-07-13T09:52:41Z</time>
      </trkpt>
      <trkpt lat="45.1037" lon="2.68615">
        <ele>1627.17</ele>
        <time>2019-07-13T09:52:55Z</time>
      </trkpt>
      <trkpt lat="45.1037" lon="2.68615">
        <ele>1627.17</ele>
        <time>2019-07-13T09:52:59Z</time>
      </trkpt>
      <trkpt lat="45.10371" lon="2.68611">
        <ele>1625.25</ele>
        <time>2019-07-13T09:53:10Z</time>
      </trkpt>
      <trkpt lat="45.10371" lon="2.68611">
        <ele>1624.77</ele>
        <time>2019-07-13T09:53:21Z</time>
      </trkpt>
      <trkpt lat="45.10371" lon="2.68608">
        <ele>1623.8</ele>
        <time>2019-07-13T09:53:44Z</time>
      </trkpt>
      <trkpt lat="45.10371" lon="2.68607">
        <ele>1623.8</ele>
        <time>2019-07-13T09:53:48Z</time>
      </trkpt>
      <trkpt lat="45.10373" lon="2.68609">
        <ele>1623.8</ele>
        <time>2019-07-13T09:53:59Z</time>
      </trkpt>
      <trkpt lat="45.10373" lon="2.68609">
        <ele>1622.84</ele>
        <time>2019-07-13T09:54:16Z</time>
      </trkpt>
      <trkpt lat="45.10373" lon="2.68609">
        <ele>1622.84</ele>
        <time>2019-07-13T09:54:32Z</time>
      </trkpt>
      <trkpt lat="45.10373" lon="2.68609">
        <ele>1623.8</ele>
        <time>2019-07-13T09:54:54Z</time>
      </trkpt>
      <trkpt lat="45.10373" lon="2.68608">
        <ele>1623.8</ele>
        <time>2019-07-13T09:56:12Z</time>
      </trkpt>
      <trkpt lat="45.10373" lon="2.68608">
        <ele>1624.28</ele>
        <time>2019-07-13T09:56:36Z</time>
      </trkpt>
      <trkpt lat="45.10373" lon="2.68608">
        <ele>1624.28</ele>
        <time>2019-07-13T09:57:24Z</time>
      </trkpt>
      <trkpt lat="45.10373" lon="2.68607">
        <ele>1624.28</ele>
        <time>2019-07-13T09:58:06Z</time>
      </trkpt>
      <trkpt lat="45.10373" lon="2.68604">
        <ele>1624.28</ele>
        <time>2019-07-13T09:59:00Z</time>
      </trkpt>
      <trkpt lat="45.10373" lon="2.68601">
        <ele>1622.84</ele>
        <time>2019-07-13T09:59:30Z</time>
      </trkpt>
      <trkpt lat="45.10372" lon="2.68599">
        <ele>1622.36</ele>
        <time>2019-07-13T09:59:44Z</time>
      </trkpt>
      <trkpt lat="45.10372" lon="2.68599">
        <ele>1621.4</ele>
        <time>2019-07-13T09:59:56Z</time>
      </trkpt>
      <trkpt lat="45.10371" lon="2.68596">
        <ele>1620.44</ele>
        <time>2019-07-13T10:00:08Z</time>
      </trkpt>
      <trkpt lat="45.10366" lon="2.6858">
        <ele>1621.88</ele>
        <time>2019-07-13T10:00:22Z</time>
      </trkpt>
      <trkpt lat="45.10366" lon="2.68578">
        <ele>1622.84</ele>
        <time>2019-07-13T10:00:42Z</time>
      </trkpt>
      <trkpt lat="45.10366" lon="2.68577">
        <ele>1623.32</ele>
        <time>2019-07-13T10:01:06Z</time>
      </trkpt>
      <trkpt lat="45.10366" lon="2.68576">
        <ele>1625.25</ele>
        <time>2019-07-13T10:01:34Z</time>
      </trkpt>
      <trkpt lat="45.10367" lon="2.68574">
        <ele>1625.73</ele>
        <time>2019-07-13T10:02:12Z</time>
      </trkpt>
      <trkpt lat="45.10369" lon="2.68573">
        <ele>1628.13</ele>
        <time>2019-07-13T10:02:30Z</time>
      </trkpt>
      <trkpt lat="45.10375" lon="2.6857">
        <ele>1630.05</ele>
        <time>2019-07-13T10:02:39Z</time>
      </trkpt>
      <trkpt lat="45.10376" lon="2.68567">
        <ele>1631.49</ele>
        <time>2019-07-13T10:02:52Z</time>
      </trkpt>
      <trkpt lat="45.10376" lon="2.68566">
        <ele>1631.98</ele>
        <time>2019-07-13T10:03:09Z</time>
      </trkpt>
      <trkpt lat="45.10376" lon="2.68565">
        <ele>1632.46</ele>
        <time>2019-07-13T10:03:34Z</time>
      </trkpt>
      <trkpt lat="45.10375" lon="2.68564">
        <ele>1634.38</ele>
        <time>2019-07-13T10:03:54Z</time>
      </trkpt>
      <trkpt lat="45.10373" lon="2.68563">
        <ele>1634.38</ele>
        <time>2019-07-13T10:04:17Z</time>
      </trkpt>
      <trkpt lat="45.10373" lon="2.68563">
        <ele>1634.86</ele>
        <time>2019-07-13T10:04:33Z</time>
      </trkpt>
      <trkpt lat="45.10374" lon="2.68563">
        <ele>1633.9</ele>
        <time>2019-07-13T10:05:00Z</time>
      </trkpt>
      <trkpt lat="45.1037" lon="2.6856">
        <ele>1634.38</ele>
        <time>2019-07-13T10:05:14Z</time>
      </trkpt>
      <trkpt lat="45.10369" lon="2.68554">
        <ele>1636.3</ele>
        <time>2019-07-13T10:05:24Z</time>
      </trkpt>
      <trkpt lat="45.10369" lon="2.68552">
        <ele>1636.78</ele>
        <time>2019-07-13T10:05:28Z</time>
      </trkpt>
      <trkpt lat="45.10373" lon="2.68551">
        <ele>1639.19</ele>
        <time>2019-07-13T10:05:40Z</time>
      </trkpt>
      <trkpt lat="45.10378" lon="2.68546">
        <ele>1640.63</ele>
        <time>2019-07-13T10:05:51Z</time>
      </trkpt>
      <trkpt lat="45.1038" lon="2.68542">
        <ele>1641.11</ele>
        <time>2019-07-13T10:06:03Z</time>
      </trkpt>
      <trkpt lat="45.1038" lon="2.68541">
        <ele>1640.15</ele>
        <time>2019-07-13T10:06:21Z</time>
      </trkpt>
      <trkpt lat="45.1038" lon="2.68541">
        <ele>1642.55</ele>
        <time>2019-07-13T10:08:23Z</time>
      </trkpt>
      <trkpt lat="45.10378" lon="2.68538">
        <ele>1642.55</ele>
        <time>2019-07-13T10:08:28Z</time>
      </trkpt>
      <trkpt lat="45.10372" lon="2.68531">
        <ele>1642.55</ele>
        <time>2019-07-13T10:08:40Z</time>
      </trkpt>
      <trkpt lat="45.10372" lon="2.68531">
        <ele>1642.07</ele>
        <time>2019-07-13T10:08:54Z</time>
      </trkpt>
      <trkpt lat="45.10376" lon="2.68534">
        <ele>1642.55</ele>
        <time>2019-07-13T10:09:32Z</time>
      </trkpt>
      <trkpt lat="45.1038" lon="2.68537">
        <ele>1641.59</ele>
        <time>2019-07-13T10:09:45Z</time>
      </trkpt>
      <trkpt lat="45.10379" lon="2.68538">
        <ele>1641.11</ele>
        <time>2019-07-13T10:09:56Z</time>
      </trkpt>
      <trkpt lat="45.1038" lon="2.68542">
        <ele>1640.63</ele>
        <time>2019-07-13T10:10:11Z</time>
      </trkpt>
      <trkpt lat="45.10379" lon="2.68543">
        <ele>1640.15</ele>
        <time>2019-07-13T10:10:24Z</time>
      </trkpt>
      <trkpt lat="45.10381" lon="2.6854">
        <ele>1641.11</ele>
        <time>2019-07-13T10:10:35Z</time>
      </trkpt>
      <trkpt lat="45.10382" lon="2.68537">
        <ele>1641.11</ele>
        <time>2019-07-13T10:11:14Z</time>
      </trkpt>
      <trkpt lat="45.10387" lon="2.68532">
        <ele>1642.07</ele>
        <time>2019-07-13T10:11:25Z</time>
      </trkpt>
      <trkpt lat="45.10389" lon="2.68528">
        <ele>1641.11</ele>
        <time>2019-07-13T10:11:28Z</time>
      </trkpt>
      <trkpt lat="45.10391" lon="2.68522">
        <ele>1641.59</ele>
        <time>2019-07-13T10:11:33Z</time>
      </trkpt>
      <trkpt lat="45.10395" lon="2.68516">
        <ele>1642.07</ele>
        <time>2019-07-13T10:11:39Z</time>
      </trkpt>
      <trkpt lat="45.10402" lon="2.68501">
        <ele>1641.59</ele>
        <time>2019-07-13T10:11:53Z</time>
      </trkpt>
      <trkpt lat="45.10403" lon="2.68494">
        <ele>1641.59</ele>
        <time>2019-07-13T10:11:59Z</time>
      </trkpt>
      <trkpt lat="45.10405" lon="2.68478">
        <ele>1640.15</ele>
        <time>2019-07-13T10:12:12Z</time>
      </trkpt>
      <trkpt lat="45.10408" lon="2.68469">
        <ele>1639.19</ele>
        <time>2019-07-13T10:12:19Z</time>
      </trkpt>
      <trkpt lat="45.10411" lon="2.68459">
        <ele>1637.74</ele>
        <time>2019-07-13T10:12:27Z</time>
      </trkpt>
      <trkpt lat="45.10412" lon="2.68454">
        <ele>1637.74</ele>
        <time>2019-07-13T10:12:30Z</time>
      </trkpt>
      <trkpt lat="45.1042" lon="2.68435">
        <ele>1635.82</ele>
        <time>2019-07-13T10:12:44Z</time>
      </trkpt>
      <trkpt lat="45.10422" lon="2.68427">
        <ele>1635.82</ele>
        <time>2019-07-13T10:12:50Z</time>
      </trkpt>
      <trkpt lat="45.10427" lon="2.68414">
        <ele>1635.82</ele>
        <time>2019-07-13T10:12:58Z</time>
      </trkpt>
      <trkpt lat="45.10437" lon="2.68398">
        <ele>1635.34</ele>
        <time>2019-07-13T10:13:12Z</time>
      </trkpt>
      <trkpt lat="45.10438" lon="2.68396">
        <ele>1634.86</ele>
        <time>2019-07-13T10:13:14Z</time>
      </trkpt>
      <trkpt lat="45.10441" lon="2.68392">
        <ele>1633.9</ele>
        <time>2019-07-13T10:13:18Z</time>
      </trkpt>
      <trkpt lat="45.10442" lon="2.68388">
        <ele>1634.38</ele>
        <time>2019-07-13T10:13:21Z</time>
      </trkpt>
      <trkpt lat="45.10451" lon="2.68379">
        <ele>1631.49</ele>
        <time>2019-07-13T10:13:37Z</time>
      </trkpt>
      <trkpt lat="45.10459" lon="2.68369">
        <ele>1629.09</ele>
        <time>2019-07-13T10:13:51Z</time>
      </trkpt>
      <trkpt lat="45.10463" lon="2.68362">
        <ele>1627.65</ele>
        <time>2019-07-13T10:14:03Z</time>
      </trkpt>
      <trkpt lat="45.10465" lon="2.68351">
        <ele>1626.69</ele>
        <time>2019-07-13T10:14:15Z</time>
      </trkpt>
      <trkpt lat="45.10472" lon="2.68344">
        <ele>1624.28</ele>
        <time>2019-07-13T10:14:28Z</time>
      </trkpt>
      <trkpt lat="45.10482" lon="2.68332">
        <ele>1621.4</ele>
        <time>2019-07-13T10:14:43Z</time>
      </trkpt>
      <trkpt lat="45.10488" lon="2.68325">
        <ele>1619.48</ele>
        <time>2019-07-13T10:14:54Z</time>
      </trkpt>
      <trkpt lat="45.10493" lon="2.68317">
        <ele>1618.52</ele>
        <time>2019-07-13T10:15:07Z</time>
      </trkpt>
      <trkpt lat="45.10494" lon="2.68314">
        <ele>1618.04</ele>
        <time>2019-07-13T10:15:09Z</time>
      </trkpt>
      <trkpt lat="45.10501" lon="2.68294">
        <ele>1617.07</ele>
        <time>2019-07-13T10:15:23Z</time>
      </trkpt>
      <trkpt lat="45.10509" lon="2.68284">
        <ele>1618.52</ele>
        <time>2019-07-13T10:15:33Z</time>
      </trkpt>
      <trkpt lat="45.10518" lon="2.68278">
        <ele>1621.4</ele>
        <time>2019-07-13T10:15:45Z</time>
      </trkpt>
      <trkpt lat="45.10528" lon="2.68269">
        <ele>1621.4</ele>
        <time>2019-07-13T10:15:59Z</time>
      </trkpt>
      <trkpt lat="45.1053" lon="2.68266">
        <ele>1622.36</ele>
        <time>2019-07-13T10:16:02Z</time>
      </trkpt>
      <trkpt lat="45.10539" lon="2.6826">
        <ele>1621.4</ele>
        <time>2019-07-13T10:16:11Z</time>
      </trkpt>
      <trkpt lat="45.10542" lon="2.68259">
        <ele>1620.92</ele>
        <time>2019-07-13T10:16:14Z</time>
      </trkpt>
      <trkpt lat="45.10549" lon="2.68248">
        <ele>1620.44</ele>
        <time>2019-07-13T10:16:29Z</time>
      </trkpt>
      <trkpt lat="45.10553" lon="2.68243">
        <ele>1618.04</ele>
        <time>2019-07-13T10:16:41Z</time>
      </trkpt>
      <trkpt lat="45.10558" lon="2.68235">
        <ele>1616.59</ele>
        <time>2019-07-13T10:16:52Z</time>
      </trkpt>
      <trkpt lat="45.10563" lon="2.68228">
        <ele>1614.67</ele>
        <time>2019-07-13T10:17:03Z</time>
      </trkpt>
      <trkpt lat="45.1057" lon="2.68219">
        <ele>1613.23</ele>
        <time>2019-07-13T10:17:17Z</time>
      </trkpt>
      <trkpt lat="45.10572" lon="2.68214">
        <ele>1611.79</ele>
        <time>2019-07-13T10:17:28Z</time>
      </trkpt>
      <trkpt lat="45.10581" lon="2.68207">
        <ele>1609.38</ele>
        <time>2019-07-13T10:17:40Z</time>
      </trkpt>
      <trkpt lat="45.10587" lon="2.68201">
        <ele>1607.94</ele>
        <time>2019-07-13T10:17:47Z</time>
      </trkpt>
      <trkpt lat="45.10599" lon="2.68189">
        <ele>1608.42</ele>
        <time>2019-07-13T10:18:00Z</time>
      </trkpt>
      <trkpt lat="45.10601" lon="2.68185">
        <ele>1609.86</ele>
        <time>2019-07-13T10:18:03Z</time>
      </trkpt>
      <trkpt lat="45.10604" lon="2.68181">
        <ele>1609.38</ele>
        <time>2019-07-13T10:18:08Z</time>
      </trkpt>
      <trkpt lat="45.10609" lon="2.68174">
        <ele>1610.83</ele>
        <time>2019-07-13T10:18:15Z</time>
      </trkpt>
      <trkpt lat="45.10617" lon="2.68165">
        <ele>1610.35</ele>
        <time>2019-07-13T10:18:26Z</time>
      </trkpt>
      <trkpt lat="45.10618" lon="2.68162">
        <ele>1608.42</ele>
        <time>2019-07-13T10:18:28Z</time>
      </trkpt>
      <trkpt lat="45.10626" lon="2.68159">
        <ele>1609.86</ele>
        <time>2019-07-13T10:18:38Z</time>
      </trkpt>
      <trkpt lat="45.10637" lon="2.68149">
        <ele>1608.9</ele>
        <time>2019-07-13T10:18:52Z</time>
      </trkpt>
      <trkpt lat="45.10645" lon="2.6813">
        <ele>1609.86</ele>
        <time>2019-07-13T10:19:07Z</time>
      </trkpt>
      <trkpt lat="45.10647" lon="2.68127">
        <ele>1610.35</ele>
        <time>2019-07-13T10:19:10Z</time>
      </trkpt>
      <trkpt lat="45.10647" lon="2.68124">
        <ele>1611.31</ele>
        <time>2019-07-13T10:19:12Z</time>
      </trkpt>
      <trkpt lat="45.10649" lon="2.68119">
        <ele>1609.86</ele>
        <time>2019-07-13T10:19:16Z</time>
      </trkpt>
      <trkpt lat="45.10657" lon="2.68105">
        <ele>1608.9</ele>
        <time>2019-07-13T10:19:29Z</time>
      </trkpt>
      <trkpt lat="45.10661" lon="2.6809">
        <ele>1606.02</ele>
        <time>2019-07-13T10:19:41Z</time>
      </trkpt>
      <trkpt lat="45.10661" lon="2.6809">
        <ele>1603.14</ele>
        <time>2019-07-13T10:19:52Z</time>
      </trkpt>
      <trkpt lat="45.10661" lon="2.6809">
        <ele>1604.58</ele>
        <time>2019-07-13T10:19:55Z</time>
      </trkpt>
      <trkpt lat="45.10661" lon="2.6809">
        <ele>1605.54</ele>
        <time>2019-07-13T10:20:00Z</time>
      </trkpt>
      <trkpt lat="45.10661" lon="2.6809">
        <ele>1604.58</ele>
        <time>2019-07-13T10:20:13Z</time>
      </trkpt>
      <trkpt lat="45.10661" lon="2.6809">
        <ele>1606.02</ele>
        <time>2019-07-13T10:20:37Z</time>
      </trkpt>
      <trkpt lat="45.10661" lon="2.6809">
        <ele>1605.06</ele>
        <time>2019-07-13T10:20:49Z</time>
      </trkpt>
      <trkpt lat="45.10661" lon="2.68089">
        <ele>1608.42</ele>
        <time>2019-07-13T10:21:25Z</time>
      </trkpt>
      <trkpt lat="45.10661" lon="2.68089">
        <ele>1608.9</ele>
        <time>2019-07-13T10:21:26Z</time>
      </trkpt>
      <trkpt lat="45.10661" lon="2.68089">
        <ele>1606.5</ele>
        <time>2019-07-13T10:21:30Z</time>
      </trkpt>
      <trkpt lat="45.10661" lon="2.68089">
        <ele>1609.38</ele>
        <time>2019-07-13T10:21:48Z</time>
      </trkpt>
      <trkpt lat="45.10661" lon="2.68089">
        <ele>1605.54</ele>
        <time>2019-07-13T10:22:17Z</time>
      </trkpt>
      <trkpt lat="45.10661" lon="2.68089">
        <ele>1605.06</ele>
        <time>2019-07-13T10:22:19Z</time>
      </trkpt>
      <trkpt lat="45.10661" lon="2.68089">
        <ele>1608.42</ele>
        <time>2019-07-13T10:22:23Z</time>
      </trkpt>
      <trkpt lat="45.10661" lon="2.6809">
        <ele>1605.54</ele>
        <time>2019-07-13T10:22:57Z</time>
      </trkpt>
      <trkpt lat="45.10661" lon="2.6809">
        <ele>1608.42</ele>
        <time>2019-07-13T10:23:15Z</time>
      </trkpt>
      <trkpt lat="45.10661" lon="2.6809">
        <ele>1606.02</ele>
        <time>2019-07-13T10:24:02Z</time>
      </trkpt>
      <trkpt lat="45.10661" lon="2.6809">
        <ele>1604.58</ele>
        <time>2019-07-13T10:24:14Z</time>
      </trkpt>
      <trkpt lat="45.10662" lon="2.6809">
        <ele>1606.98</ele>
        <time>2019-07-13T10:24:55Z</time>
      </trkpt>
      <trkpt lat="45.10662" lon="2.6809">
        <ele>1604.58</ele>
        <time>2019-07-13T10:25:24Z</time>
      </trkpt>
      <trkpt lat="45.10662" lon="2.6809">
        <ele>1604.58</ele>
        <time>2019-07-13T10:26:11Z</time>
      </trkpt>
      <trkpt lat="45.10662" lon="2.6809">
        <ele>1606.98</ele>
        <time>2019-07-13T10:26:23Z</time>
      </trkpt>
      <trkpt lat="45.10662" lon="2.6809">
        <ele>1607.46</ele>
        <time>2019-07-13T10:27:58Z</time>
      </trkpt>
      <trkpt lat="45.10662" lon="2.6809">
        <ele>1604.1</ele>
        <time>2019-07-13T10:29:02Z</time>
      </trkpt>
      <trkpt lat="45.10662" lon="2.6809">
        <ele>1606.02</ele>
        <time>2019-07-13T10:29:44Z</time>
      </trkpt>
      <trkpt lat="45.10662" lon="2.6809">
        <ele>1605.54</ele>
        <time>2019-07-13T10:30:09Z</time>
      </trkpt>
      <trkpt lat="45.10663" lon="2.68088">
        <ele>1605.06</ele>
        <time>2019-07-13T10:30:21Z</time>
      </trkpt>
      <trkpt lat="45.10665" lon="2.68078">
        <ele>1606.5</ele>
        <time>2019-07-13T10:30:31Z</time>
      </trkpt>
      <trkpt lat="45.10668" lon="2.68069">
        <ele>1607.94</ele>
        <time>2019-07-13T10:30:42Z</time>
      </trkpt>
      <trkpt lat="45.10669" lon="2.68062">
        <ele>1610.83</ele>
        <time>2019-07-13T10:30:56Z</time>
      </trkpt>
      <trkpt lat="45.1067" lon="2.68054">
        <ele>1612.75</ele>
        <time>2019-07-13T10:31:07Z</time>
      </trkpt>
      <trkpt lat="45.10673" lon="2.68046">
        <ele>1614.19</ele>
        <time>2019-07-13T10:31:20Z</time>
      </trkpt>
      <trkpt lat="45.10676" lon="2.68038">
        <ele>1615.63</ele>
        <time>2019-07-13T10:31:31Z</time>
      </trkpt>
      <trkpt lat="45.10679" lon="2.6803">
        <ele>1617.07</ele>
        <time>2019-07-13T10:31:43Z</time>
      </trkpt>
      <trkpt lat="45.1068" lon="2.68029">
        <ele>1618.04</ele>
        <time>2019-07-13T10:31:47Z</time>
      </trkpt>
      <trkpt lat="45.1068" lon="2.68029">
        <ele>1618.52</ele>
        <time>2019-07-13T10:31:49Z</time>
      </trkpt>
      <trkpt lat="45.10685" lon="2.68021">
        <ele>1619.96</ele>
        <time>2019-07-13T10:32:00Z</time>
      </trkpt>
      <trkpt lat="45.10688" lon="2.68016">
        <ele>1621.88</ele>
        <time>2019-07-13T10:32:10Z</time>
      </trkpt>
      <trkpt lat="45.10693" lon="2.68014">
        <ele>1623.32</ele>
        <time>2019-07-13T10:32:20Z</time>
      </trkpt>
      <trkpt lat="45.10696" lon="2.68009">
        <ele>1625.25</ele>
        <time>2019-07-13T10:32:30Z</time>
      </trkpt>
      <trkpt lat="45.10697" lon="2.68004">
        <ele>1627.17</ele>
        <time>2019-07-13T10:32:41Z</time>
      </trkpt>
      <trkpt lat="45.107" lon="2.67998">
        <ele>1629.09</ele>
        <time>2019-07-13T10:32:52Z</time>
      </trkpt>
      <trkpt lat="45.10705" lon="2.67992">
        <ele>1630.05</ele>
        <time>2019-07-13T10:33:05Z</time>
      </trkpt>
      <trkpt lat="45.10708" lon="2.67988">
        <ele>1631.01</ele>
        <time>2019-07-13T10:33:15Z</time>
      </trkpt>
      <trkpt lat="45.10713" lon="2.67982">
        <ele>1632.46</ele>
        <time>2019-07-13T10:33:27Z</time>
      </trkpt>
      <trkpt lat="45.10718" lon="2.67975">
        <ele>1634.38</ele>
        <time>2019-07-13T10:33:39Z</time>
      </trkpt>
      <trkpt lat="45.1072" lon="2.67965">
        <ele>1634.38</ele>
        <time>2019-07-13T10:33:51Z</time>
      </trkpt>
      <trkpt lat="45.10723" lon="2.67956">
        <ele>1635.82</ele>
        <time>2019-07-13T10:34:03Z</time>
      </trkpt>
      <trkpt lat="45.10728" lon="2.67951">
        <ele>1637.26</ele>
        <time>2019-07-13T10:34:15Z</time>
      </trkpt>
      <trkpt lat="45.10729" lon="2.67942">
        <ele>1639.19</ele>
        <time>2019-07-13T10:34:28Z</time>
      </trkpt>
      <trkpt lat="45.10735" lon="2.67937">
        <ele>1641.11</ele>
        <time>2019-07-13T10:34:40Z</time>
      </trkpt>
      <trkpt lat="45.10741" lon="2.67938">
        <ele>1642.55</ele>
        <time>2019-07-13T10:34:52Z</time>
      </trkpt>
      <trkpt lat="45.10743" lon="2.67934">
        <ele>1645.91</ele>
        <time>2019-07-13T10:34:59Z</time>
      </trkpt>
      <trkpt lat="45.10741" lon="2.67928">
        <ele>1646.4</ele>
        <time>2019-07-13T10:35:10Z</time>
      </trkpt>
      <trkpt lat="45.10745" lon="2.67928">
        <ele>1647.36</ele>
        <time>2019-07-13T10:35:23Z</time>
      </trkpt>
      <trkpt lat="45.10746" lon="2.67927">
        <ele>1648.32</ele>
        <time>2019-07-13T10:35:27Z</time>
      </trkpt>
      <trkpt lat="45.10747" lon="2.67923">
        <ele>1649.76</ele>
        <time>2019-07-13T10:35:37Z</time>
      </trkpt>
      <trkpt lat="45.10748" lon="2.67919">
        <ele>1652.16</ele>
        <time>2019-07-13T10:35:48Z</time>
      </trkpt>
      <trkpt lat="45.10751" lon="2.67916">
        <ele>1652.64</ele>
        <time>2019-07-13T10:35:58Z</time>
      </trkpt>
      <trkpt lat="45.10751" lon="2.67914">
        <ele>1654.57</ele>
        <time>2019-07-13T10:36:01Z</time>
      </trkpt>
      <trkpt lat="45.10753" lon="2.67911">
        <ele>1655.53</ele>
        <time>2019-07-13T10:36:13Z</time>
      </trkpt>
      <trkpt lat="45.10757" lon="2.67902">
        <ele>1656.97</ele>
        <time>2019-07-13T10:36:25Z</time>
      </trkpt>
      <trkpt lat="45.10764" lon="2.679">
        <ele>1657.93</ele>
        <time>2019-07-13T10:36:38Z</time>
      </trkpt>
      <trkpt lat="45.10769" lon="2.679">
        <ele>1659.85</ele>
        <time>2019-07-13T10:36:49Z</time>
      </trkpt>
      <trkpt lat="45.10772" lon="2.67897">
        <ele>1662.74</ele>
        <time>2019-07-13T10:37:01Z</time>
      </trkpt>
      <trkpt lat="45.10776" lon="2.67893">
        <ele>1664.66</ele>
        <time>2019-07-13T10:37:12Z</time>
      </trkpt>
      <trkpt lat="45.10775" lon="2.67884">
        <ele>1666.1</ele>
        <time>2019-07-13T10:37:24Z</time>
      </trkpt>
      <trkpt lat="45.10778" lon="2.67885">
        <ele>1668.02</ele>
        <time>2019-07-13T10:37:37Z</time>
      </trkpt>
      <trkpt lat="45.10781" lon="2.6788">
        <ele>1669.47</ele>
        <time>2019-07-13T10:37:48Z</time>
      </trkpt>
      <trkpt lat="45.10785" lon="2.67878">
        <ele>1670.43</ele>
        <time>2019-07-13T10:37:58Z</time>
      </trkpt>
      <trkpt lat="45.10786" lon="2.67875">
        <ele>1672.35</ele>
        <time>2019-07-13T10:38:03Z</time>
      </trkpt>
      <trkpt lat="45.10786" lon="2.67868">
        <ele>1673.31</ele>
        <time>2019-07-13T10:38:13Z</time>
      </trkpt>
      <trkpt lat="45.10791" lon="2.67865">
        <ele>1674.75</ele>
        <time>2019-07-13T10:38:24Z</time>
      </trkpt>
      <trkpt lat="45.10795" lon="2.67861">
        <ele>1676.2</ele>
        <time>2019-07-13T10:38:36Z</time>
      </trkpt>
      <trkpt lat="45.10799" lon="2.67856">
        <ele>1677.64</ele>
        <time>2019-07-13T10:38:47Z</time>
      </trkpt>
      <trkpt lat="45.10801" lon="2.67851">
        <ele>1679.56</ele>
        <time>2019-07-13T10:38:58Z</time>
      </trkpt>
      <trkpt lat="45.10804" lon="2.67844">
        <ele>1681</ele>
        <time>2019-07-13T10:39:09Z</time>
      </trkpt>
      <trkpt lat="45.10808" lon="2.67842">
        <ele>1682.93</ele>
        <time>2019-07-13T10:39:21Z</time>
      </trkpt>
      <trkpt lat="45.10812" lon="2.6784">
        <ele>1684.85</ele>
        <time>2019-07-13T10:39:30Z</time>
      </trkpt>
      <trkpt lat="45.10813" lon="2.67835">
        <ele>1685.81</ele>
        <time>2019-07-13T10:39:40Z</time>
      </trkpt>
      <trkpt lat="45.10818" lon="2.67834">
        <ele>1686.29</ele>
        <time>2019-07-13T10:39:53Z</time>
      </trkpt>
      <trkpt lat="45.1082" lon="2.67832">
        <ele>1689.65</ele>
        <time>2019-07-13T10:40:00Z</time>
      </trkpt>
      <trkpt lat="45.10822" lon="2.67829">
        <ele>1689.65</ele>
        <time>2019-07-13T10:40:11Z</time>
      </trkpt>
      <trkpt lat="45.10826" lon="2.67827">
        <ele>1691.58</ele>
        <time>2019-07-13T10:40:20Z</time>
      </trkpt>
      <trkpt lat="45.10828" lon="2.67824">
        <ele>1693.02</ele>
        <time>2019-07-13T10:40:29Z</time>
      </trkpt>
      <trkpt lat="45.10828" lon="2.67819">
        <ele>1694.94</ele>
        <time>2019-07-13T10:40:43Z</time>
      </trkpt>
      <trkpt lat="45.10828" lon="2.67813">
        <ele>1695.9</ele>
        <time>2019-07-13T10:40:52Z</time>
      </trkpt>
      <trkpt lat="45.10831" lon="2.67811">
        <ele>1697.83</ele>
        <time>2019-07-13T10:41:01Z</time>
      </trkpt>
      <trkpt lat="45.10834" lon="2.67812">
        <ele>1699.27</ele>
        <time>2019-07-13T10:41:13Z</time>
      </trkpt>
      <trkpt lat="45.10835" lon="2.67812">
        <ele>1701.67</ele>
        <time>2019-07-13T10:41:25Z</time>
      </trkpt>
      <trkpt lat="45.10836" lon="2.67809">
        <ele>1703.11</ele>
        <time>2019-07-13T10:41:38Z</time>
      </trkpt>
      <trkpt lat="45.10837" lon="2.67809">
        <ele>1703.11</ele>
        <time>2019-07-13T10:41:49Z</time>
      </trkpt>
      <trkpt lat="45.10837" lon="2.67809">
        <ele>1703.59</ele>
        <time>2019-07-13T10:42:19Z</time>
      </trkpt>
      <trkpt lat="45.10836" lon="2.67809">
        <ele>1702.15</ele>
        <time>2019-07-13T10:42:37Z</time>
      </trkpt>
      <trkpt lat="45.10836" lon="2.6781">
        <ele>1703.59</ele>
        <time>2019-07-13T10:42:58Z</time>
      </trkpt>
      <trkpt lat="45.10836" lon="2.67808">
        <ele>1703.59</ele>
        <time>2019-07-13T10:44:04Z</time>
      </trkpt>
      <trkpt lat="45.10837" lon="2.67808">
        <ele>1705.04</ele>
        <time>2019-07-13T10:44:07Z</time>
      </trkpt>
      <trkpt lat="45.10837" lon="2.67808">
        <ele>1704.55</ele>
        <time>2019-07-13T10:44:44Z</time>
      </trkpt>
      <trkpt lat="45.10841" lon="2.67807">
        <ele>1704.55</ele>
        <time>2019-07-13T10:45:01Z</time>
      </trkpt>
      <trkpt lat="45.10844" lon="2.67808">
        <ele>1705.04</ele>
        <time>2019-07-13T10:45:15Z</time>
      </trkpt>
      <trkpt lat="45.10846" lon="2.67809">
        <ele>1706</ele>
        <time>2019-07-13T10:45:24Z</time>
      </trkpt>
      <trkpt lat="45.10848" lon="2.67808">
        <ele>1706</ele>
        <time>2019-07-13T10:45:35Z</time>
      </trkpt>
      <trkpt lat="45.10848" lon="2.67808">
        <ele>1706.48</ele>
        <time>2019-07-13T10:45:46Z</time>
      </trkpt>
      <trkpt lat="45.1085" lon="2.67807">
        <ele>1707.92</ele>
        <time>2019-07-13T10:45:51Z</time>
      </trkpt>
      <trkpt lat="45.10854" lon="2.67805">
        <ele>1709.36</ele>
        <time>2019-07-13T10:46:01Z</time>
      </trkpt>
      <trkpt lat="45.10854" lon="2.67805">
        <ele>1712.25</ele>
        <time>2019-07-13T10:46:12Z</time>
      </trkpt>
      <trkpt lat="45.10857" lon="2.67804">
        <ele>1713.69</ele>
        <time>2019-07-13T10:46:24Z</time>
      </trkpt>
      <trkpt lat="45.10861" lon="2.67797">
        <ele>1715.13</ele>
        <time>2019-07-13T10:46:35Z</time>
      </trkpt>
      <trkpt lat="45.10864" lon="2.67795">
        <ele>1717.53</ele>
        <time>2019-07-13T10:46:46Z</time>
      </trkpt>
      <trkpt lat="45.10865" lon="2.67795">
        <ele>1718.97</ele>
        <time>2019-07-13T10:46:56Z</time>
      </trkpt>
      <trkpt lat="45.10865" lon="2.67795">
        <ele>1720.42</ele>
        <time>2019-07-13T10:47:10Z</time>
      </trkpt>
      <trkpt lat="45.10865" lon="2.67795">
        <ele>1721.86</ele>
        <time>2019-07-13T10:47:24Z</time>
      </trkpt>
      <trkpt lat="45.10866" lon="2.67794">
        <ele>1724.74</ele>
        <time>2019-07-13T10:47:28Z</time>
      </trkpt>
      <trkpt lat="45.10866" lon="2.67794">
        <ele>1725.7</ele>
        <time>2019-07-13T10:47:41Z</time>
      </trkpt>
      <trkpt lat="45.10866" lon="2.67794">
        <ele>1727.63</ele>
        <time>2019-07-13T10:47:52Z</time>
      </trkpt>
      <trkpt lat="45.10869" lon="2.6779">
        <ele>1728.59</ele>
        <time>2019-07-13T10:48:03Z</time>
      </trkpt>
      <trkpt lat="45.10869" lon="2.6779">
        <ele>1730.51</ele>
        <time>2019-07-13T10:48:16Z</time>
      </trkpt>
      <trkpt lat="45.10869" lon="2.6779">
        <ele>1731.47</ele>
        <time>2019-07-13T10:48:28Z</time>
      </trkpt>
      <trkpt lat="45.10873" lon="2.67788">
        <ele>1732.43</ele>
        <time>2019-07-13T10:48:43Z</time>
      </trkpt>
      <trkpt lat="45.10873" lon="2.67788">
        <ele>1734.36</ele>
        <time>2019-07-13T10:48:58Z</time>
      </trkpt>
      <trkpt lat="45.10873" lon="2.67788">
        <ele>1735.32</ele>
        <time>2019-07-13T10:49:14Z</time>
      </trkpt>
      <trkpt lat="45.10875" lon="2.67788">
        <ele>1737.24</ele>
        <time>2019-07-13T10:49:28Z</time>
      </trkpt>
      <trkpt lat="45.10875" lon="2.67788">
        <ele>1739.16</ele>
        <time>2019-07-13T10:49:42Z</time>
      </trkpt>
      <trkpt lat="45.10875" lon="2.67788">
        <ele>1740.6</ele>
        <time>2019-07-13T10:49:55Z</time>
      </trkpt>
      <trkpt lat="45.10874" lon="2.67775">
        <ele>1742.05</ele>
        <time>2019-07-13T10:50:09Z</time>
      </trkpt>
      <trkpt lat="45.10891" lon="2.67758">
        <ele>1744.45</ele>
        <time>2019-07-13T10:50:26Z</time>
      </trkpt>
      <trkpt lat="45.10892" lon="2.67755">
        <ele>1745.41</ele>
        <time>2019-07-13T10:50:38Z</time>
      </trkpt>
      <trkpt lat="45.10895" lon="2.67752">
        <ele>1746.37</ele>
        <time>2019-07-13T10:50:48Z</time>
      </trkpt>
      <trkpt lat="45.10895" lon="2.67752">
        <ele>1748.29</ele>
        <time>2019-07-13T10:51:07Z</time>
      </trkpt>
      <trkpt lat="45.10895" lon="2.67752">
        <ele>1750.22</ele>
        <time>2019-07-13T10:51:20Z</time>
      </trkpt>
      <trkpt lat="45.10907" lon="2.67744">
        <ele>1751.66</ele>
        <time>2019-07-13T10:51:31Z</time>
      </trkpt>
      <trkpt lat="45.10914" lon="2.67739">
        <ele>1752.62</ele>
        <time>2019-07-13T10:51:43Z</time>
      </trkpt>
      <trkpt lat="45.10917" lon="2.67736">
        <ele>1755.02</ele>
        <time>2019-07-13T10:51:56Z</time>
      </trkpt>
      <trkpt lat="45.1092" lon="2.67727">
        <ele>1755.99</ele>
        <time>2019-07-13T10:52:05Z</time>
      </trkpt>
      <trkpt lat="45.10919" lon="2.67721">
        <ele>1755.99</ele>
        <time>2019-07-13T10:52:09Z</time>
      </trkpt>
      <trkpt lat="45.10922" lon="2.6771">
        <ele>1756.95</ele>
        <time>2019-07-13T10:52:19Z</time>
      </trkpt>
      <trkpt lat="45.10922" lon="2.67709">
        <ele>1756.95</ele>
        <time>2019-07-13T10:52:20Z</time>
      </trkpt>
      <trkpt lat="45.10924" lon="2.67702">
        <ele>1757.43</ele>
        <time>2019-07-13T10:52:33Z</time>
      </trkpt>
      <trkpt lat="45.10922" lon="2.67694">
        <ele>1758.39</ele>
        <time>2019-07-13T10:52:44Z</time>
      </trkpt>
      <trkpt lat="45.10922" lon="2.67684">
        <ele>1758.87</ele>
        <time>2019-07-13T10:52:58Z</time>
      </trkpt>
      <trkpt lat="45.10924" lon="2.67676">
        <ele>1760.79</ele>
        <time>2019-07-13T10:53:09Z</time>
      </trkpt>
      <trkpt lat="45.10924" lon="2.67675">
        <ele>1761.75</ele>
        <time>2019-07-13T10:53:19Z</time>
      </trkpt>
      <trkpt lat="45.10924" lon="2.67661">
        <ele>1763.2</ele>
        <time>2019-07-13T10:53:30Z</time>
      </trkpt>
      <trkpt lat="45.10925" lon="2.67655">
        <ele>1764.16</ele>
        <time>2019-07-13T10:53:43Z</time>
      </trkpt>
      <trkpt lat="45.10926" lon="2.67647">
        <ele>1765.12</ele>
        <time>2019-07-13T10:53:54Z</time>
      </trkpt>
      <trkpt lat="45.10927" lon="2.67642">
        <ele>1767.52</ele>
        <time>2019-07-13T10:54:07Z</time>
      </trkpt>
      <trkpt lat="45.1093" lon="2.67637">
        <ele>1768.96</ele>
        <time>2019-07-13T10:54:18Z</time>
      </trkpt>
      <trkpt lat="45.10931" lon="2.67637">
        <ele>1769.92</ele>
        <time>2019-07-13T10:54:20Z</time>
      </trkpt>
      <trkpt lat="45.10933" lon="2.67636">
        <ele>1770.89</ele>
        <time>2019-07-13T10:54:32Z</time>
      </trkpt>
      <trkpt lat="45.10933" lon="2.67633">
        <ele>1773.29</ele>
        <time>2019-07-13T10:54:46Z</time>
      </trkpt>
      <trkpt lat="45.10933" lon="2.67621">
        <ele>1773.77</ele>
        <time>2019-07-13T10:54:57Z</time>
      </trkpt>
      <trkpt lat="45.10933" lon="2.67621">
        <ele>1773.77</ele>
        <time>2019-07-13T10:55:09Z</time>
      </trkpt>
      <trkpt lat="45.10933" lon="2.67621">
        <ele>1774.25</ele>
        <time>2019-07-13T10:55:23Z</time>
      </trkpt>
      <trkpt lat="45.10933" lon="2.6762">
        <ele>1773.77</ele>
        <time>2019-07-13T10:56:14Z</time>
      </trkpt>
      <trkpt lat="45.10933" lon="2.6762">
        <ele>1774.25</ele>
        <time>2019-07-13T10:56:36Z</time>
      </trkpt>
      <trkpt lat="45.10933" lon="2.67619">
        <ele>1774.73</ele>
        <time>2019-07-13T10:57:11Z</time>
      </trkpt>
      <trkpt lat="45.10932" lon="2.67615">
        <ele>1774.73</ele>
        <time>2019-07-13T10:57:52Z</time>
      </trkpt>
      <trkpt lat="45.10932" lon="2.67615">
        <ele>1774.25</ele>
        <time>2019-07-13T10:58:57Z</time>
      </trkpt>
      <trkpt lat="45.10932" lon="2.67615">
        <ele>1774.25</ele>
        <time>2019-07-13T10:59:32Z</time>
      </trkpt>
      <trkpt lat="45.10932" lon="2.67615">
        <ele>1773.29</ele>
        <time>2019-07-13T10:59:45Z</time>
      </trkpt>
      <trkpt lat="45.10932" lon="2.67615">
        <ele>1774.73</ele>
        <time>2019-07-13T11:00:06Z</time>
      </trkpt>
      <trkpt lat="45.10931" lon="2.67613">
        <ele>1774.73</ele>
        <time>2019-07-13T11:00:20Z</time>
      </trkpt>
      <trkpt lat="45.10931" lon="2.67613">
        <ele>1775.21</ele>
        <time>2019-07-13T11:00:44Z</time>
      </trkpt>
      <trkpt lat="45.1093" lon="2.67613">
        <ele>1775.69</ele>
        <time>2019-07-13T11:01:05Z</time>
      </trkpt>
      <trkpt lat="45.10929" lon="2.67613">
        <ele>1775.21</ele>
        <time>2019-07-13T11:01:22Z</time>
      </trkpt>
      <trkpt lat="45.1093" lon="2.67611">
        <ele>1775.21</ele>
        <time>2019-07-13T11:01:53Z</time>
      </trkpt>
      <trkpt lat="45.10932" lon="2.6761">
        <ele>1775.21</ele>
        <time>2019-07-13T11:02:08Z</time>
      </trkpt>
      <trkpt lat="45.10934" lon="2.67603">
        <ele>1773.77</ele>
        <time>2019-07-13T11:02:20Z</time>
      </trkpt>
      <trkpt lat="45.10938" lon="2.67588">
        <ele>1772.81</ele>
        <time>2019-07-13T11:02:34Z</time>
      </trkpt>
      <trkpt lat="45.10938" lon="2.67587">
        <ele>1773.77</ele>
        <time>2019-07-13T11:02:35Z</time>
      </trkpt>
      <trkpt lat="45.10941" lon="2.67576">
        <ele>1772.33</ele>
        <time>2019-07-13T11:02:47Z</time>
      </trkpt>
      <trkpt lat="45.10937" lon="2.67567">
        <ele>1772.81</ele>
        <time>2019-07-13T11:02:59Z</time>
      </trkpt>
      <trkpt lat="45.10935" lon="2.67562">
        <ele>1773.29</ele>
        <time>2019-07-13T11:03:10Z</time>
      </trkpt>
      <trkpt lat="45.10934" lon="2.67559">
        <ele>1772.33</ele>
        <time>2019-07-13T11:03:23Z</time>
      </trkpt>
      <trkpt lat="45.10934" lon="2.67564">
        <ele>1772.81</ele>
        <time>2019-07-13T11:03:47Z</time>
      </trkpt>
      <trkpt lat="45.10935" lon="2.67564">
        <ele>1772.81</ele>
        <time>2019-07-13T11:03:49Z</time>
      </trkpt>
      <trkpt lat="45.10937" lon="2.67566">
        <ele>1772.81</ele>
        <time>2019-07-13T11:04:08Z</time>
      </trkpt>
      <trkpt lat="45.10935" lon="2.67559">
        <ele>1772.33</ele>
        <time>2019-07-13T11:04:38Z</time>
      </trkpt>
      <trkpt lat="45.10934" lon="2.67557">
        <ele>1771.85</ele>
        <time>2019-07-13T11:04:50Z</time>
      </trkpt>
      <trkpt lat="45.10934" lon="2.67557">
        <ele>1771.37</ele>
        <time>2019-07-13T11:05:19Z</time>
      </trkpt>
      <trkpt lat="45.10936" lon="2.67553">
        <ele>1770.89</ele>
        <time>2019-07-13T11:05:43Z</time>
      </trkpt>
      <trkpt lat="45.10939" lon="2.67553">
        <ele>1770.41</ele>
        <time>2019-07-13T11:05:54Z</time>
      </trkpt>
      <trkpt lat="45.1094" lon="2.67554">
        <ele>1769.92</ele>
        <time>2019-07-13T11:06:09Z</time>
      </trkpt>
      <trkpt lat="45.10941" lon="2.67554">
        <ele>1768.48</ele>
        <time>2019-07-13T11:06:29Z</time>
      </trkpt>
      <trkpt lat="45.1094" lon="2.67554">
        <ele>1768.48</ele>
        <time>2019-07-13T11:07:16Z</time>
      </trkpt>
      <trkpt lat="45.10942" lon="2.67554">
        <ele>1771.85</ele>
        <time>2019-07-13T11:38:07Z</time>
      </trkpt>
      <trkpt lat="45.10942" lon="2.67554">
        <ele>1772.33</ele>
        <time>2019-07-13T11:41:45Z</time>
      </trkpt>
      <trkpt lat="45.10942" lon="2.67554">
        <ele>1771.85</ele>
        <time>2019-07-13T11:42:08Z</time>
      </trkpt>
      <trkpt lat="45.10942" lon="2.67554">
        <ele>1771.85</ele>
        <time>2019-07-13T11:42:56Z</time>
      </trkpt>
      <trkpt lat="45.10941" lon="2.67554">
        <ele>1772.81</ele>
        <time>2019-07-13T11:43:25Z</time>
      </trkpt>
      <trkpt lat="45.10942" lon="2.67555">
        <ele>1772.33</ele>
        <time>2019-07-13T11:44:16Z</time>
      </trkpt>
      <trkpt lat="45.10944" lon="2.67557">
        <ele>1773.29</ele>
        <time>2019-07-13T11:44:55Z</time>
      </trkpt>
      <trkpt lat="45.10945" lon="2.67558">
        <ele>1772.81</ele>
        <time>2019-07-13T11:45:07Z</time>
      </trkpt>
      <trkpt lat="45.10945" lon="2.67558">
        <ele>1773.77</ele>
        <time>2019-07-13T11:45:40Z</time>
      </trkpt>
      <trkpt lat="45.10946" lon="2.67556">
        <ele>1772.33</ele>
        <time>2019-07-13T11:46:31Z</time>
      </trkpt>
      <trkpt lat="45.10948" lon="2.67553">
        <ele>1771.85</ele>
        <time>2019-07-13T11:46:52Z</time>
      </trkpt>
      <trkpt lat="45.1095" lon="2.67546">
        <ele>1769.44</ele>
        <time>2019-07-13T11:47:06Z</time>
      </trkpt>
      <trkpt lat="45.10951" lon="2.67536">
        <ele>1766.56</ele>
        <time>2019-07-13T11:47:17Z</time>
      </trkpt>
      <trkpt lat="45.10948" lon="2.67529">
        <ele>1764.64</ele>
        <time>2019-07-13T11:47:30Z</time>
      </trkpt>
      <trkpt lat="45.1094" lon="2.67521">
        <ele>1761.27</ele>
        <time>2019-07-13T11:47:44Z</time>
      </trkpt>
      <trkpt lat="45.10936" lon="2.67517">
        <ele>1757.91</ele>
        <time>2019-07-13T11:47:57Z</time>
      </trkpt>
      <trkpt lat="45.10936" lon="2.67512">
        <ele>1755.99</ele>
        <time>2019-07-13T11:48:09Z</time>
      </trkpt>
      <trkpt lat="45.1094" lon="2.6751">
        <ele>1754.54</ele>
        <time>2019-07-13T11:48:19Z</time>
      </trkpt>
      <trkpt lat="45.10947" lon="2.67509">
        <ele>1751.18</ele>
        <time>2019-07-13T11:48:33Z</time>
      </trkpt>
      <trkpt lat="45.10958" lon="2.67504">
        <ele>1748.29</ele>
        <time>2019-07-13T11:48:48Z</time>
      </trkpt>
      <trkpt lat="45.10965" lon="2.67501">
        <ele>1744.93</ele>
        <time>2019-07-13T11:49:02Z</time>
      </trkpt>
      <trkpt lat="45.10973" lon="2.67499">
        <ele>1743.01</ele>
        <time>2019-07-13T11:49:19Z</time>
      </trkpt>
      <trkpt lat="45.10983" lon="2.67495">
        <ele>1741.57</ele>
        <time>2019-07-13T11:49:36Z</time>
      </trkpt>
      <trkpt lat="45.10984" lon="2.67493">
        <ele>1739.64</ele>
        <time>2019-07-13T11:49:39Z</time>
      </trkpt>
      <trkpt lat="45.10985" lon="2.67492">
        <ele>1738.2</ele>
        <time>2019-07-13T11:49:42Z</time>
      </trkpt>
      <trkpt lat="45.10989" lon="2.67488">
        <ele>1735.32</ele>
        <time>2019-07-13T11:49:54Z</time>
      </trkpt>
      <trkpt lat="45.10991" lon="2.67486">
        <ele>1732.43</ele>
        <time>2019-07-13T11:50:08Z</time>
      </trkpt>
      <trkpt lat="45.10991" lon="2.67486">
        <ele>1730.51</ele>
        <time>2019-07-13T11:50:19Z</time>
      </trkpt>
      <trkpt lat="45.10991" lon="2.67486">
        <ele>1727.15</ele>
        <time>2019-07-13T11:50:33Z</time>
      </trkpt>
      <trkpt lat="45.10991" lon="2.67485">
        <ele>1725.22</ele>
        <time>2019-07-13T11:50:46Z</time>
      </trkpt>
      <trkpt lat="45.10991" lon="2.67485">
        <ele>1722.34</ele>
        <time>2019-07-13T11:50:58Z</time>
      </trkpt>
      <trkpt lat="45.10991" lon="2.67485">
        <ele>1719.46</ele>
        <time>2019-07-13T11:51:11Z</time>
      </trkpt>
      <trkpt lat="45.10997" lon="2.67479">
        <ele>1717.05</ele>
        <time>2019-07-13T11:51:23Z</time>
      </trkpt>
      <trkpt lat="45.11009" lon="2.67468">
        <ele>1715.13</ele>
        <time>2019-07-13T11:51:34Z</time>
      </trkpt>
      <trkpt lat="45.11022" lon="2.67461">
        <ele>1712.25</ele>
        <time>2019-07-13T11:51:46Z</time>
      </trkpt>
      <trkpt lat="45.11031" lon="2.67457">
        <ele>1710.32</ele>
        <time>2019-07-13T11:51:57Z</time>
      </trkpt>
      <trkpt lat="45.11036" lon="2.67453">
        <ele>1709.84</ele>
        <time>2019-07-13T11:52:01Z</time>
      </trkpt>
      <trkpt lat="45.11043" lon="2.67452">
        <ele>1707.44</ele>
        <time>2019-07-13T11:52:14Z</time>
      </trkpt>
      <trkpt lat="45.11053" lon="2.67455">
        <ele>1705.52</ele>
        <time>2019-07-13T11:52:28Z</time>
      </trkpt>
      <trkpt lat="45.11059" lon="2.67453">
        <ele>1702.63</ele>
        <time>2019-07-13T11:52:38Z</time>
      </trkpt>
      <trkpt lat="45.11061" lon="2.67441">
        <ele>1700.23</ele>
        <time>2019-07-13T11:52:52Z</time>
      </trkpt>
      <trkpt lat="45.11062" lon="2.67433">
        <ele>1696.86</ele>
        <time>2019-07-13T11:53:03Z</time>
      </trkpt>
      <trkpt lat="45.11068" lon="2.67428">
        <ele>1694.46</ele>
        <time>2019-07-13T11:53:16Z</time>
      </trkpt>
      <trkpt lat="45.11075" lon="2.67422">
        <ele>1692.54</ele>
        <time>2019-07-13T11:53:28Z</time>
      </trkpt>
      <trkpt lat="45.1108" lon="2.67415">
        <ele>1689.17</ele>
        <time>2019-07-13T11:53:41Z</time>
      </trkpt>
      <trkpt lat="45.11085" lon="2.67409">
        <ele>1685.81</ele>
        <time>2019-07-13T11:53:51Z</time>
      </trkpt>
      <trkpt lat="45.11092" lon="2.67405">
        <ele>1683.41</ele>
        <time>2019-07-13T11:54:04Z</time>
      </trkpt>
      <trkpt lat="45.11098" lon="2.67398">
        <ele>1680.52</ele>
        <time>2019-07-13T11:54:18Z</time>
      </trkpt>
      <trkpt lat="45.11102" lon="2.67392">
        <ele>1678.12</ele>
        <time>2019-07-13T11:54:30Z</time>
      </trkpt>
      <trkpt lat="45.11106" lon="2.67388">
        <ele>1675.23</ele>
        <time>2019-07-13T11:54:41Z</time>
      </trkpt>
      <trkpt lat="45.11111" lon="2.67383">
        <ele>1672.35</ele>
        <time>2019-07-13T11:54:54Z</time>
      </trkpt>
      <trkpt lat="45.11121" lon="2.67376">
        <ele>1669.47</ele>
        <time>2019-07-13T11:55:09Z</time>
      </trkpt>
      <trkpt lat="45.11126" lon="2.67374">
        <ele>1668.02</ele>
        <time>2019-07-13T11:55:16Z</time>
      </trkpt>
      <trkpt lat="45.11136" lon="2.67371">
        <ele>1664.66</ele>
        <time>2019-07-13T11:55:30Z</time>
      </trkpt>
      <trkpt lat="45.11137" lon="2.67371">
        <ele>1664.66</ele>
        <time>2019-07-13T11:55:44Z</time>
      </trkpt>
      <trkpt lat="45.11142" lon="2.67364">
        <ele>1663.22</ele>
        <time>2019-07-13T11:56:05Z</time>
      </trkpt>
      <trkpt lat="45.11144" lon="2.67364">
        <ele>1663.7</ele>
        <time>2019-07-13T11:56:20Z</time>
      </trkpt>
      <trkpt lat="45.11143" lon="2.67362">
        <ele>1665.14</ele>
        <time>2019-07-13T11:57:22Z</time>
      </trkpt>
      <trkpt lat="45.11143" lon="2.67362">
        <ele>1664.66</ele>
        <time>2019-07-13T11:58:23Z</time>
      </trkpt>
      <trkpt lat="45.11146" lon="2.67351">
        <ele>1660.81</ele>
        <time>2019-07-13T11:58:43Z</time>
      </trkpt>
      <trkpt lat="45.11146" lon="2.6735">
        <ele>1660.33</ele>
        <time>2019-07-13T11:58:44Z</time>
      </trkpt>
      <trkpt lat="45.11149" lon="2.67344">
        <ele>1658.89</ele>
        <time>2019-07-13T11:58:51Z</time>
      </trkpt>
      <trkpt lat="45.11154" lon="2.67333">
        <ele>1656.01</ele>
        <time>2019-07-13T11:59:05Z</time>
      </trkpt>
      <trkpt lat="45.11163" lon="2.67329">
        <ele>1652.64</ele>
        <time>2019-07-13T11:59:15Z</time>
      </trkpt>
      <trkpt lat="45.11177" lon="2.67327">
        <ele>1649.76</ele>
        <time>2019-07-13T11:59:30Z</time>
      </trkpt>
      <trkpt lat="45.11188" lon="2.67327">
        <ele>1646.4</ele>
        <time>2019-07-13T11:59:43Z</time>
      </trkpt>
      <trkpt lat="45.11198" lon="2.67327">
        <ele>1644.47</ele>
        <time>2019-07-13T11:59:57Z</time>
      </trkpt>
      <trkpt lat="45.11208" lon="2.67327">
        <ele>1641.59</ele>
        <time>2019-07-13T12:00:12Z</time>
      </trkpt>
      <trkpt lat="45.11214" lon="2.67318">
        <ele>1638.22</ele>
        <time>2019-07-13T12:00:25Z</time>
      </trkpt>
      <trkpt lat="45.1122" lon="2.67313">
        <ele>1636.3</ele>
        <time>2019-07-13T12:00:33Z</time>
      </trkpt>
      <trkpt lat="45.11228" lon="2.67306">
        <ele>1632.94</ele>
        <time>2019-07-13T12:00:43Z</time>
      </trkpt>
      <trkpt lat="45.11229" lon="2.67305">
        <ele>1633.42</ele>
        <time>2019-07-13T12:00:44Z</time>
      </trkpt>
      <trkpt lat="45.11232" lon="2.67304">
        <ele>1634.38</ele>
        <time>2019-07-13T12:00:47Z</time>
      </trkpt>
      <trkpt lat="45.11241" lon="2.67308">
        <ele>1632.94</ele>
        <time>2019-07-13T12:00:55Z</time>
      </trkpt>
      <trkpt lat="45.11246" lon="2.67309">
        <ele>1631.98</ele>
        <time>2019-07-13T12:01:00Z</time>
      </trkpt>
      <trkpt lat="45.11247" lon="2.67309">
        <ele>1631.98</ele>
        <time>2019-07-13T12:01:01Z</time>
      </trkpt>
      <trkpt lat="45.11257" lon="2.67293">
        <ele>1628.13</ele>
        <time>2019-07-13T12:01:15Z</time>
      </trkpt>
      <trkpt lat="45.11265" lon="2.67277">
        <ele>1625.25</ele>
        <time>2019-07-13T12:01:31Z</time>
      </trkpt>
      <trkpt lat="45.11267" lon="2.67275">
        <ele>1623.8</ele>
        <time>2019-07-13T12:01:35Z</time>
      </trkpt>
      <trkpt lat="45.11278" lon="2.67265">
        <ele>1620.92</ele>
        <time>2019-07-13T12:01:50Z</time>
      </trkpt>
      <trkpt lat="45.11284" lon="2.67257">
        <ele>1618.04</ele>
        <time>2019-07-13T12:02:01Z</time>
      </trkpt>
      <trkpt lat="45.11294" lon="2.67248">
        <ele>1615.15</ele>
        <time>2019-07-13T12:02:16Z</time>
      </trkpt>
      <trkpt lat="45.11307" lon="2.67242">
        <ele>1611.79</ele>
        <time>2019-07-13T12:02:30Z</time>
      </trkpt>
      <trkpt lat="45.11317" lon="2.67238">
        <ele>1608.9</ele>
        <time>2019-07-13T12:02:41Z</time>
      </trkpt>
      <trkpt lat="45.11323" lon="2.67232">
        <ele>1607.46</ele>
        <time>2019-07-13T12:02:49Z</time>
      </trkpt>
      <trkpt lat="45.11338" lon="2.6722">
        <ele>1605.06</ele>
        <time>2019-07-13T12:03:06Z</time>
      </trkpt>
      <trkpt lat="45.11359" lon="2.67209">
        <ele>1602.66</ele>
        <time>2019-07-13T12:03:26Z</time>
      </trkpt>
      <trkpt lat="45.11364" lon="2.67206">
        <ele>1602.17</ele>
        <time>2019-07-13T12:03:31Z</time>
      </trkpt>
      <trkpt lat="45.11376" lon="2.67196">
        <ele>1598.81</ele>
        <time>2019-07-13T12:03:47Z</time>
      </trkpt>
      <trkpt lat="45.11383" lon="2.67194">
        <ele>1595.93</ele>
        <time>2019-07-13T12:04:00Z</time>
      </trkpt>
      <trkpt lat="45.11392" lon="2.67189">
        <ele>1594</ele>
        <time>2019-07-13T12:04:14Z</time>
      </trkpt>
      <trkpt lat="45.114" lon="2.67183">
        <ele>1592.56</ele>
        <time>2019-07-13T12:04:27Z</time>
      </trkpt>
      <trkpt lat="45.11401" lon="2.67179">
        <ele>1591.6</ele>
        <time>2019-07-13T12:04:40Z</time>
      </trkpt>
      <trkpt lat="45.11398" lon="2.67179">
        <ele>1591.12</ele>
        <time>2019-07-13T12:04:51Z</time>
      </trkpt>
      <trkpt lat="45.11385" lon="2.67166">
        <ele>1592.56</ele>
        <time>2019-07-13T12:05:20Z</time>
      </trkpt>
      <trkpt lat="45.1138" lon="2.67161">
        <ele>1592.56</ele>
        <time>2019-07-13T12:05:30Z</time>
      </trkpt>
      <trkpt lat="45.11401" lon="2.67184">
        <ele>1592.56</ele>
        <time>2019-07-13T12:06:28Z</time>
      </trkpt>
      <trkpt lat="45.11406" lon="2.67176">
        <ele>1592.08</ele>
        <time>2019-07-13T12:06:36Z</time>
      </trkpt>
      <trkpt lat="45.1142" lon="2.6717">
        <ele>1592.08</ele>
        <time>2019-07-13T12:06:51Z</time>
      </trkpt>
      <trkpt lat="45.11431" lon="2.67166">
        <ele>1592.56</ele>
        <time>2019-07-13T12:07:03Z</time>
      </trkpt>
      <trkpt lat="45.11444" lon="2.67161">
        <ele>1594</ele>
        <time>2019-07-13T12:07:16Z</time>
      </trkpt>
      <trkpt lat="45.11445" lon="2.6716">
        <ele>1594</ele>
        <time>2019-07-13T12:07:17Z</time>
      </trkpt>
      <trkpt lat="45.11446" lon="2.67158">
        <ele>1594</ele>
        <time>2019-07-13T12:07:19Z</time>
      </trkpt>
      <trkpt lat="45.1146" lon="2.67155">
        <ele>1595.45</ele>
        <time>2019-07-13T12:07:33Z</time>
      </trkpt>
      <trkpt lat="45.11461" lon="2.67155">
        <ele>1595.93</ele>
        <time>2019-07-13T12:07:34Z</time>
      </trkpt>
      <trkpt lat="45.11465" lon="2.67152">
        <ele>1595.93</ele>
        <time>2019-07-13T12:07:39Z</time>
      </trkpt>
      <trkpt lat="45.11469" lon="2.67155">
        <ele>1595.45</ele>
        <time>2019-07-13T12:07:53Z</time>
      </trkpt>
      <trkpt lat="45.1147" lon="2.67153">
        <ele>1595.45</ele>
        <time>2019-07-13T12:08:38Z</time>
      </trkpt>
      <trkpt lat="45.11465" lon="2.67153">
        <ele>1594.96</ele>
        <time>2019-07-13T12:08:49Z</time>
      </trkpt>
      <trkpt lat="45.11452" lon="2.67157">
        <ele>1595.45</ele>
        <time>2019-07-13T12:09:01Z</time>
      </trkpt>
      <trkpt lat="45.11447" lon="2.67159">
        <ele>1594.48</ele>
        <time>2019-07-13T12:09:06Z</time>
      </trkpt>
      <trkpt lat="45.11431" lon="2.67165">
        <ele>1592.56</ele>
        <time>2019-07-13T12:09:20Z</time>
      </trkpt>
      <trkpt lat="45.11428" lon="2.67168">
        <ele>1591.12</ele>
        <time>2019-07-13T12:09:33Z</time>
      </trkpt>
      <trkpt lat="45.1142" lon="2.67173">
        <ele>1592.08</ele>
        <time>2019-07-13T12:09:43Z</time>
      </trkpt>
      <trkpt lat="45.11411" lon="2.67179">
        <ele>1592.56</ele>
        <time>2019-07-13T12:09:53Z</time>
      </trkpt>
      <trkpt lat="45.11404" lon="2.67179">
        <ele>1592.08</ele>
        <time>2019-07-13T12:10:07Z</time>
      </trkpt>
      <trkpt lat="45.11405" lon="2.67181">
        <ele>1591.6</ele>
        <time>2019-07-13T12:10:35Z</time>
      </trkpt>
      <trkpt lat="45.11406" lon="2.67189">
        <ele>1591.6</ele>
        <time>2019-07-13T12:10:41Z</time>
      </trkpt>
      <trkpt lat="45.11394" lon="2.67202">
        <ele>1591.12</ele>
        <time>2019-07-13T12:10:56Z</time>
      </trkpt>
      <trkpt lat="45.11394" lon="2.67211">
        <ele>1591.12</ele>
        <time>2019-07-13T12:11:03Z</time>
      </trkpt>
      <trkpt lat="45.11393" lon="2.67217">
        <ele>1591.12</ele>
        <time>2019-07-13T12:11:15Z</time>
      </trkpt>
      <trkpt lat="45.11389" lon="2.67222">
        <ele>1590.16</ele>
        <time>2019-07-13T12:11:28Z</time>
      </trkpt>
      <trkpt lat="45.11387" lon="2.67224">
        <ele>1590.16</ele>
        <time>2019-07-13T12:11:40Z</time>
      </trkpt>
      <trkpt lat="45.11386" lon="2.67224">
        <ele>1589.68</ele>
        <time>2019-07-13T12:12:06Z</time>
      </trkpt>
      <trkpt lat="45.1138" lon="2.6723">
        <ele>1589.68</ele>
        <time>2019-07-13T12:12:18Z</time>
      </trkpt>
      <trkpt lat="45.11378" lon="2.67234">
        <ele>1589.68</ele>
        <time>2019-07-13T12:12:32Z</time>
      </trkpt>
      <trkpt lat="45.11377" lon="2.67233">
        <ele>1589.2</ele>
        <time>2019-07-13T12:13:06Z</time>
      </trkpt>
      <trkpt lat="45.11377" lon="2.67234">
        <ele>1588.24</ele>
        <time>2019-07-13T12:13:22Z</time>
      </trkpt>
      <trkpt lat="45.11376" lon="2.67234">
        <ele>1588.72</ele>
        <time>2019-07-13T12:13:57Z</time>
      </trkpt>
      <trkpt lat="45.11376" lon="2.67233">
        <ele>1588.72</ele>
        <time>2019-07-13T12:14:19Z</time>
      </trkpt>
      <trkpt lat="45.11374" lon="2.67235">
        <ele>1589.2</ele>
        <time>2019-07-13T12:14:43Z</time>
      </trkpt>
      <trkpt lat="45.11373" lon="2.67236">
        <ele>1589.2</ele>
        <time>2019-07-13T12:15:07Z</time>
      </trkpt>
      <trkpt lat="45.11373" lon="2.67236">
        <ele>1589.68</ele>
        <time>2019-07-13T12:15:23Z</time>
      </trkpt>
      <trkpt lat="45.11365" lon="2.67245">
        <ele>1587.75</ele>
        <time>2019-07-13T12:15:56Z</time>
      </trkpt>
      <trkpt lat="45.11351" lon="2.67265">
        <ele>1586.31</ele>
        <time>2019-07-13T12:16:13Z</time>
      </trkpt>
      <trkpt lat="45.11339" lon="2.67284">
        <ele>1585.83</ele>
        <time>2019-07-13T12:16:28Z</time>
      </trkpt>
      <trkpt lat="45.11329" lon="2.67306">
        <ele>1582.95</ele>
        <time>2019-07-13T12:16:44Z</time>
      </trkpt>
      <trkpt lat="45.11321" lon="2.6733">
        <ele>1581.51</ele>
        <time>2019-07-13T12:17:00Z</time>
      </trkpt>
      <trkpt lat="45.1132" lon="2.67335">
        <ele>1581.51</ele>
        <time>2019-07-13T12:17:03Z</time>
      </trkpt>
      <trkpt lat="45.11317" lon="2.67341">
        <ele>1581.03</ele>
        <time>2019-07-13T12:17:08Z</time>
      </trkpt>
      <trkpt lat="45.11308" lon="2.67365">
        <ele>1578.14</ele>
        <time>2019-07-13T12:17:25Z</time>
      </trkpt>
      <trkpt lat="45.11298" lon="2.67389">
        <ele>1576.22</ele>
        <time>2019-07-13T12:17:43Z</time>
      </trkpt>
      <trkpt lat="45.11292" lon="2.67404">
        <ele>1575.26</ele>
        <time>2019-07-13T12:17:53Z</time>
      </trkpt>
      <trkpt lat="45.11289" lon="2.6741">
        <ele>1574.78</ele>
        <time>2019-07-13T12:17:58Z</time>
      </trkpt>
      <trkpt lat="45.1128" lon="2.67436">
        <ele>1572.37</ele>
        <time>2019-07-13T12:18:15Z</time>
      </trkpt>
      <trkpt lat="45.11272" lon="2.6746">
        <ele>1570.45</ele>
        <time>2019-07-13T12:18:31Z</time>
      </trkpt>
      <trkpt lat="45.11269" lon="2.67468">
        <ele>1569.49</ele>
        <time>2019-07-13T12:18:37Z</time>
      </trkpt>
      <trkpt lat="45.11266" lon="2.67474">
        <ele>1569.01</ele>
        <time>2019-07-13T12:18:50Z</time>
      </trkpt>
      <trkpt lat="45.11264" lon="2.67474">
        <ele>1569.01</ele>
        <time>2019-07-13T12:19:11Z</time>
      </trkpt>
      <trkpt lat="45.11261" lon="2.67476">
        <ele>1568.53</ele>
        <time>2019-07-13T12:19:14Z</time>
      </trkpt>
      <trkpt lat="45.11256" lon="2.67494">
        <ele>1567.09</ele>
        <time>2019-07-13T12:19:25Z</time>
      </trkpt>
      <trkpt lat="45.1125" lon="2.67519">
        <ele>1565.64</ele>
        <time>2019-07-13T12:19:40Z</time>
      </trkpt>
      <trkpt lat="45.11245" lon="2.67534">
        <ele>1564.68</ele>
        <time>2019-07-13T12:19:50Z</time>
      </trkpt>
      <trkpt lat="45.11239" lon="2.67541">
        <ele>1565.64</ele>
        <time>2019-07-13T12:19:58Z</time>
      </trkpt>
      <trkpt lat="45.11238" lon="2.67544">
        <ele>1565.64</ele>
        <time>2019-07-13T12:20:01Z</time>
      </trkpt>
      <trkpt lat="45.11236" lon="2.67549">
        <ele>1565.64</ele>
        <time>2019-07-13T12:20:05Z</time>
      </trkpt>
      <trkpt lat="45.11225" lon="2.67569">
        <ele>1565.16</ele>
        <time>2019-07-13T12:20:21Z</time>
      </trkpt>
      <trkpt lat="45.11213" lon="2.67585">
        <ele>1564.68</ele>
        <time>2019-07-13T12:20:36Z</time>
      </trkpt>
      <trkpt lat="45.11211" lon="2.67588">
        <ele>1564.2</ele>
        <time>2019-07-13T12:20:39Z</time>
      </trkpt>
      <trkpt lat="45.11208" lon="2.6759">
        <ele>1564.68</ele>
        <time>2019-07-13T12:20:43Z</time>
      </trkpt>
      <trkpt lat="45.11209" lon="2.67592">
        <ele>1564.2</ele>
        <time>2019-07-13T12:20:45Z</time>
      </trkpt>
      <trkpt lat="45.11207" lon="2.67598">
        <ele>1563.24</ele>
        <time>2019-07-13T12:20:50Z</time>
      </trkpt>
      <trkpt lat="45.11207" lon="2.67601">
        <ele>1562.76</ele>
        <time>2019-07-13T12:20:53Z</time>
      </trkpt>
      <trkpt lat="45.11206" lon="2.67605">
        <ele>1562.76</ele>
        <time>2019-07-13T12:20:56Z</time>
      </trkpt>
      <trkpt lat="45.11203" lon="2.67612">
        <ele>1561.8</ele>
        <time>2019-07-13T12:21:02Z</time>
      </trkpt>
      <trkpt lat="45.11197" lon="2.67625">
        <ele>1562.28</ele>
        <time>2019-07-13T12:21:13Z</time>
      </trkpt>
      <trkpt lat="45.11195" lon="2.67632">
        <ele>1561.32</ele>
        <time>2019-07-13T12:21:24Z</time>
      </trkpt>
      <trkpt lat="45.11195" lon="2.67635">
        <ele>1560.84</ele>
        <time>2019-07-13T12:21:28Z</time>
      </trkpt>
      <trkpt lat="45.11192" lon="2.6765">
        <ele>1558.43</ele>
        <time>2019-07-13T12:21:42Z</time>
      </trkpt>
      <trkpt lat="45.11186" lon="2.67671">
        <ele>1557.95</ele>
        <time>2019-07-13T12:21:58Z</time>
      </trkpt>
      <trkpt lat="45.11183" lon="2.67681">
        <ele>1557.95</ele>
        <time>2019-07-13T12:22:07Z</time>
      </trkpt>
      <trkpt lat="45.11182" lon="2.67694">
        <ele>1556.03</ele>
        <time>2019-07-13T12:22:18Z</time>
      </trkpt>
      <trkpt lat="45.11177" lon="2.67708">
        <ele>1556.03</ele>
        <time>2019-07-13T12:22:31Z</time>
      </trkpt>
      <trkpt lat="45.11177" lon="2.67709">
        <ele>1556.03</ele>
        <time>2019-07-13T12:22:32Z</time>
      </trkpt>
      <trkpt lat="45.11176" lon="2.67723">
        <ele>1555.55</ele>
        <time>2019-07-13T12:22:40Z</time>
      </trkpt>
      <trkpt lat="45.11174" lon="2.67736">
        <ele>1554.59</ele>
        <time>2019-07-13T12:22:52Z</time>
      </trkpt>
      <trkpt lat="45.11173" lon="2.67752">
        <ele>1554.11</ele>
        <time>2019-07-13T12:23:06Z</time>
      </trkpt>
      <trkpt lat="45.11174" lon="2.6776">
        <ele>1552.67</ele>
        <time>2019-07-13T12:23:17Z</time>
      </trkpt>
      <trkpt lat="45.11176" lon="2.67755">
        <ele>1551.22</ele>
        <time>2019-07-13T12:23:33Z</time>
      </trkpt>
      <trkpt lat="45.11179" lon="2.67745">
        <ele>1549.78</ele>
        <time>2019-07-13T12:23:46Z</time>
      </trkpt>
      <trkpt lat="45.11179" lon="2.67748">
        <ele>1549.78</ele>
        <time>2019-07-13T12:23:55Z</time>
      </trkpt>
      <trkpt lat="45.1118" lon="2.67749">
        <ele>1549.3</ele>
        <time>2019-07-13T12:24:22Z</time>
      </trkpt>
      <trkpt lat="45.1118" lon="2.67756">
        <ele>1548.82</ele>
        <time>2019-07-13T12:24:35Z</time>
      </trkpt>
      <trkpt lat="45.11185" lon="2.67763">
        <ele>1548.82</ele>
        <time>2019-07-13T12:24:46Z</time>
      </trkpt>
      <trkpt lat="45.11184" lon="2.67767">
        <ele>1548.34</ele>
        <time>2019-07-13T12:25:32Z</time>
      </trkpt>
      <trkpt lat="45.11184" lon="2.67771">
        <ele>1547.38</ele>
        <time>2019-07-13T12:26:01Z</time>
      </trkpt>
      <trkpt lat="45.11183" lon="2.67774">
        <ele>1547.86</ele>
        <time>2019-07-13T12:26:03Z</time>
      </trkpt>
      <trkpt lat="45.11184" lon="2.67793">
        <ele>1545.94</ele>
        <time>2019-07-13T12:26:15Z</time>
      </trkpt>
      <trkpt lat="45.11181" lon="2.67824">
        <ele>1543.53</ele>
        <time>2019-07-13T12:26:34Z</time>
      </trkpt>
      <trkpt lat="45.1118" lon="2.67852">
        <ele>1541.61</ele>
        <time>2019-07-13T12:26:52Z</time>
      </trkpt>
      <trkpt lat="45.1118" lon="2.67853">
        <ele>1541.13</ele>
        <time>2019-07-13T12:26:53Z</time>
      </trkpt>
      <trkpt lat="45.1118" lon="2.67876">
        <ele>1539.69</ele>
        <time>2019-07-13T12:27:08Z</time>
      </trkpt>
      <trkpt lat="45.11181" lon="2.67879">
        <ele>1539.21</ele>
        <time>2019-07-13T12:27:10Z</time>
      </trkpt>
      <trkpt lat="45.11183" lon="2.67891">
        <ele>1538.73</ele>
        <time>2019-07-13T12:27:19Z</time>
      </trkpt>
      <trkpt lat="45.11184" lon="2.67896">
        <ele>1538.25</ele>
        <time>2019-07-13T12:27:22Z</time>
      </trkpt>
      <trkpt lat="45.11187" lon="2.67905">
        <ele>1537.29</ele>
        <time>2019-07-13T12:27:29Z</time>
      </trkpt>
      <trkpt lat="45.11189" lon="2.67909">
        <ele>1536.8</ele>
        <time>2019-07-13T12:27:33Z</time>
      </trkpt>
      <trkpt lat="45.11198" lon="2.67926">
        <ele>1535.36</ele>
        <time>2019-07-13T12:27:47Z</time>
      </trkpt>
      <trkpt lat="45.11203" lon="2.67933">
        <ele>1534.88</ele>
        <time>2019-07-13T12:27:54Z</time>
      </trkpt>
      <trkpt lat="45.11214" lon="2.67951">
        <ele>1532.48</ele>
        <time>2019-07-13T12:28:09Z</time>
      </trkpt>
      <trkpt lat="45.11218" lon="2.67969">
        <ele>1532</ele>
        <time>2019-07-13T12:28:24Z</time>
      </trkpt>
      <trkpt lat="45.11217" lon="2.67972">
        <ele>1531.04</ele>
        <time>2019-07-13T12:28:30Z</time>
      </trkpt>
      <trkpt lat="45.11206" lon="2.67981">
        <ele>1531.04</ele>
        <time>2019-07-13T12:28:44Z</time>
      </trkpt>
      <trkpt lat="45.11205" lon="2.67982">
        <ele>1531.52</ele>
        <time>2019-07-13T12:28:45Z</time>
      </trkpt>
      <trkpt lat="45.11202" lon="2.67986">
        <ele>1531.04</ele>
        <time>2019-07-13T12:28:49Z</time>
      </trkpt>
      <trkpt lat="45.112" lon="2.67991">
        <ele>1532</ele>
        <time>2019-07-13T12:29:02Z</time>
      </trkpt>
      <trkpt lat="45.11197" lon="2.67996">
        <ele>1533.92</ele>
        <time>2019-07-13T12:29:12Z</time>
      </trkpt>
      <trkpt lat="45.11196" lon="2.67999">
        <ele>1534.88</ele>
        <time>2019-07-13T12:29:27Z</time>
      </trkpt>
      <trkpt lat="45.11194" lon="2.68002">
        <ele>1533.92</ele>
        <time>2019-07-13T12:29:31Z</time>
      </trkpt>
      <trkpt lat="45.11191" lon="2.68004">
        <ele>1534.88</ele>
        <time>2019-07-13T12:29:49Z</time>
      </trkpt>
      <trkpt lat="45.11189" lon="2.68004">
        <ele>1535.84</ele>
        <time>2019-07-13T12:30:03Z</time>
      </trkpt>
      <trkpt lat="45.11185" lon="2.68009">
        <ele>1537.77</ele>
        <time>2019-07-13T12:30:14Z</time>
      </trkpt>
      <trkpt lat="45.11188" lon="2.68005">
        <ele>1537.29</ele>
        <time>2019-07-13T12:30:32Z</time>
      </trkpt>
      <trkpt lat="45.11191" lon="2.68002">
        <ele>1536.32</ele>
        <time>2019-07-13T12:30:46Z</time>
      </trkpt>
      <trkpt lat="45.11197" lon="2.67992">
        <ele>1533.92</ele>
        <time>2019-07-13T12:30:59Z</time>
      </trkpt>
      <trkpt lat="45.112" lon="2.67988">
        <ele>1532.48</ele>
        <time>2019-07-13T12:31:10Z</time>
      </trkpt>
      <trkpt lat="45.11204" lon="2.67986">
        <ele>1531.52</ele>
        <time>2019-07-13T12:31:26Z</time>
      </trkpt>
      <trkpt lat="45.11204" lon="2.67986">
        <ele>1531.52</ele>
        <time>2019-07-13T12:31:40Z</time>
      </trkpt>
      <trkpt lat="45.11212" lon="2.67989">
        <ele>1530.08</ele>
        <time>2019-07-13T12:31:52Z</time>
      </trkpt>
      <trkpt lat="45.11213" lon="2.67989">
        <ele>1529.59</ele>
        <time>2019-07-13T12:31:54Z</time>
      </trkpt>
      <trkpt lat="45.11218" lon="2.67992">
        <ele>1529.11</ele>
        <time>2019-07-13T12:31:59Z</time>
      </trkpt>
      <trkpt lat="45.1122" lon="2.68004">
        <ele>1529.11</ele>
        <time>2019-07-13T12:32:12Z</time>
      </trkpt>
      <trkpt lat="45.1122" lon="2.6801">
        <ele>1528.15</ele>
        <time>2019-07-13T12:32:16Z</time>
      </trkpt>
      <trkpt lat="45.11221" lon="2.68014">
        <ele>1527.67</ele>
        <time>2019-07-13T12:32:19Z</time>
      </trkpt>
      <trkpt lat="45.1122" lon="2.68036">
        <ele>1526.23</ele>
        <time>2019-07-13T12:32:34Z</time>
      </trkpt>
      <trkpt lat="45.11213" lon="2.68052">
        <ele>1524.79</ele>
        <time>2019-07-13T12:32:47Z</time>
      </trkpt>
      <trkpt lat="45.11204" lon="2.68071">
        <ele>1522.87</ele>
        <time>2019-07-13T12:33:02Z</time>
      </trkpt>
      <trkpt lat="45.11197" lon="2.6809">
        <ele>1520.94</ele>
        <time>2019-07-13T12:33:17Z</time>
      </trkpt>
      <trkpt lat="45.11193" lon="2.68107">
        <ele>1519.98</ele>
        <time>2019-07-13T12:33:29Z</time>
      </trkpt>
      <trkpt lat="45.11195" lon="2.68116">
        <ele>1519.02</ele>
        <time>2019-07-13T12:33:35Z</time>
      </trkpt>
      <trkpt lat="45.11196" lon="2.6812">
        <ele>1519.02</ele>
        <time>2019-07-13T12:33:38Z</time>
      </trkpt>
      <trkpt lat="45.11199" lon="2.68132">
        <ele>1518.06</ele>
        <time>2019-07-13T12:33:46Z</time>
      </trkpt>
      <trkpt lat="45.11199" lon="2.6815">
        <ele>1516.62</ele>
        <time>2019-07-13T12:34:00Z</time>
      </trkpt>
      <trkpt lat="45.11197" lon="2.68163">
        <ele>1515.18</ele>
        <time>2019-07-13T12:34:09Z</time>
      </trkpt>
      <trkpt lat="45.11195" lon="2.68188">
        <ele>1513.73</ele>
        <time>2019-07-13T12:34:25Z</time>
      </trkpt>
      <trkpt lat="45.11194" lon="2.68191">
        <ele>1513.73</ele>
        <time>2019-07-13T12:34:28Z</time>
      </trkpt>
      <trkpt lat="45.11187" lon="2.68196">
        <ele>1513.73</ele>
        <time>2019-07-13T12:34:35Z</time>
      </trkpt>
      <trkpt lat="45.11178" lon="2.68199">
        <ele>1512.29</ele>
        <time>2019-07-13T12:34:43Z</time>
      </trkpt>
      <trkpt lat="45.11162" lon="2.68206">
        <ele>1510.37</ele>
        <time>2019-07-13T12:34:58Z</time>
      </trkpt>
      <trkpt lat="45.11153" lon="2.68215">
        <ele>1509.41</ele>
        <time>2019-07-13T12:35:09Z</time>
      </trkpt>
      <trkpt lat="45.11151" lon="2.68217">
        <ele>1508.93</ele>
        <time>2019-07-13T12:35:12Z</time>
      </trkpt>
      <trkpt lat="45.1115" lon="2.68233">
        <ele>1507.48</ele>
        <time>2019-07-13T12:35:24Z</time>
      </trkpt>
      <trkpt lat="45.11155" lon="2.68253">
        <ele>1506.04</ele>
        <time>2019-07-13T12:35:37Z</time>
      </trkpt>
      <trkpt lat="45.11157" lon="2.68275">
        <ele>1504.12</ele>
        <time>2019-07-13T12:35:53Z</time>
      </trkpt>
      <trkpt lat="45.11156" lon="2.68283">
        <ele>1503.64</ele>
        <time>2019-07-13T12:36:05Z</time>
      </trkpt>
      <trkpt lat="45.11154" lon="2.68297">
        <ele>1502.68</ele>
        <time>2019-07-13T12:36:14Z</time>
      </trkpt>
      <trkpt lat="45.11147" lon="2.68322">
        <ele>1500.27</ele>
        <time>2019-07-13T12:36:31Z</time>
      </trkpt>
      <trkpt lat="45.11139" lon="2.68347">
        <ele>1498.35</ele>
        <time>2019-07-13T12:36:47Z</time>
      </trkpt>
      <trkpt lat="45.11135" lon="2.68357">
        <ele>1497.87</ele>
        <time>2019-07-13T12:36:54Z</time>
      </trkpt>
      <trkpt lat="45.11123" lon="2.68372">
        <ele>1495.95</ele>
        <time>2019-07-13T12:37:09Z</time>
      </trkpt>
      <trkpt lat="45.11108" lon="2.68381">
        <ele>1494.03</ele>
        <time>2019-07-13T12:37:23Z</time>
      </trkpt>
      <trkpt lat="45.11092" lon="2.68386">
        <ele>1493.06</ele>
        <time>2019-07-13T12:37:39Z</time>
      </trkpt>
      <trkpt lat="45.11078" lon="2.68387">
        <ele>1491.14</ele>
        <time>2019-07-13T12:37:53Z</time>
      </trkpt>
      <trkpt lat="45.11065" lon="2.68381">
        <ele>1489.7</ele>
        <time>2019-07-13T12:38:06Z</time>
      </trkpt>
      <trkpt lat="45.11062" lon="2.6838">
        <ele>1489.22</ele>
        <time>2019-07-13T12:38:09Z</time>
      </trkpt>
      <trkpt lat="45.11053" lon="2.68377">
        <ele>1488.74</ele>
        <time>2019-07-13T12:38:18Z</time>
      </trkpt>
      <trkpt lat="45.11049" lon="2.68375">
        <ele>1487.78</ele>
        <time>2019-07-13T12:38:22Z</time>
      </trkpt>
      <trkpt lat="45.11046" lon="2.68373">
        <ele>1487.78</ele>
        <time>2019-07-13T12:38:25Z</time>
      </trkpt>
      <trkpt lat="45.11031" lon="2.6836">
        <ele>1485.85</ele>
        <time>2019-07-13T12:38:42Z</time>
      </trkpt>
      <trkpt lat="45.1103" lon="2.6836">
        <ele>1485.85</ele>
        <time>2019-07-13T12:38:44Z</time>
      </trkpt>
      <trkpt lat="45.11017" lon="2.6835">
        <ele>1483.93</ele>
        <time>2019-07-13T12:38:56Z</time>
      </trkpt>
      <trkpt lat="45.11002" lon="2.68337">
        <ele>1481.53</ele>
        <time>2019-07-13T12:39:11Z</time>
      </trkpt>
      <trkpt lat="45.10992" lon="2.68333">
        <ele>1480.57</ele>
        <time>2019-07-13T12:39:24Z</time>
      </trkpt>
      <trkpt lat="45.10985" lon="2.68329">
        <ele>1479.61</ele>
        <time>2019-07-13T12:39:31Z</time>
      </trkpt>
      <trkpt lat="45.1097" lon="2.68323">
        <ele>1477.68</ele>
        <time>2019-07-13T12:39:46Z</time>
      </trkpt>
      <trkpt lat="45.10958" lon="2.68319">
        <ele>1476.24</ele>
        <time>2019-07-13T12:39:57Z</time>
      </trkpt>
      <trkpt lat="45.1095" lon="2.68315">
        <ele>1475.76</ele>
        <time>2019-07-13T12:40:05Z</time>
      </trkpt>
      <trkpt lat="45.10945" lon="2.68313">
        <ele>1475.28</ele>
        <time>2019-07-13T12:40:10Z</time>
      </trkpt>
      <trkpt lat="45.10932" lon="2.68304">
        <ele>1473.84</ele>
        <time>2019-07-13T12:40:23Z</time>
      </trkpt>
      <trkpt lat="45.1092" lon="2.68295">
        <ele>1471.92</ele>
        <time>2019-07-13T12:40:37Z</time>
      </trkpt>
      <trkpt lat="45.1091" lon="2.68289">
        <ele>1471.44</ele>
        <time>2019-07-13T12:40:48Z</time>
      </trkpt>
      <trkpt lat="45.10906" lon="2.6829">
        <ele>1471.44</ele>
        <time>2019-07-13T12:40:58Z</time>
      </trkpt>
      <trkpt lat="45.10903" lon="2.68289">
        <ele>1470.95</ele>
        <time>2019-07-13T12:41:21Z</time>
      </trkpt>
      <trkpt lat="45.10902" lon="2.68288">
        <ele>1470.47</ele>
        <time>2019-07-13T12:41:33Z</time>
      </trkpt>
      <trkpt lat="45.109" lon="2.68288">
        <ele>1470.47</ele>
        <time>2019-07-13T12:41:45Z</time>
      </trkpt>
      <trkpt lat="45.10893" lon="2.68283">
        <ele>1471.44</ele>
        <time>2019-07-13T12:41:59Z</time>
      </trkpt>
      <trkpt lat="45.10888" lon="2.68285">
        <ele>1470.95</ele>
        <time>2019-07-13T12:42:06Z</time>
      </trkpt>
      <trkpt lat="45.10884" lon="2.68285">
        <ele>1470.95</ele>
        <time>2019-07-13T12:42:10Z</time>
      </trkpt>
      <trkpt lat="45.10879" lon="2.68283">
        <ele>1471.44</ele>
        <time>2019-07-13T12:42:16Z</time>
      </trkpt>
      <trkpt lat="45.10871" lon="2.6828">
        <ele>1471.92</ele>
        <time>2019-07-13T12:42:27Z</time>
      </trkpt>
      <trkpt lat="45.10864" lon="2.68275">
        <ele>1472.4</ele>
        <time>2019-07-13T12:42:38Z</time>
      </trkpt>
      <trkpt lat="45.10855" lon="2.68275">
        <ele>1470.95</ele>
        <time>2019-07-13T12:42:51Z</time>
      </trkpt>
      <trkpt lat="45.10854" lon="2.68275">
        <ele>1471.44</ele>
        <time>2019-07-13T12:42:52Z</time>
      </trkpt>
      <trkpt lat="45.10847" lon="2.68269">
        <ele>1471.92</ele>
        <time>2019-07-13T12:43:04Z</time>
      </trkpt>
      <trkpt lat="45.10843" lon="2.68268">
        <ele>1472.88</ele>
        <time>2019-07-13T12:43:09Z</time>
      </trkpt>
      <trkpt lat="45.10834" lon="2.68258">
        <ele>1472.88</ele>
        <time>2019-07-13T12:43:22Z</time>
      </trkpt>
      <trkpt lat="45.10831" lon="2.68255">
        <ele>1473.36</ele>
        <time>2019-07-13T12:43:26Z</time>
      </trkpt>
      <trkpt lat="45.10817" lon="2.68253">
        <ele>1473.36</ele>
        <time>2019-07-13T12:43:41Z</time>
      </trkpt>
      <trkpt lat="45.10806" lon="2.68255">
        <ele>1472.88</ele>
        <time>2019-07-13T12:43:54Z</time>
      </trkpt>
      <trkpt lat="45.10799" lon="2.68256">
        <ele>1473.36</ele>
        <time>2019-07-13T12:44:02Z</time>
      </trkpt>
      <trkpt lat="45.10789" lon="2.68261">
        <ele>1474.8</ele>
        <time>2019-07-13T12:44:15Z</time>
      </trkpt>
      <trkpt lat="45.10776" lon="2.68259">
        <ele>1475.76</ele>
        <time>2019-07-13T12:44:32Z</time>
      </trkpt>
      <trkpt lat="45.10768" lon="2.68254">
        <ele>1477.2</ele>
        <time>2019-07-13T12:44:43Z</time>
      </trkpt>
      <trkpt lat="45.10766" lon="2.68252">
        <ele>1477.68</ele>
        <time>2019-07-13T12:44:48Z</time>
      </trkpt>
      <trkpt lat="45.10763" lon="2.68251">
        <ele>1477.2</ele>
        <time>2019-07-13T12:44:51Z</time>
      </trkpt>
      <trkpt lat="45.10758" lon="2.68249">
        <ele>1478.65</ele>
        <time>2019-07-13T12:45:02Z</time>
      </trkpt>
      <trkpt lat="45.10755" lon="2.6825">
        <ele>1479.13</ele>
        <time>2019-07-13T12:45:06Z</time>
      </trkpt>
      <trkpt lat="45.10748" lon="2.68254">
        <ele>1480.09</ele>
        <time>2019-07-13T12:45:14Z</time>
      </trkpt>
      <trkpt lat="45.10736" lon="2.68255">
        <ele>1480.57</ele>
        <time>2019-07-13T12:45:27Z</time>
      </trkpt>
      <trkpt lat="45.10726" lon="2.68261">
        <ele>1482.97</ele>
        <time>2019-07-13T12:45:38Z</time>
      </trkpt>
      <trkpt lat="45.10722" lon="2.68263">
        <ele>1482.49</ele>
        <time>2019-07-13T12:45:44Z</time>
      </trkpt>
      <trkpt lat="45.10717" lon="2.68266">
        <ele>1483.93</ele>
        <time>2019-07-13T12:45:55Z</time>
      </trkpt>
      <trkpt lat="45.10712" lon="2.68267">
        <ele>1485.37</ele>
        <time>2019-07-13T12:46:02Z</time>
      </trkpt>
      <trkpt lat="45.10711" lon="2.68268">
        <ele>1485.37</ele>
        <time>2019-07-13T12:46:04Z</time>
      </trkpt>
      <trkpt lat="45.10703" lon="2.6827">
        <ele>1486.34</ele>
        <time>2019-07-13T12:46:15Z</time>
      </trkpt>
      <trkpt lat="45.10699" lon="2.68274">
        <ele>1488.26</ele>
        <time>2019-07-13T12:46:27Z</time>
      </trkpt>
      <trkpt lat="45.10694" lon="2.68275">
        <ele>1487.78</ele>
        <time>2019-07-13T12:46:37Z</time>
      </trkpt>
      <trkpt lat="45.10687" lon="2.68278">
        <ele>1488.26</ele>
        <time>2019-07-13T12:46:48Z</time>
      </trkpt>
      <trkpt lat="45.10681" lon="2.68282">
        <ele>1490.18</ele>
        <time>2019-07-13T12:47:00Z</time>
      </trkpt>
      <trkpt lat="45.10672" lon="2.68286">
        <ele>1491.14</ele>
        <time>2019-07-13T12:47:12Z</time>
      </trkpt>
      <trkpt lat="45.10666" lon="2.68291">
        <ele>1493.06</ele>
        <time>2019-07-13T12:47:24Z</time>
      </trkpt>
      <trkpt lat="45.10662" lon="2.68296">
        <ele>1494.51</ele>
        <time>2019-07-13T12:47:35Z</time>
      </trkpt>
      <trkpt lat="45.10657" lon="2.68298">
        <ele>1494.99</ele>
        <time>2019-07-13T12:47:44Z</time>
      </trkpt>
      <trkpt lat="45.10648" lon="2.683">
        <ele>1496.43</ele>
        <time>2019-07-13T12:47:56Z</time>
      </trkpt>
      <trkpt lat="45.10641" lon="2.68302">
        <ele>1498.35</ele>
        <time>2019-07-13T12:48:07Z</time>
      </trkpt>
      <trkpt lat="45.10635" lon="2.68306">
        <ele>1499.31</ele>
        <time>2019-07-13T12:48:18Z</time>
      </trkpt>
      <trkpt lat="45.10631" lon="2.68312">
        <ele>1501.72</ele>
        <time>2019-07-13T12:48:30Z</time>
      </trkpt>
      <trkpt lat="45.10627" lon="2.68318">
        <ele>1502.2</ele>
        <time>2019-07-13T12:48:43Z</time>
      </trkpt>
      <trkpt lat="45.10622" lon="2.68327">
        <ele>1504.12</ele>
        <time>2019-07-13T12:48:56Z</time>
      </trkpt>
      <trkpt lat="45.10619" lon="2.68337">
        <ele>1505.56</ele>
        <time>2019-07-13T12:49:08Z</time>
      </trkpt>
      <trkpt lat="45.10613" lon="2.68344">
        <ele>1507.48</ele>
        <time>2019-07-13T12:49:21Z</time>
      </trkpt>
      <trkpt lat="45.10613" lon="2.68345">
        <ele>1507.48</ele>
        <time>2019-07-13T12:49:22Z</time>
      </trkpt>
      <trkpt lat="45.10608" lon="2.68352">
        <ele>1507.97</ele>
        <time>2019-07-13T12:49:33Z</time>
      </trkpt>
      <trkpt lat="45.10603" lon="2.68355">
        <ele>1508.45</ele>
        <time>2019-07-13T12:49:41Z</time>
      </trkpt>
      <trkpt lat="45.10597" lon="2.68357">
        <ele>1509.41</ele>
        <time>2019-07-13T12:49:50Z</time>
      </trkpt>
      <trkpt lat="45.1059" lon="2.68366">
        <ele>1510.37</ele>
        <time>2019-07-13T12:50:01Z</time>
      </trkpt>
      <trkpt lat="45.10586" lon="2.68371">
        <ele>1511.33</ele>
        <time>2019-07-13T12:50:12Z</time>
      </trkpt>
      <trkpt lat="45.10583" lon="2.6838">
        <ele>1512.77</ele>
        <time>2019-07-13T12:50:24Z</time>
      </trkpt>
      <trkpt lat="45.10582" lon="2.68388">
        <ele>1510.85</ele>
        <time>2019-07-13T12:50:38Z</time>
      </trkpt>
      <trkpt lat="45.1058" lon="2.68397">
        <ele>1510.37</ele>
        <time>2019-07-13T12:50:48Z</time>
      </trkpt>
      <trkpt lat="45.10574" lon="2.68402">
        <ele>1510.85</ele>
        <time>2019-07-13T12:50:59Z</time>
      </trkpt>
      <trkpt lat="45.10569" lon="2.6841">
        <ele>1511.81</ele>
        <time>2019-07-13T12:51:09Z</time>
      </trkpt>
      <trkpt lat="45.10565" lon="2.6842">
        <ele>1512.29</ele>
        <time>2019-07-13T12:51:21Z</time>
      </trkpt>
      <trkpt lat="45.10565" lon="2.68421">
        <ele>1511.81</ele>
        <time>2019-07-13T12:51:23Z</time>
      </trkpt>
      <trkpt lat="45.10563" lon="2.68429">
        <ele>1511.33</ele>
        <time>2019-07-13T12:51:35Z</time>
      </trkpt>
      <trkpt lat="45.10563" lon="2.68432">
        <ele>1510.85</ele>
        <time>2019-07-13T12:52:33Z</time>
      </trkpt>
      <trkpt lat="45.1056" lon="2.68436">
        <ele>1510.85</ele>
        <time>2019-07-13T12:52:44Z</time>
      </trkpt>
      <trkpt lat="45.10559" lon="2.68438">
        <ele>1511.81</ele>
        <time>2019-07-13T12:53:14Z</time>
      </trkpt>
      <trkpt lat="45.10556" lon="2.6844">
        <ele>1512.29</ele>
        <time>2019-07-13T12:54:09Z</time>
      </trkpt>
      <trkpt lat="45.10551" lon="2.68443">
        <ele>1513.25</ele>
        <time>2019-07-13T12:54:22Z</time>
      </trkpt>
      <trkpt lat="45.10547" lon="2.68448">
        <ele>1513.73</ele>
        <time>2019-07-13T12:54:32Z</time>
      </trkpt>
      <trkpt lat="45.10546" lon="2.68449">
        <ele>1513.25</ele>
        <time>2019-07-13T12:54:34Z</time>
      </trkpt>
      <trkpt lat="45.10539" lon="2.68458">
        <ele>1515.18</ele>
        <time>2019-07-13T12:54:45Z</time>
      </trkpt>
      <trkpt lat="45.10535" lon="2.68467">
        <ele>1516.14</ele>
        <time>2019-07-13T12:54:58Z</time>
      </trkpt>
      <trkpt lat="45.10531" lon="2.68478">
        <ele>1516.62</ele>
        <time>2019-07-13T12:55:10Z</time>
      </trkpt>
      <trkpt lat="45.10526" lon="2.68487">
        <ele>1518.06</ele>
        <time>2019-07-13T12:55:23Z</time>
      </trkpt>
      <trkpt lat="45.10521" lon="2.68493">
        <ele>1519.02</ele>
        <time>2019-07-13T12:55:33Z</time>
      </trkpt>
      <trkpt lat="45.10519" lon="2.68503">
        <ele>1519.02</ele>
        <time>2019-07-13T12:55:44Z</time>
      </trkpt>
      <trkpt lat="45.10514" lon="2.68513">
        <ele>1519.98</ele>
        <time>2019-07-13T12:55:56Z</time>
      </trkpt>
      <trkpt lat="45.10508" lon="2.68523">
        <ele>1521.9</ele>
        <time>2019-07-13T12:56:09Z</time>
      </trkpt>
      <trkpt lat="45.10504" lon="2.68534">
        <ele>1521.9</ele>
        <time>2019-07-13T12:56:21Z</time>
      </trkpt>
      <trkpt lat="45.10502" lon="2.68542">
        <ele>1521.42</ele>
        <time>2019-07-13T12:56:31Z</time>
      </trkpt>
      <trkpt lat="45.105" lon="2.6855">
        <ele>1521.9</ele>
        <time>2019-07-13T12:56:40Z</time>
      </trkpt>
      <trkpt lat="45.10501" lon="2.68556">
        <ele>1522.39</ele>
        <time>2019-07-13T12:56:52Z</time>
      </trkpt>
      <trkpt lat="45.105" lon="2.68559">
        <ele>1522.87</ele>
        <time>2019-07-13T12:56:59Z</time>
      </trkpt>
      <trkpt lat="45.10499" lon="2.68565">
        <ele>1522.87</ele>
        <time>2019-07-13T12:57:04Z</time>
      </trkpt>
      <trkpt lat="45.105" lon="2.68575">
        <ele>1522.87</ele>
        <time>2019-07-13T12:57:14Z</time>
      </trkpt>
      <trkpt lat="45.10499" lon="2.68582">
        <ele>1522.87</ele>
        <time>2019-07-13T12:57:27Z</time>
      </trkpt>
      <trkpt lat="45.105" lon="2.68582">
        <ele>1522.87</ele>
        <time>2019-07-13T12:58:13Z</time>
      </trkpt>
      <trkpt lat="45.105" lon="2.68582">
        <ele>1523.35</ele>
        <time>2019-07-13T12:58:58Z</time>
      </trkpt>
      <trkpt lat="45.10499" lon="2.68584">
        <ele>1522.87</ele>
        <time>2019-07-13T12:59:24Z</time>
      </trkpt>
      <trkpt lat="45.10497" lon="2.68593">
        <ele>1523.35</ele>
        <time>2019-07-13T12:59:34Z</time>
      </trkpt>
      <trkpt lat="45.10493" lon="2.686">
        <ele>1526.23</ele>
        <time>2019-07-13T12:59:46Z</time>
      </trkpt>
      <trkpt lat="45.1049" lon="2.68611">
        <ele>1525.27</ele>
        <time>2019-07-13T12:59:57Z</time>
      </trkpt>
      <trkpt lat="45.10491" lon="2.68614">
        <ele>1526.23</ele>
        <time>2019-07-13T12:59:59Z</time>
      </trkpt>
      <trkpt lat="45.10486" lon="2.68626">
        <ele>1526.71</ele>
        <time>2019-07-13T13:00:11Z</time>
      </trkpt>
      <trkpt lat="45.10487" lon="2.68636">
        <ele>1527.67</ele>
        <time>2019-07-13T13:00:21Z</time>
      </trkpt>
      <trkpt lat="45.10486" lon="2.68645">
        <ele>1529.11</ele>
        <time>2019-07-13T13:00:31Z</time>
      </trkpt>
      <trkpt lat="45.10486" lon="2.68646">
        <ele>1529.59</ele>
        <time>2019-07-13T13:00:32Z</time>
      </trkpt>
      <trkpt lat="45.10483" lon="2.68652">
        <ele>1530.08</ele>
        <time>2019-07-13T13:00:38Z</time>
      </trkpt>
      <trkpt lat="45.10477" lon="2.68659">
        <ele>1531.04</ele>
        <time>2019-07-13T13:00:48Z</time>
      </trkpt>
      <trkpt lat="45.10477" lon="2.68667">
        <ele>1533.44</ele>
        <time>2019-07-13T13:00:59Z</time>
      </trkpt>
      <trkpt lat="45.10475" lon="2.68675">
        <ele>1535.36</ele>
        <time>2019-07-13T13:01:11Z</time>
      </trkpt>
      <trkpt lat="45.10475" lon="2.68683">
        <ele>1536.32</ele>
        <time>2019-07-13T13:01:21Z</time>
      </trkpt>
      <trkpt lat="45.10477" lon="2.68691">
        <ele>1539.21</ele>
        <time>2019-07-13T13:01:34Z</time>
      </trkpt>
      <trkpt lat="45.10477" lon="2.68698">
        <ele>1539.69</ele>
        <time>2019-07-13T13:01:44Z</time>
      </trkpt>
      <trkpt lat="45.10477" lon="2.68707">
        <ele>1542.57</ele>
        <time>2019-07-13T13:01:57Z</time>
      </trkpt>
      <trkpt lat="45.10475" lon="2.68713">
        <ele>1543.53</ele>
        <time>2019-07-13T13:02:06Z</time>
      </trkpt>
      <trkpt lat="45.10473" lon="2.68718">
        <ele>1544.98</ele>
        <time>2019-07-13T13:02:17Z</time>
      </trkpt>
      <trkpt lat="45.10474" lon="2.68722">
        <ele>1545.46</ele>
        <time>2019-07-13T13:02:28Z</time>
      </trkpt>
      <trkpt lat="45.1047" lon="2.6873">
        <ele>1545.94</ele>
        <time>2019-07-13T13:02:39Z</time>
      </trkpt>
      <trkpt lat="45.10469" lon="2.68736">
        <ele>1547.86</ele>
        <time>2019-07-13T13:02:50Z</time>
      </trkpt>
      <trkpt lat="45.1047" lon="2.68742">
        <ele>1549.3</ele>
        <time>2019-07-13T13:03:02Z</time>
      </trkpt>
      <trkpt lat="45.10469" lon="2.68749">
        <ele>1551.22</ele>
        <time>2019-07-13T13:03:13Z</time>
      </trkpt>
      <trkpt lat="45.10468" lon="2.68762">
        <ele>1552.67</ele>
        <time>2019-07-13T13:03:26Z</time>
      </trkpt>
      <trkpt lat="45.10467" lon="2.68771">
        <ele>1554.59</ele>
        <time>2019-07-13T13:03:38Z</time>
      </trkpt>
      <trkpt lat="45.10466" lon="2.68778">
        <ele>1555.55</ele>
        <time>2019-07-13T13:03:47Z</time>
      </trkpt>
      <trkpt lat="45.10466" lon="2.68788">
        <ele>1556.99</ele>
        <time>2019-07-13T13:03:57Z</time>
      </trkpt>
      <trkpt lat="45.10465" lon="2.68796">
        <ele>1557.95</ele>
        <time>2019-07-13T13:04:07Z</time>
      </trkpt>
      <trkpt lat="45.10467" lon="2.68799">
        <ele>1557.47</ele>
        <time>2019-07-13T13:04:13Z</time>
      </trkpt>
      <trkpt lat="45.10472" lon="2.68812">
        <ele>1557.47</ele>
        <time>2019-07-13T13:04:27Z</time>
      </trkpt>
      <trkpt lat="45.10474" lon="2.68824">
        <ele>1556.99</ele>
        <time>2019-07-13T13:04:40Z</time>
      </trkpt>
      <trkpt lat="45.10476" lon="2.68836">
        <ele>1556.03</ele>
        <time>2019-07-13T13:04:53Z</time>
      </trkpt>
      <trkpt lat="45.10476" lon="2.68843">
        <ele>1555.55</ele>
        <time>2019-07-13T13:04:59Z</time>
      </trkpt>
      <trkpt lat="45.10477" lon="2.68857">
        <ele>1556.51</ele>
        <time>2019-07-13T13:05:11Z</time>
      </trkpt>
      <trkpt lat="45.10483" lon="2.68867">
        <ele>1555.55</ele>
        <time>2019-07-13T13:05:24Z</time>
      </trkpt>
      <trkpt lat="45.10483" lon="2.68879">
        <ele>1555.55</ele>
        <time>2019-07-13T13:05:35Z</time>
      </trkpt>
      <trkpt lat="45.10486" lon="2.68889">
        <ele>1554.59</ele>
        <time>2019-07-13T13:05:48Z</time>
      </trkpt>
      <trkpt lat="45.10494" lon="2.68901">
        <ele>1554.11</ele>
        <time>2019-07-13T13:06:02Z</time>
      </trkpt>
      <trkpt lat="45.10496" lon="2.68914">
        <ele>1554.59</ele>
        <time>2019-07-13T13:06:14Z</time>
      </trkpt>
      <trkpt lat="45.10497" lon="2.68927">
        <ele>1553.15</ele>
        <time>2019-07-13T13:06:27Z</time>
      </trkpt>
      <trkpt lat="45.10501" lon="2.68938">
        <ele>1550.26</ele>
        <time>2019-07-13T13:06:43Z</time>
      </trkpt>
      <trkpt lat="45.10502" lon="2.68947">
        <ele>1548.82</ele>
        <time>2019-07-13T13:06:55Z</time>
      </trkpt>
      <trkpt lat="45.10505" lon="2.68952">
        <ele>1547.86</ele>
        <time>2019-07-13T13:07:06Z</time>
      </trkpt>
      <trkpt lat="45.10506" lon="2.68957">
        <ele>1548.34</ele>
        <time>2019-07-13T13:07:19Z</time>
      </trkpt>
      <trkpt lat="45.10508" lon="2.68964">
        <ele>1548.34</ele>
        <time>2019-07-13T13:07:33Z</time>
      </trkpt>
      <trkpt lat="45.10513" lon="2.68976">
        <ele>1548.34</ele>
        <time>2019-07-13T13:07:44Z</time>
      </trkpt>
      <trkpt lat="45.10518" lon="2.6899">
        <ele>1547.38</ele>
        <time>2019-07-13T13:07:57Z</time>
      </trkpt>
      <trkpt lat="45.10521" lon="2.69">
        <ele>1546.9</ele>
        <time>2019-07-13T13:08:06Z</time>
      </trkpt>
      <trkpt lat="45.10519" lon="2.69013">
        <ele>1547.38</ele>
        <time>2019-07-13T13:08:19Z</time>
      </trkpt>
      <trkpt lat="45.10524" lon="2.69022">
        <ele>1546.42</ele>
        <time>2019-07-13T13:08:31Z</time>
      </trkpt>
      <trkpt lat="45.10527" lon="2.69031">
        <ele>1546.42</ele>
        <time>2019-07-13T13:08:44Z</time>
      </trkpt>
      <trkpt lat="45.10527" lon="2.69039">
        <ele>1546.9</ele>
        <time>2019-07-13T13:08:55Z</time>
      </trkpt>
      <trkpt lat="45.10527" lon="2.69049">
        <ele>1546.9</ele>
        <time>2019-07-13T13:09:07Z</time>
      </trkpt>
      <trkpt lat="45.10528" lon="2.6905">
        <ele>1547.38</ele>
        <time>2019-07-13T13:09:09Z</time>
      </trkpt>
      <trkpt lat="45.1053" lon="2.69064">
        <ele>1548.34</ele>
        <time>2019-07-13T13:09:22Z</time>
      </trkpt>
      <trkpt lat="45.10532" lon="2.69073">
        <ele>1549.3</ele>
        <time>2019-07-13T13:09:32Z</time>
      </trkpt>
      <trkpt lat="45.10535" lon="2.69085">
        <ele>1548.34</ele>
        <time>2019-07-13T13:09:44Z</time>
      </trkpt>
      <trkpt lat="45.10535" lon="2.69093">
        <ele>1548.34</ele>
        <time>2019-07-13T13:09:53Z</time>
      </trkpt>
      <trkpt lat="45.10536" lon="2.69095">
        <ele>1548.34</ele>
        <time>2019-07-13T13:09:55Z</time>
      </trkpt>
      <trkpt lat="45.10537" lon="2.69103">
        <ele>1548.82</ele>
        <time>2019-07-13T13:10:03Z</time>
      </trkpt>
      <trkpt lat="45.10537" lon="2.69108">
        <ele>1549.3</ele>
        <time>2019-07-13T13:10:07Z</time>
      </trkpt>
      <trkpt lat="45.1054" lon="2.6912">
        <ele>1550.26</ele>
        <time>2019-07-13T13:10:19Z</time>
      </trkpt>
      <trkpt lat="45.10541" lon="2.69131">
        <ele>1552.67</ele>
        <time>2019-07-13T13:10:31Z</time>
      </trkpt>
      <trkpt lat="45.10542" lon="2.69141">
        <ele>1554.11</ele>
        <time>2019-07-13T13:10:43Z</time>
      </trkpt>
      <trkpt lat="45.10541" lon="2.69142">
        <ele>1554.11</ele>
        <time>2019-07-13T13:11:01Z</time>
      </trkpt>
      <trkpt lat="45.1054" lon="2.69142">
        <ele>1554.59</ele>
        <time>2019-07-13T13:11:53Z</time>
      </trkpt>
      <trkpt lat="45.1054" lon="2.69143">
        <ele>1554.59</ele>
        <time>2019-07-13T13:12:44Z</time>
      </trkpt>
      <trkpt lat="45.1054" lon="2.69143">
        <ele>1553.63</ele>
        <time>2019-07-13T13:13:04Z</time>
      </trkpt>
      <trkpt lat="45.10539" lon="2.69143">
        <ele>1553.63</ele>
        <time>2019-07-13T13:14:18Z</time>
      </trkpt>
      <trkpt lat="45.10535" lon="2.69149">
        <ele>1555.55</ele>
        <time>2019-07-13T13:14:36Z</time>
      </trkpt>
      <trkpt lat="45.10532" lon="2.69157">
        <ele>1557.47</ele>
        <time>2019-07-13T13:14:46Z</time>
      </trkpt>
      <trkpt lat="45.10527" lon="2.69161">
        <ele>1558.43</ele>
        <time>2019-07-13T13:14:56Z</time>
      </trkpt>
      <trkpt lat="45.10523" lon="2.69163">
        <ele>1559.88</ele>
        <time>2019-07-13T13:15:01Z</time>
      </trkpt>
      <trkpt lat="45.10514" lon="2.69169">
        <ele>1560.36</ele>
        <time>2019-07-13T13:15:12Z</time>
      </trkpt>
      <trkpt lat="45.10508" lon="2.69175">
        <ele>1559.4</ele>
        <time>2019-07-13T13:15:23Z</time>
      </trkpt>
      <trkpt lat="45.10496" lon="2.69182">
        <ele>1558.92</ele>
        <time>2019-07-13T13:15:37Z</time>
      </trkpt>
      <trkpt lat="45.10487" lon="2.69189">
        <ele>1559.4</ele>
        <time>2019-07-13T13:15:48Z</time>
      </trkpt>
      <trkpt lat="45.10481" lon="2.69198">
        <ele>1559.88</ele>
        <time>2019-07-13T13:15:59Z</time>
      </trkpt>
      <trkpt lat="45.10476" lon="2.69206">
        <ele>1560.36</ele>
        <time>2019-07-13T13:16:07Z</time>
      </trkpt>
      <trkpt lat="45.10471" lon="2.69219">
        <ele>1562.76</ele>
        <time>2019-07-13T13:16:21Z</time>
      </trkpt>
      <trkpt lat="45.10471" lon="2.6922">
        <ele>1562.76</ele>
        <time>2019-07-13T13:16:23Z</time>
      </trkpt>
      <trkpt lat="45.10467" lon="2.69229">
        <ele>1563.24</ele>
        <time>2019-07-13T13:16:34Z</time>
      </trkpt>
      <trkpt lat="45.10465" lon="2.6923">
        <ele>1564.2</ele>
        <time>2019-07-13T13:16:36Z</time>
      </trkpt>
      <trkpt lat="45.1046" lon="2.6924">
        <ele>1565.16</ele>
        <time>2019-07-13T13:16:48Z</time>
      </trkpt>
      <trkpt lat="45.10456" lon="2.69247">
        <ele>1566.61</ele>
        <time>2019-07-13T13:16:58Z</time>
      </trkpt>
      <trkpt lat="45.10451" lon="2.69259">
        <ele>1567.57</ele>
        <time>2019-07-13T13:17:13Z</time>
      </trkpt>
      <trkpt lat="45.10451" lon="2.6926">
        <ele>1568.05</ele>
        <time>2019-07-13T13:17:14Z</time>
      </trkpt>
      <trkpt lat="45.10445" lon="2.69266">
        <ele>1569.01</ele>
        <time>2019-07-13T13:17:24Z</time>
      </trkpt>
      <trkpt lat="45.10442" lon="2.69272">
        <ele>1570.45</ele>
        <time>2019-07-13T13:17:34Z</time>
      </trkpt>
      <trkpt lat="45.10438" lon="2.69285">
        <ele>1572.37</ele>
        <time>2019-07-13T13:17:47Z</time>
      </trkpt>
      <trkpt lat="45.10433" lon="2.69293">
        <ele>1573.82</ele>
        <time>2019-07-13T13:17:59Z</time>
      </trkpt>
      <trkpt lat="45.10432" lon="2.69305">
        <ele>1573.82</ele>
        <time>2019-07-13T13:18:11Z</time>
      </trkpt>
      <trkpt lat="45.10428" lon="2.69316">
        <ele>1575.26</ele>
        <time>2019-07-13T13:18:23Z</time>
      </trkpt>
      <trkpt lat="45.10424" lon="2.69327">
        <ele>1575.74</ele>
        <time>2019-07-13T13:18:35Z</time>
      </trkpt>
      <trkpt lat="45.10421" lon="2.69334">
        <ele>1577.18</ele>
        <time>2019-07-13T13:18:47Z</time>
      </trkpt>
      <trkpt lat="45.10417" lon="2.69342">
        <ele>1578.14</ele>
        <time>2019-07-13T13:18:57Z</time>
      </trkpt>
      <trkpt lat="45.10411" lon="2.6935">
        <ele>1579.1</ele>
        <time>2019-07-13T13:19:10Z</time>
      </trkpt>
      <trkpt lat="45.10409" lon="2.69356">
        <ele>1581.51</ele>
        <time>2019-07-13T13:19:20Z</time>
      </trkpt>
      <trkpt lat="45.10406" lon="2.69366">
        <ele>1583.43</ele>
        <time>2019-07-13T13:19:32Z</time>
      </trkpt>
      <trkpt lat="45.10402" lon="2.69374">
        <ele>1584.87</ele>
        <time>2019-07-13T13:19:45Z</time>
      </trkpt>
      <trkpt lat="45.10401" lon="2.69381">
        <ele>1585.83</ele>
        <time>2019-07-13T13:19:54Z</time>
      </trkpt>
      <trkpt lat="45.10401" lon="2.69392">
        <ele>1586.79</ele>
        <time>2019-07-13T13:20:05Z</time>
      </trkpt>
      <trkpt lat="45.104" lon="2.694">
        <ele>1587.75</ele>
        <time>2019-07-13T13:20:13Z</time>
      </trkpt>
      <trkpt lat="45.10397" lon="2.69411">
        <ele>1589.2</ele>
        <time>2019-07-13T13:20:24Z</time>
      </trkpt>
      <trkpt lat="45.10399" lon="2.69426">
        <ele>1591.12</ele>
        <time>2019-07-13T13:20:39Z</time>
      </trkpt>
      <trkpt lat="45.10398" lon="2.69434">
        <ele>1592.56</ele>
        <time>2019-07-13T13:20:49Z</time>
      </trkpt>
      <trkpt lat="45.10397" lon="2.69442">
        <ele>1594</ele>
        <time>2019-07-13T13:20:59Z</time>
      </trkpt>
      <trkpt lat="45.10399" lon="2.69452">
        <ele>1594.96</ele>
        <time>2019-07-13T13:21:10Z</time>
      </trkpt>
      <trkpt lat="45.10398" lon="2.69461">
        <ele>1595.93</ele>
        <time>2019-07-13T13:21:20Z</time>
      </trkpt>
      <trkpt lat="45.10396" lon="2.69467">
        <ele>1597.85</ele>
        <time>2019-07-13T13:21:30Z</time>
      </trkpt>
      <trkpt lat="45.10395" lon="2.69476">
        <ele>1599.29</ele>
        <time>2019-07-13T13:21:42Z</time>
      </trkpt>
      <trkpt lat="45.10392" lon="2.69484">
        <ele>1601.21</ele>
        <time>2019-07-13T13:21:54Z</time>
      </trkpt>
      <trkpt lat="45.10392" lon="2.69489">
        <ele>1602.66</ele>
        <time>2019-07-13T13:22:04Z</time>
      </trkpt>
      <trkpt lat="45.10393" lon="2.69501">
        <ele>1604.58</ele>
        <time>2019-07-13T13:22:16Z</time>
      </trkpt>
      <trkpt lat="45.10391" lon="2.69513">
        <ele>1606.98</ele>
        <time>2019-07-13T13:22:29Z</time>
      </trkpt>
      <trkpt lat="45.1039" lon="2.69513">
        <ele>1606.98</ele>
        <time>2019-07-13T13:22:30Z</time>
      </trkpt>
      <trkpt lat="45.10387" lon="2.69509">
        <ele>1608.42</ele>
        <time>2019-07-13T13:22:42Z</time>
      </trkpt>
      <trkpt lat="45.10384" lon="2.69501">
        <ele>1610.35</ele>
        <time>2019-07-13T13:22:54Z</time>
      </trkpt>
      <trkpt lat="45.1038" lon="2.69498">
        <ele>1612.27</ele>
        <time>2019-07-13T13:23:04Z</time>
      </trkpt>
      <trkpt lat="45.10374" lon="2.69495">
        <ele>1613.23</ele>
        <time>2019-07-13T13:23:15Z</time>
      </trkpt>
      <trkpt lat="45.10369" lon="2.69491">
        <ele>1615.15</ele>
        <time>2019-07-13T13:23:27Z</time>
      </trkpt>
      <trkpt lat="45.10366" lon="2.69493">
        <ele>1617.07</ele>
        <time>2019-07-13T13:23:37Z</time>
      </trkpt>
      <trkpt lat="45.10365" lon="2.69501">
        <ele>1619</ele>
        <time>2019-07-13T13:23:47Z</time>
      </trkpt>
      <trkpt lat="45.10361" lon="2.69508">
        <ele>1619.96</ele>
        <time>2019-07-13T13:23:57Z</time>
      </trkpt>
      <trkpt lat="45.10361" lon="2.69515">
        <ele>1620.92</ele>
        <time>2019-07-13T13:24:06Z</time>
      </trkpt>
      <trkpt lat="45.10359" lon="2.69517">
        <ele>1621.88</ele>
        <time>2019-07-13T13:24:10Z</time>
      </trkpt>
      <trkpt lat="45.10356" lon="2.69524">
        <ele>1624.28</ele>
        <time>2019-07-13T13:24:24Z</time>
      </trkpt>
      <trkpt lat="45.10352" lon="2.69533">
        <ele>1626.69</ele>
        <time>2019-07-13T13:24:36Z</time>
      </trkpt>
      <trkpt lat="45.10346" lon="2.6954">
        <ele>1629.09</ele>
        <time>2019-07-13T13:24:48Z</time>
      </trkpt>
      <trkpt lat="45.10343" lon="2.69545">
        <ele>1630.05</ele>
        <time>2019-07-13T13:24:59Z</time>
      </trkpt>
      <trkpt lat="45.10343" lon="2.69547">
        <ele>1630.53</ele>
        <time>2019-07-13T13:25:13Z</time>
      </trkpt>
      <trkpt lat="45.10343" lon="2.69548">
        <ele>1631.98</ele>
        <time>2019-07-13T13:25:53Z</time>
      </trkpt>
      <trkpt lat="45.10343" lon="2.69549">
        <ele>1631.49</ele>
        <time>2019-07-13T13:26:25Z</time>
      </trkpt>
      <trkpt lat="45.10343" lon="2.69549">
        <ele>1631.98</ele>
        <time>2019-07-13T13:26:32Z</time>
      </trkpt>
      <trkpt lat="45.10343" lon="2.69549">
        <ele>1631.01</ele>
        <time>2019-07-13T13:26:47Z</time>
      </trkpt>
      <trkpt lat="45.10342" lon="2.6955">
        <ele>1629.57</ele>
        <time>2019-07-13T13:27:07Z</time>
      </trkpt>
      <trkpt lat="45.10342" lon="2.69553">
        <ele>1630.05</ele>
        <time>2019-07-13T13:31:49Z</time>
      </trkpt>
      <trkpt lat="45.10342" lon="2.69553">
        <ele>1630.53</ele>
        <time>2019-07-13T13:32:22Z</time>
      </trkpt>
      <trkpt lat="45.10342" lon="2.69553">
        <ele>1630.53</ele>
        <time>2019-07-13T13:33:13Z</time>
      </trkpt>
      <trkpt lat="45.10341" lon="2.69564">
        <ele>1633.42</ele>
        <time>2019-07-13T13:33:42Z</time>
      </trkpt>
      <trkpt lat="45.10342" lon="2.69573">
        <ele>1633.9</ele>
        <time>2019-07-13T13:33:52Z</time>
      </trkpt>
      <trkpt lat="45.10343" lon="2.69579">
        <ele>1634.38</ele>
        <time>2019-07-13T13:33:57Z</time>
      </trkpt>
      <trkpt lat="45.10345" lon="2.69586">
        <ele>1634.38</ele>
        <time>2019-07-13T13:34:03Z</time>
      </trkpt>
      <trkpt lat="45.10346" lon="2.6959">
        <ele>1634.86</ele>
        <time>2019-07-13T13:34:06Z</time>
      </trkpt>
      <trkpt lat="45.10345" lon="2.69593">
        <ele>1635.82</ele>
        <time>2019-07-13T13:34:09Z</time>
      </trkpt>
      <trkpt lat="45.10346" lon="2.696">
        <ele>1634.86</ele>
        <time>2019-07-13T13:34:14Z</time>
      </trkpt>
      <trkpt lat="45.10346" lon="2.69605">
        <ele>1635.82</ele>
        <time>2019-07-13T13:34:17Z</time>
      </trkpt>
      <trkpt lat="45.10348" lon="2.69622">
        <ele>1635.82</ele>
        <time>2019-07-13T13:34:30Z</time>
      </trkpt>
      <trkpt lat="45.10348" lon="2.69624">
        <ele>1636.78</ele>
        <time>2019-07-13T13:34:32Z</time>
      </trkpt>
      <trkpt lat="45.1035" lon="2.6963">
        <ele>1637.26</ele>
        <time>2019-07-13T13:34:36Z</time>
      </trkpt>
      <trkpt lat="45.10354" lon="2.69639">
        <ele>1637.74</ele>
        <time>2019-07-13T13:34:44Z</time>
      </trkpt>
      <trkpt lat="45.10354" lon="2.69642">
        <ele>1638.22</ele>
        <time>2019-07-13T13:34:46Z</time>
      </trkpt>
      <trkpt lat="45.10357" lon="2.69656">
        <ele>1640.63</ele>
        <time>2019-07-13T13:35:00Z</time>
      </trkpt>
      <trkpt lat="45.1036" lon="2.69666">
        <ele>1641.11</ele>
        <time>2019-07-13T13:35:09Z</time>
      </trkpt>
      <trkpt lat="45.10367" lon="2.69681">
        <ele>1641.59</ele>
        <time>2019-07-13T13:35:23Z</time>
      </trkpt>
      <trkpt lat="45.1037" lon="2.69693">
        <ele>1640.63</ele>
        <time>2019-07-13T13:35:32Z</time>
      </trkpt>
      <trkpt lat="45.10371" lon="2.69695">
        <ele>1641.11</ele>
        <time>2019-07-13T13:35:34Z</time>
      </trkpt>
      <trkpt lat="45.10374" lon="2.69707">
        <ele>1642.07</ele>
        <time>2019-07-13T13:35:43Z</time>
      </trkpt>
      <trkpt lat="45.10377" lon="2.69722">
        <ele>1642.55</ele>
        <time>2019-07-13T13:35:55Z</time>
      </trkpt>
      <trkpt lat="45.10377" lon="2.69732">
        <ele>1641.11</ele>
        <time>2019-07-13T13:36:06Z</time>
      </trkpt>
      <trkpt lat="45.10377" lon="2.69732">
        <ele>1641.11</ele>
        <time>2019-07-13T13:36:22Z</time>
      </trkpt>
      <trkpt lat="45.10378" lon="2.69733">
        <ele>1640.63</ele>
        <time>2019-07-13T13:36:40Z</time>
      </trkpt>
      <trkpt lat="45.10384" lon="2.69757">
        <ele>1637.74</ele>
        <time>2019-07-13T13:36:57Z</time>
      </trkpt>
      <trkpt lat="45.10384" lon="2.69762">
        <ele>1636.78</ele>
        <time>2019-07-13T13:37:00Z</time>
      </trkpt>
      <trkpt lat="45.1039" lon="2.69781">
        <ele>1637.26</ele>
        <time>2019-07-13T13:37:14Z</time>
      </trkpt>
      <trkpt lat="45.10394" lon="2.69792">
        <ele>1638.22</ele>
        <time>2019-07-13T13:37:22Z</time>
      </trkpt>
      <trkpt lat="45.104" lon="2.69805">
        <ele>1637.74</ele>
        <time>2019-07-13T13:37:32Z</time>
      </trkpt>
      <trkpt lat="45.10403" lon="2.69815">
        <ele>1638.7</ele>
        <time>2019-07-13T13:37:40Z</time>
      </trkpt>
      <trkpt lat="45.10403" lon="2.69817">
        <ele>1639.67</ele>
        <time>2019-07-13T13:37:42Z</time>
      </trkpt>
      <trkpt lat="45.10406" lon="2.69825">
        <ele>1640.15</ele>
        <time>2019-07-13T13:37:48Z</time>
      </trkpt>
      <trkpt lat="45.10408" lon="2.69832">
        <ele>1641.59</ele>
        <time>2019-07-13T13:37:54Z</time>
      </trkpt>
      <trkpt lat="45.1041" lon="2.69837">
        <ele>1640.63</ele>
        <time>2019-07-13T13:37:59Z</time>
      </trkpt>
      <trkpt lat="45.10413" lon="2.69845">
        <ele>1641.59</ele>
        <time>2019-07-13T13:38:07Z</time>
      </trkpt>
      <trkpt lat="45.10417" lon="2.69858">
        <ele>1641.59</ele>
        <time>2019-07-13T13:38:18Z</time>
      </trkpt>
      <trkpt lat="45.10418" lon="2.69862">
        <ele>1643.51</ele>
        <time>2019-07-13T13:38:22Z</time>
      </trkpt>
      <trkpt lat="45.10421" lon="2.69878">
        <ele>1644.95</ele>
        <time>2019-07-13T13:38:35Z</time>
      </trkpt>
      <trkpt lat="45.10424" lon="2.69891">
        <ele>1645.43</ele>
        <time>2019-07-13T13:38:47Z</time>
      </trkpt>
      <trkpt lat="45.10425" lon="2.69894">
        <ele>1644.47</ele>
        <time>2019-07-13T13:38:49Z</time>
      </trkpt>
      <trkpt lat="45.10426" lon="2.69895">
        <ele>1644.95</ele>
        <time>2019-07-13T13:38:51Z</time>
      </trkpt>
      <trkpt lat="45.10432" lon="2.69904">
        <ele>1643.99</ele>
        <time>2019-07-13T13:39:01Z</time>
      </trkpt>
      <trkpt lat="45.10433" lon="2.69908">
        <ele>1644.95</ele>
        <time>2019-07-13T13:39:04Z</time>
      </trkpt>
      <trkpt lat="45.1044" lon="2.69916">
        <ele>1646.4</ele>
        <time>2019-07-13T13:39:15Z</time>
      </trkpt>
      <trkpt lat="45.10442" lon="2.69922">
        <ele>1646.4</ele>
        <time>2019-07-13T13:39:26Z</time>
      </trkpt>
      <trkpt lat="45.10444" lon="2.69922">
        <ele>1646.88</ele>
        <time>2019-07-13T13:39:31Z</time>
      </trkpt>
      <trkpt lat="45.10451" lon="2.69929">
        <ele>1647.36</ele>
        <time>2019-07-13T13:39:39Z</time>
      </trkpt>
      <trkpt lat="45.10453" lon="2.69931">
        <ele>1646.88</ele>
        <time>2019-07-13T13:39:41Z</time>
      </trkpt>
      <trkpt lat="45.10463" lon="2.6994">
        <ele>1645.91</ele>
        <time>2019-07-13T13:39:54Z</time>
      </trkpt>
      <trkpt lat="45.10464" lon="2.69941">
        <ele>1645.91</ele>
        <time>2019-07-13T13:39:56Z</time>
      </trkpt>
      <trkpt lat="45.10472" lon="2.69955">
        <ele>1643.99</ele>
        <time>2019-07-13T13:40:11Z</time>
      </trkpt>
      <trkpt lat="45.10474" lon="2.69957">
        <ele>1644.47</ele>
        <time>2019-07-13T13:40:13Z</time>
      </trkpt>
      <trkpt lat="45.10476" lon="2.69961">
        <ele>1643.51</ele>
        <time>2019-07-13T13:40:18Z</time>
      </trkpt>
      <trkpt lat="45.10484" lon="2.69968">
        <ele>1642.07</ele>
        <time>2019-07-13T13:40:28Z</time>
      </trkpt>
      <trkpt lat="45.10491" lon="2.69976">
        <ele>1641.11</ele>
        <time>2019-07-13T13:40:39Z</time>
      </trkpt>
      <trkpt lat="45.10495" lon="2.69979">
        <ele>1640.63</ele>
        <time>2019-07-13T13:40:44Z</time>
      </trkpt>
      <trkpt lat="45.10503" lon="2.69988">
        <ele>1638.7</ele>
        <time>2019-07-13T13:40:57Z</time>
      </trkpt>
      <trkpt lat="45.10509" lon="2.69999">
        <ele>1637.74</ele>
        <time>2019-07-13T13:41:10Z</time>
      </trkpt>
      <trkpt lat="45.10517" lon="2.70006">
        <ele>1635.82</ele>
        <time>2019-07-13T13:41:21Z</time>
      </trkpt>
      <trkpt lat="45.10519" lon="2.70012">
        <ele>1635.34</ele>
        <time>2019-07-13T13:41:26Z</time>
      </trkpt>
      <trkpt lat="45.10526" lon="2.70021">
        <ele>1634.86</ele>
        <time>2019-07-13T13:41:35Z</time>
      </trkpt>
      <trkpt lat="45.10535" lon="2.7004">
        <ele>1634.86</ele>
        <time>2019-07-13T13:41:51Z</time>
      </trkpt>
      <trkpt lat="45.10537" lon="2.70054">
        <ele>1633.42</ele>
        <time>2019-07-13T13:42:04Z</time>
      </trkpt>
      <trkpt lat="45.10538" lon="2.70062">
        <ele>1632.46</ele>
        <time>2019-07-13T13:42:14Z</time>
      </trkpt>
      <trkpt lat="45.10542" lon="2.70076">
        <ele>1631.01</ele>
        <time>2019-07-13T13:42:27Z</time>
      </trkpt>
      <trkpt lat="45.10542" lon="2.70076">
        <ele>1630.53</ele>
        <time>2019-07-13T13:42:28Z</time>
      </trkpt>
      <trkpt lat="45.10545" lon="2.70086">
        <ele>1629.09</ele>
        <time>2019-07-13T13:42:41Z</time>
      </trkpt>
      <trkpt lat="45.10546" lon="2.70092">
        <ele>1628.61</ele>
        <time>2019-07-13T13:42:47Z</time>
      </trkpt>
      <trkpt lat="45.10548" lon="2.70101">
        <ele>1627.17</ele>
        <time>2019-07-13T13:42:54Z</time>
      </trkpt>
      <trkpt lat="45.10552" lon="2.70119">
        <ele>1626.21</ele>
        <time>2019-07-13T13:43:09Z</time>
      </trkpt>
      <trkpt lat="45.10553" lon="2.70137">
        <ele>1625.25</ele>
        <time>2019-07-13T13:43:23Z</time>
      </trkpt>
      <trkpt lat="45.10551" lon="2.70153">
        <ele>1625.25</ele>
        <time>2019-07-13T13:43:36Z</time>
      </trkpt>
      <trkpt lat="45.10554" lon="2.70171">
        <ele>1622.84</ele>
        <time>2019-07-13T13:43:52Z</time>
      </trkpt>
      <trkpt lat="45.10554" lon="2.70191">
        <ele>1621.88</ele>
        <time>2019-07-13T13:44:07Z</time>
      </trkpt>
      <trkpt lat="45.10554" lon="2.70194">
        <ele>1621.88</ele>
        <time>2019-07-13T13:44:10Z</time>
      </trkpt>
      <trkpt lat="45.10552" lon="2.70208">
        <ele>1621.88</ele>
        <time>2019-07-13T13:44:21Z</time>
      </trkpt>
      <trkpt lat="45.1055" lon="2.70212">
        <ele>1620.44</ele>
        <time>2019-07-13T13:44:25Z</time>
      </trkpt>
      <trkpt lat="45.10549" lon="2.70221">
        <ele>1620.92</ele>
        <time>2019-07-13T13:44:31Z</time>
      </trkpt>
      <trkpt lat="45.1055" lon="2.70226">
        <ele>1620.92</ele>
        <time>2019-07-13T13:44:34Z</time>
      </trkpt>
      <trkpt lat="45.1055" lon="2.70233">
        <ele>1620.92</ele>
        <time>2019-07-13T13:44:40Z</time>
      </trkpt>
      <trkpt lat="45.10548" lon="2.70239">
        <ele>1621.4</ele>
        <time>2019-07-13T13:44:45Z</time>
      </trkpt>
      <trkpt lat="45.10548" lon="2.70244">
        <ele>1622.36</ele>
        <time>2019-07-13T13:44:48Z</time>
      </trkpt>
      <trkpt lat="45.10548" lon="2.70247">
        <ele>1622.36</ele>
        <time>2019-07-13T13:44:50Z</time>
      </trkpt>
      <trkpt lat="45.10547" lon="2.70261">
        <ele>1621.88</ele>
        <time>2019-07-13T13:45:01Z</time>
      </trkpt>
      <trkpt lat="45.10548" lon="2.70267">
        <ele>1621.88</ele>
        <time>2019-07-13T13:45:05Z</time>
      </trkpt>
      <trkpt lat="45.10549" lon="2.70269">
        <ele>1622.36</ele>
        <time>2019-07-13T13:45:08Z</time>
      </trkpt>
      <trkpt lat="45.10547" lon="2.7027">
        <ele>1622.36</ele>
        <time>2019-07-13T13:45:10Z</time>
      </trkpt>
      <trkpt lat="45.10545" lon="2.70274">
        <ele>1621.88</ele>
        <time>2019-07-13T13:45:13Z</time>
      </trkpt>
      <trkpt lat="45.10541" lon="2.7029">
        <ele>1622.84</ele>
        <time>2019-07-13T13:45:26Z</time>
      </trkpt>
      <trkpt lat="45.10541" lon="2.70291">
        <ele>1623.32</ele>
        <time>2019-07-13T13:45:27Z</time>
      </trkpt>
      <trkpt lat="45.10541" lon="2.70303">
        <ele>1624.28</ele>
        <time>2019-07-13T13:45:39Z</time>
      </trkpt>
      <trkpt lat="45.10539" lon="2.70317">
        <ele>1624.28</ele>
        <time>2019-07-13T13:45:51Z</time>
      </trkpt>
      <trkpt lat="45.10539" lon="2.7032">
        <ele>1623.8</ele>
        <time>2019-07-13T13:45:53Z</time>
      </trkpt>
      <trkpt lat="45.10539" lon="2.70326">
        <ele>1623.8</ele>
        <time>2019-07-13T13:45:57Z</time>
      </trkpt>
      <trkpt lat="45.10539" lon="2.70332">
        <ele>1623.8</ele>
        <time>2019-07-13T13:46:02Z</time>
      </trkpt>
      <trkpt lat="45.10545" lon="2.70349">
        <ele>1622.36</ele>
        <time>2019-07-13T13:46:17Z</time>
      </trkpt>
      <trkpt lat="45.10553" lon="2.7036">
        <ele>1620.44</ele>
        <time>2019-07-13T13:46:30Z</time>
      </trkpt>
      <trkpt lat="45.1056" lon="2.7037">
        <ele>1619</ele>
        <time>2019-07-13T13:46:42Z</time>
      </trkpt>
      <trkpt lat="45.10566" lon="2.70377">
        <ele>1618.04</ele>
        <time>2019-07-13T13:46:50Z</time>
      </trkpt>
      <trkpt lat="45.10572" lon="2.70391">
        <ele>1617.07</ele>
        <time>2019-07-13T13:47:03Z</time>
      </trkpt>
      <trkpt lat="45.10573" lon="2.70396">
        <ele>1616.59</ele>
        <time>2019-07-13T13:47:07Z</time>
      </trkpt>
      <trkpt lat="45.10579" lon="2.70412">
        <ele>1616.11</ele>
        <time>2019-07-13T13:47:20Z</time>
      </trkpt>
      <trkpt lat="45.10579" lon="2.70413">
        <ele>1616.11</ele>
        <time>2019-07-13T13:47:21Z</time>
      </trkpt>
      <trkpt lat="45.10581" lon="2.70421">
        <ele>1615.63</ele>
        <time>2019-07-13T13:47:27Z</time>
      </trkpt>
      <trkpt lat="45.10586" lon="2.70437">
        <ele>1614.67</ele>
        <time>2019-07-13T13:47:41Z</time>
      </trkpt>
      <trkpt lat="45.10587" lon="2.70443">
        <ele>1615.15</ele>
        <time>2019-07-13T13:47:46Z</time>
      </trkpt>
      <trkpt lat="45.10585" lon="2.70463">
        <ele>1613.71</ele>
        <time>2019-07-13T13:48:01Z</time>
      </trkpt>
      <trkpt lat="45.10586" lon="2.70472">
        <ele>1613.71</ele>
        <time>2019-07-13T13:48:08Z</time>
      </trkpt>
      <trkpt lat="45.10587" lon="2.70476">
        <ele>1613.23</ele>
        <time>2019-07-13T13:48:11Z</time>
      </trkpt>
      <trkpt lat="45.10589" lon="2.70495">
        <ele>1611.31</ele>
        <time>2019-07-13T13:48:26Z</time>
      </trkpt>
      <trkpt lat="45.10588" lon="2.70513">
        <ele>1609.38</ele>
        <time>2019-07-13T13:48:41Z</time>
      </trkpt>
      <trkpt lat="45.10587" lon="2.70525">
        <ele>1607.46</ele>
        <time>2019-07-13T13:48:54Z</time>
      </trkpt>
      <trkpt lat="45.10586" lon="2.70531">
        <ele>1606.98</ele>
        <time>2019-07-13T13:48:59Z</time>
      </trkpt>
      <trkpt lat="45.10584" lon="2.70544">
        <ele>1605.06</ele>
        <time>2019-07-13T13:49:10Z</time>
      </trkpt>
      <trkpt lat="45.10584" lon="2.70547">
        <ele>1605.54</ele>
        <time>2019-07-13T13:49:12Z</time>
      </trkpt>
      <trkpt lat="45.10584" lon="2.70551">
        <ele>1605.54</ele>
        <time>2019-07-13T13:49:16Z</time>
      </trkpt>
      <trkpt lat="45.10585" lon="2.70554">
        <ele>1605.06</ele>
        <time>2019-07-13T13:49:18Z</time>
      </trkpt>
      <trkpt lat="45.10587" lon="2.70576">
        <ele>1605.06</ele>
        <time>2019-07-13T13:49:33Z</time>
      </trkpt>
      <trkpt lat="45.10587" lon="2.7058">
        <ele>1604.58</ele>
        <time>2019-07-13T13:49:38Z</time>
      </trkpt>
      <trkpt lat="45.10587" lon="2.70586">
        <ele>1603.62</ele>
        <time>2019-07-13T13:49:45Z</time>
      </trkpt>
      <trkpt lat="45.10589" lon="2.70589">
        <ele>1602.66</ele>
        <time>2019-07-13T13:49:49Z</time>
      </trkpt>
      <trkpt lat="45.10597" lon="2.70595">
        <ele>1600.73</ele>
        <time>2019-07-13T13:50:01Z</time>
      </trkpt>
      <trkpt lat="45.10604" lon="2.70604">
        <ele>1599.29</ele>
        <time>2019-07-13T13:50:12Z</time>
      </trkpt>
      <trkpt lat="45.10611" lon="2.70618">
        <ele>1600.25</ele>
        <time>2019-07-13T13:50:27Z</time>
      </trkpt>
      <trkpt lat="45.10611" lon="2.70621">
        <ele>1599.77</ele>
        <time>2019-07-13T13:50:30Z</time>
      </trkpt>
      <trkpt lat="45.10611" lon="2.70625">
        <ele>1599.77</ele>
        <time>2019-07-13T13:50:33Z</time>
      </trkpt>
      <trkpt lat="45.10616" lon="2.70633">
        <ele>1599.29</ele>
        <time>2019-07-13T13:50:42Z</time>
      </trkpt>
      <trkpt lat="45.10623" lon="2.7064">
        <ele>1598.33</ele>
        <time>2019-07-13T13:50:51Z</time>
      </trkpt>
      <trkpt lat="45.10636" lon="2.70647">
        <ele>1597.37</ele>
        <time>2019-07-13T13:51:05Z</time>
      </trkpt>
      <trkpt lat="45.10638" lon="2.70649">
        <ele>1596.89</ele>
        <time>2019-07-13T13:51:07Z</time>
      </trkpt>
      <trkpt lat="45.10643" lon="2.70656">
        <ele>1596.89</ele>
        <time>2019-07-13T13:51:13Z</time>
      </trkpt>
      <trkpt lat="45.10644" lon="2.70659">
        <ele>1596.89</ele>
        <time>2019-07-13T13:51:15Z</time>
      </trkpt>
      <trkpt lat="45.10649" lon="2.70661">
        <ele>1596.41</ele>
        <time>2019-07-13T13:51:19Z</time>
      </trkpt>
      <trkpt lat="45.10652" lon="2.70664">
        <ele>1596.41</ele>
        <time>2019-07-13T13:51:23Z</time>
      </trkpt>
      <trkpt lat="45.1066" lon="2.70677">
        <ele>1595.45</ele>
        <time>2019-07-13T13:51:37Z</time>
      </trkpt>
      <trkpt lat="45.10661" lon="2.70677">
        <ele>1594.96</ele>
        <time>2019-07-13T13:51:38Z</time>
      </trkpt>
      <trkpt lat="45.10667" lon="2.7068">
        <ele>1595.45</ele>
        <time>2019-07-13T13:51:44Z</time>
      </trkpt>
      <trkpt lat="45.10672" lon="2.70689">
        <ele>1594.96</ele>
        <time>2019-07-13T13:51:51Z</time>
      </trkpt>
      <trkpt lat="45.10674" lon="2.70693">
        <ele>1594.96</ele>
        <time>2019-07-13T13:51:55Z</time>
      </trkpt>
      <trkpt lat="45.10678" lon="2.70704">
        <ele>1594</ele>
        <time>2019-07-13T13:52:04Z</time>
      </trkpt>
      <trkpt lat="45.1068" lon="2.70708">
        <ele>1594</ele>
        <time>2019-07-13T13:52:07Z</time>
      </trkpt>
      <trkpt lat="45.10683" lon="2.70716">
        <ele>1593.04</ele>
        <time>2019-07-13T13:52:14Z</time>
      </trkpt>
      <trkpt lat="45.10685" lon="2.70734">
        <ele>1591.6</ele>
        <time>2019-07-13T13:52:29Z</time>
      </trkpt>
      <trkpt lat="45.10686" lon="2.70742">
        <ele>1592.08</ele>
        <time>2019-07-13T13:52:37Z</time>
      </trkpt>
      <trkpt lat="45.10687" lon="2.70746">
        <ele>1593.04</ele>
        <time>2019-07-13T13:52:40Z</time>
      </trkpt>
      <trkpt lat="45.10689" lon="2.70766">
        <ele>1593.52</ele>
        <time>2019-07-13T13:52:55Z</time>
      </trkpt>
      <trkpt lat="45.10692" lon="2.70774">
        <ele>1593.52</ele>
        <time>2019-07-13T13:53:01Z</time>
      </trkpt>
      <trkpt lat="45.10694" lon="2.70792">
        <ele>1594</ele>
        <time>2019-07-13T13:53:15Z</time>
      </trkpt>
      <trkpt lat="45.10695" lon="2.70799">
        <ele>1594</ele>
        <time>2019-07-13T13:53:20Z</time>
      </trkpt>
      <trkpt lat="45.10688" lon="2.70817">
        <ele>1594</ele>
        <time>2019-07-13T13:53:33Z</time>
      </trkpt>
      <trkpt lat="45.10693" lon="2.70832">
        <ele>1594.96</ele>
        <time>2019-07-13T13:53:46Z</time>
      </trkpt>
      <trkpt lat="45.10693" lon="2.70835">
        <ele>1594.96</ele>
        <time>2019-07-13T13:53:48Z</time>
      </trkpt>
      <trkpt lat="45.10694" lon="2.70841">
        <ele>1594.96</ele>
        <time>2019-07-13T13:53:53Z</time>
      </trkpt>
      <trkpt lat="45.10697" lon="2.70857">
        <ele>1594.48</ele>
        <time>2019-07-13T13:54:07Z</time>
      </trkpt>
      <trkpt lat="45.10697" lon="2.70858">
        <ele>1594.48</ele>
        <time>2019-07-13T13:54:08Z</time>
      </trkpt>
      <trkpt lat="45.10696" lon="2.7086">
        <ele>1594</ele>
        <time>2019-07-13T13:54:10Z</time>
      </trkpt>
      <trkpt lat="45.10696" lon="2.70869">
        <ele>1593.52</ele>
        <time>2019-07-13T13:54:16Z</time>
      </trkpt>
      <trkpt lat="45.10693" lon="2.70876">
        <ele>1594</ele>
        <time>2019-07-13T13:54:23Z</time>
      </trkpt>
      <trkpt lat="45.10687" lon="2.70894">
        <ele>1592.08</ele>
        <time>2019-07-13T13:54:38Z</time>
      </trkpt>
      <trkpt lat="45.10683" lon="2.70905">
        <ele>1592.08</ele>
        <time>2019-07-13T13:54:47Z</time>
      </trkpt>
      <trkpt lat="45.10674" lon="2.70924">
        <ele>1592.56</ele>
        <time>2019-07-13T13:55:04Z</time>
      </trkpt>
      <trkpt lat="45.1067" lon="2.70938">
        <ele>1590.64</ele>
        <time>2019-07-13T13:55:19Z</time>
      </trkpt>
      <trkpt lat="45.1067" lon="2.70939">
        <ele>1590.16</ele>
        <time>2019-07-13T13:55:20Z</time>
      </trkpt>
      <trkpt lat="45.10675" lon="2.7095">
        <ele>1590.16</ele>
        <time>2019-07-13T13:55:33Z</time>
      </trkpt>
      <trkpt lat="45.10681" lon="2.70957">
        <ele>1591.6</ele>
        <time>2019-07-13T13:55:44Z</time>
      </trkpt>
      <trkpt lat="45.10686" lon="2.70967">
        <ele>1592.08</ele>
        <time>2019-07-13T13:55:55Z</time>
      </trkpt>
      <trkpt lat="45.10686" lon="2.70976">
        <ele>1591.6</ele>
        <time>2019-07-13T13:56:05Z</time>
      </trkpt>
      <trkpt lat="45.1069" lon="2.70989">
        <ele>1591.12</ele>
        <time>2019-07-13T13:56:17Z</time>
      </trkpt>
      <trkpt lat="45.1069" lon="2.71001">
        <ele>1589.68</ele>
        <time>2019-07-13T13:56:29Z</time>
      </trkpt>
      <trkpt lat="45.1069" lon="2.71006">
        <ele>1588.72</ele>
        <time>2019-07-13T13:56:34Z</time>
      </trkpt>
      <trkpt lat="45.10688" lon="2.71015">
        <ele>1587.75</ele>
        <time>2019-07-13T13:56:47Z</time>
      </trkpt>
      <trkpt lat="45.10687" lon="2.71026">
        <ele>1588.24</ele>
        <time>2019-07-13T13:56:59Z</time>
      </trkpt>
      <trkpt lat="45.10685" lon="2.71034">
        <ele>1587.75</ele>
        <time>2019-07-13T13:57:12Z</time>
      </trkpt>
      <trkpt lat="45.10684" lon="2.71037">
        <ele>1587.75</ele>
        <time>2019-07-13T13:57:15Z</time>
      </trkpt>
      <trkpt lat="45.10681" lon="2.7105">
        <ele>1586.79</ele>
        <time>2019-07-13T13:57:29Z</time>
      </trkpt>
      <trkpt lat="45.10677" lon="2.7106">
        <ele>1586.79</ele>
        <time>2019-07-13T13:57:38Z</time>
      </trkpt>
      <trkpt lat="45.10674" lon="2.71064">
        <ele>1585.35</ele>
        <time>2019-07-13T13:57:43Z</time>
      </trkpt>
      <trkpt lat="45.10673" lon="2.71067">
        <ele>1585.35</ele>
        <time>2019-07-13T13:57:45Z</time>
      </trkpt>
      <trkpt lat="45.10662" lon="2.71076">
        <ele>1584.87</ele>
        <time>2019-07-13T13:57:59Z</time>
      </trkpt>
      <trkpt lat="45.10659" lon="2.71079">
        <ele>1584.39</ele>
        <time>2019-07-13T13:58:03Z</time>
      </trkpt>
      <trkpt lat="45.10652" lon="2.71086">
        <ele>1583.43</ele>
        <time>2019-07-13T13:58:11Z</time>
      </trkpt>
      <trkpt lat="45.10651" lon="2.7109">
        <ele>1583.91</ele>
        <time>2019-07-13T13:58:14Z</time>
      </trkpt>
      <trkpt lat="45.10642" lon="2.71101">
        <ele>1583.43</ele>
        <time>2019-07-13T13:58:25Z</time>
      </trkpt>
      <trkpt lat="45.10633" lon="2.7111">
        <ele>1582.47</ele>
        <time>2019-07-13T13:58:36Z</time>
      </trkpt>
      <trkpt lat="45.10618" lon="2.71117">
        <ele>1581.03</ele>
        <time>2019-07-13T13:58:52Z</time>
      </trkpt>
      <trkpt lat="45.10612" lon="2.71122">
        <ele>1581.51</ele>
        <time>2019-07-13T13:58:59Z</time>
      </trkpt>
      <trkpt lat="45.10604" lon="2.71127">
        <ele>1580.54</ele>
        <time>2019-07-13T13:59:07Z</time>
      </trkpt>
      <trkpt lat="45.10602" lon="2.71132">
        <ele>1581.51</ele>
        <time>2019-07-13T13:59:12Z</time>
      </trkpt>
      <trkpt lat="45.10598" lon="2.71136">
        <ele>1581.03</ele>
        <time>2019-07-13T13:59:17Z</time>
      </trkpt>
      <trkpt lat="45.10589" lon="2.7115">
        <ele>1581.03</ele>
        <time>2019-07-13T13:59:31Z</time>
      </trkpt>
      <trkpt lat="45.10587" lon="2.71155">
        <ele>1580.06</ele>
        <time>2019-07-13T13:59:36Z</time>
      </trkpt>
      <trkpt lat="45.10586" lon="2.71162">
        <ele>1580.06</ele>
        <time>2019-07-13T13:59:41Z</time>
      </trkpt>
      <trkpt lat="45.10584" lon="2.71175">
        <ele>1579.58</ele>
        <time>2019-07-13T13:59:51Z</time>
      </trkpt>
      <trkpt lat="45.10582" lon="2.71177">
        <ele>1578.62</ele>
        <time>2019-07-13T13:59:54Z</time>
      </trkpt>
      <trkpt lat="45.10579" lon="2.71188">
        <ele>1576.7</ele>
        <time>2019-07-13T14:00:05Z</time>
      </trkpt>
      <trkpt lat="45.10578" lon="2.7119">
        <ele>1575.74</ele>
        <time>2019-07-13T14:00:07Z</time>
      </trkpt>
      <trkpt lat="45.10572" lon="2.71198">
        <ele>1574.3</ele>
        <time>2019-07-13T14:00:17Z</time>
      </trkpt>
      <trkpt lat="45.10564" lon="2.7121">
        <ele>1572.85</ele>
        <time>2019-07-13T14:00:30Z</time>
      </trkpt>
      <trkpt lat="45.10554" lon="2.71212">
        <ele>1572.37</ele>
        <time>2019-07-13T14:00:41Z</time>
      </trkpt>
      <trkpt lat="45.1055" lon="2.71215">
        <ele>1570.93</ele>
        <time>2019-07-13T14:00:46Z</time>
      </trkpt>
      <trkpt lat="45.10543" lon="2.71233">
        <ele>1569.49</ele>
        <time>2019-07-13T14:01:03Z</time>
      </trkpt>
      <trkpt lat="45.1054" lon="2.7124">
        <ele>1569.01</ele>
        <time>2019-07-13T14:01:09Z</time>
      </trkpt>
      <trkpt lat="45.10538" lon="2.71247">
        <ele>1568.53</ele>
        <time>2019-07-13T14:01:14Z</time>
      </trkpt>
      <trkpt lat="45.10537" lon="2.71253">
        <ele>1568.53</ele>
        <time>2019-07-13T14:01:19Z</time>
      </trkpt>
      <trkpt lat="45.10528" lon="2.71268">
        <ele>1566.61</ele>
        <time>2019-07-13T14:01:35Z</time>
      </trkpt>
      <trkpt lat="45.10528" lon="2.7127">
        <ele>1566.61</ele>
        <time>2019-07-13T14:01:37Z</time>
      </trkpt>
      <trkpt lat="45.10526" lon="2.71276">
        <ele>1565.16</ele>
        <time>2019-07-13T14:01:42Z</time>
      </trkpt>
      <trkpt lat="45.10514" lon="2.7129">
        <ele>1563.24</ele>
        <time>2019-07-13T14:01:57Z</time>
      </trkpt>
      <trkpt lat="45.10508" lon="2.71301">
        <ele>1561.32</ele>
        <time>2019-07-13T14:02:09Z</time>
      </trkpt>
      <trkpt lat="45.10507" lon="2.71303">
        <ele>1560.36</ele>
        <time>2019-07-13T14:02:11Z</time>
      </trkpt>
      <trkpt lat="45.10501" lon="2.71312">
        <ele>1558.43</ele>
        <time>2019-07-13T14:02:23Z</time>
      </trkpt>
      <trkpt lat="45.10485" lon="2.71319">
        <ele>1557.95</ele>
        <time>2019-07-13T14:02:38Z</time>
      </trkpt>
      <trkpt lat="45.10477" lon="2.71323">
        <ele>1557.95</ele>
        <time>2019-07-13T14:02:47Z</time>
      </trkpt>
      <trkpt lat="45.10475" lon="2.71325">
        <ele>1557.47</ele>
        <time>2019-07-13T14:02:49Z</time>
      </trkpt>
      <trkpt lat="45.10469" lon="2.71325">
        <ele>1556.99</ele>
        <time>2019-07-13T14:02:54Z</time>
      </trkpt>
      <trkpt lat="45.10455" lon="2.7133">
        <ele>1556.51</ele>
        <time>2019-07-13T14:03:08Z</time>
      </trkpt>
      <trkpt lat="45.10445" lon="2.71333">
        <ele>1554.59</ele>
        <time>2019-07-13T14:03:20Z</time>
      </trkpt>
      <trkpt lat="45.10441" lon="2.7134">
        <ele>1553.15</ele>
        <time>2019-07-13T14:03:28Z</time>
      </trkpt>
      <trkpt lat="45.10441" lon="2.71344">
        <ele>1553.15</ele>
        <time>2019-07-13T14:03:31Z</time>
      </trkpt>
      <trkpt lat="45.1044" lon="2.71347">
        <ele>1552.67</ele>
        <time>2019-07-13T14:03:33Z</time>
      </trkpt>
      <trkpt lat="45.10439" lon="2.71349">
        <ele>1553.15</ele>
        <time>2019-07-13T14:03:35Z</time>
      </trkpt>
      <trkpt lat="45.10437" lon="2.71368">
        <ele>1552.19</ele>
        <time>2019-07-13T14:03:50Z</time>
      </trkpt>
      <trkpt lat="45.10436" lon="2.71386">
        <ele>1552.67</ele>
        <time>2019-07-13T14:04:04Z</time>
      </trkpt>
      <trkpt lat="45.10437" lon="2.71396">
        <ele>1551.71</ele>
        <time>2019-07-13T14:04:11Z</time>
      </trkpt>
      <trkpt lat="45.10438" lon="2.71408">
        <ele>1552.67</ele>
        <time>2019-07-13T14:04:19Z</time>
      </trkpt>
      <trkpt lat="45.10437" lon="2.71425">
        <ele>1550.74</ele>
        <time>2019-07-13T14:04:33Z</time>
      </trkpt>
      <trkpt lat="45.10437" lon="2.71428">
        <ele>1550.26</ele>
        <time>2019-07-13T14:04:49Z</time>
      </trkpt>
      <trkpt lat="45.10442" lon="2.71438">
        <ele>1549.3</ele>
        <time>2019-07-13T14:05:02Z</time>
      </trkpt>
      <trkpt lat="45.10443" lon="2.71443">
        <ele>1548.82</ele>
        <time>2019-07-13T14:05:07Z</time>
      </trkpt>
      <trkpt lat="45.10443" lon="2.71448">
        <ele>1546.9</ele>
        <time>2019-07-13T14:05:12Z</time>
      </trkpt>
      <trkpt lat="45.10442" lon="2.71455">
        <ele>1545.94</ele>
        <time>2019-07-13T14:05:18Z</time>
      </trkpt>
      <trkpt lat="45.10439" lon="2.71475">
        <ele>1544.5</ele>
        <time>2019-07-13T14:05:33Z</time>
      </trkpt>
      <trkpt lat="45.10435" lon="2.71488">
        <ele>1543.53</ele>
        <time>2019-07-13T14:05:43Z</time>
      </trkpt>
      <trkpt lat="45.10433" lon="2.71498">
        <ele>1543.05</ele>
        <time>2019-07-13T14:05:50Z</time>
      </trkpt>
      <trkpt lat="45.10433" lon="2.71501">
        <ele>1542.57</ele>
        <time>2019-07-13T14:05:52Z</time>
      </trkpt>
      <trkpt lat="45.1043" lon="2.71507">
        <ele>1541.61</ele>
        <time>2019-07-13T14:05:56Z</time>
      </trkpt>
      <trkpt lat="45.10428" lon="2.71517">
        <ele>1542.09</ele>
        <time>2019-07-13T14:06:03Z</time>
      </trkpt>
      <trkpt lat="45.10422" lon="2.71538">
        <ele>1543.53</ele>
        <time>2019-07-13T14:06:17Z</time>
      </trkpt>
      <trkpt lat="45.10418" lon="2.71547">
        <ele>1542.09</ele>
        <time>2019-07-13T14:06:24Z</time>
      </trkpt>
      <trkpt lat="45.10414" lon="2.71552">
        <ele>1541.13</ele>
        <time>2019-07-13T14:06:29Z</time>
      </trkpt>
      <trkpt lat="45.10413" lon="2.71556">
        <ele>1541.13</ele>
        <time>2019-07-13T14:06:32Z</time>
      </trkpt>
      <trkpt lat="45.10407" lon="2.71575">
        <ele>1539.69</ele>
        <time>2019-07-13T14:06:47Z</time>
      </trkpt>
      <trkpt lat="45.10403" lon="2.71582">
        <ele>1538.73</ele>
        <time>2019-07-13T14:06:52Z</time>
      </trkpt>
      <trkpt lat="45.10398" lon="2.71592">
        <ele>1538.73</ele>
        <time>2019-07-13T14:07:00Z</time>
      </trkpt>
      <trkpt lat="45.10394" lon="2.71599">
        <ele>1539.21</ele>
        <time>2019-07-13T14:07:05Z</time>
      </trkpt>
      <trkpt lat="45.10388" lon="2.71605">
        <ele>1539.21</ele>
        <time>2019-07-13T14:07:11Z</time>
      </trkpt>
      <trkpt lat="45.10377" lon="2.7161">
        <ele>1540.65</ele>
        <time>2019-07-13T14:07:22Z</time>
      </trkpt>
      <trkpt lat="45.10366" lon="2.71614">
        <ele>1541.13</ele>
        <time>2019-07-13T14:07:32Z</time>
      </trkpt>
      <trkpt lat="45.10349" lon="2.71621">
        <ele>1542.09</ele>
        <time>2019-07-13T14:07:48Z</time>
      </trkpt>
      <trkpt lat="45.10347" lon="2.71622">
        <ele>1542.09</ele>
        <time>2019-07-13T14:07:50Z</time>
      </trkpt>
      <trkpt lat="45.10338" lon="2.71626">
        <ele>1541.13</ele>
        <time>2019-07-13T14:08:00Z</time>
      </trkpt>
      <trkpt lat="45.10328" lon="2.7163">
        <ele>1537.77</ele>
        <time>2019-07-13T14:08:13Z</time>
      </trkpt>
      <trkpt lat="45.10323" lon="2.71634">
        <ele>1535.84</ele>
        <time>2019-07-13T14:08:27Z</time>
      </trkpt>
      <trkpt lat="45.10315" lon="2.71639">
        <ele>1533.92</ele>
        <time>2019-07-13T14:08:40Z</time>
      </trkpt>
      <trkpt lat="45.10311" lon="2.71642">
        <ele>1531.52</ele>
        <time>2019-07-13T14:08:48Z</time>
      </trkpt>
      <trkpt lat="45.10306" lon="2.71648">
        <ele>1530.56</ele>
        <time>2019-07-13T14:09:04Z</time>
      </trkpt>
      <trkpt lat="45.10306" lon="2.71645">
        <ele>1531.52</ele>
        <time>2019-07-13T14:10:09Z</time>
      </trkpt>
      <trkpt lat="45.10306" lon="2.71641">
        <ele>1531.52</ele>
        <time>2019-07-13T14:10:16Z</time>
      </trkpt>
      <trkpt lat="45.10303" lon="2.71625">
        <ele>1529.11</ele>
        <time>2019-07-13T14:10:32Z</time>
      </trkpt>
      <trkpt lat="45.10303" lon="2.7163">
        <ele>1530.08</ele>
        <time>2019-07-13T14:11:30Z</time>
      </trkpt>
      <trkpt lat="45.10304" lon="2.71632">
        <ele>1529.59</ele>
        <time>2019-07-13T14:11:32Z</time>
      </trkpt>
      <trkpt lat="45.10305" lon="2.71635">
        <ele>1531.04</ele>
        <time>2019-07-13T14:11:35Z</time>
      </trkpt>
      <trkpt lat="45.10306" lon="2.71645">
        <ele>1531.04</ele>
        <time>2019-07-13T14:11:48Z</time>
      </trkpt>
      <trkpt lat="45.10306" lon="2.71646">
        <ele>1532</ele>
        <time>2019-07-13T14:11:52Z</time>
      </trkpt>
      <trkpt lat="45.10306" lon="2.71646">
        <ele>1531.52</ele>
        <time>2019-07-13T14:12:36Z</time>
      </trkpt>
      <trkpt lat="45.10307" lon="2.71646">
        <ele>1528.15</ele>
        <time>2019-07-13T14:13:21Z</time>
      </trkpt>
      <trkpt lat="45.10307" lon="2.71646">
        <ele>1531.52</ele>
        <time>2019-07-13T14:13:27Z</time>
      </trkpt>
      <trkpt lat="45.10305" lon="2.71647">
        <ele>1532</ele>
        <time>2019-07-13T14:13:50Z</time>
      </trkpt>
      <trkpt lat="45.10298" lon="2.71651">
        <ele>1532.48</ele>
        <time>2019-07-13T14:14:01Z</time>
      </trkpt>
      <trkpt lat="45.10288" lon="2.71651">
        <ele>1533.92</ele>
        <time>2019-07-13T14:14:13Z</time>
      </trkpt>
      <trkpt lat="45.10286" lon="2.7165">
        <ele>1533.92</ele>
        <time>2019-07-13T14:14:15Z</time>
      </trkpt>
      <trkpt lat="45.10279" lon="2.71648">
        <ele>1533.92</ele>
        <time>2019-07-13T14:14:22Z</time>
      </trkpt>
      <trkpt lat="45.10272" lon="2.71646">
        <ele>1534.4</ele>
        <time>2019-07-13T14:14:29Z</time>
      </trkpt>
      <trkpt lat="45.10259" lon="2.71644">
        <ele>1534.4</ele>
        <time>2019-07-13T14:14:42Z</time>
      </trkpt>
      <trkpt lat="45.10244" lon="2.7164">
        <ele>1533.92</ele>
        <time>2019-07-13T14:14:56Z</time>
      </trkpt>
      <trkpt lat="45.10235" lon="2.7164">
        <ele>1533.44</ele>
        <time>2019-07-13T14:15:05Z</time>
      </trkpt>
      <trkpt lat="45.10218" lon="2.71636">
        <ele>1533.44</ele>
        <time>2019-07-13T14:15:20Z</time>
      </trkpt>
      <trkpt lat="45.1021" lon="2.71636">
        <ele>1533.44</ele>
        <time>2019-07-13T14:15:27Z</time>
      </trkpt>
      <trkpt lat="45.10205" lon="2.71636">
        <ele>1533.44</ele>
        <time>2019-07-13T14:15:32Z</time>
      </trkpt>
      <trkpt lat="45.10191" lon="2.71632">
        <ele>1533.92</ele>
        <time>2019-07-13T14:15:46Z</time>
      </trkpt>
      <trkpt lat="45.10186" lon="2.71631">
        <ele>1533.44</ele>
        <time>2019-07-13T14:15:52Z</time>
      </trkpt>
      <trkpt lat="45.1018" lon="2.71633">
        <ele>1534.4</ele>
        <time>2019-07-13T14:15:58Z</time>
      </trkpt>
      <trkpt lat="45.10167" lon="2.71635">
        <ele>1534.4</ele>
        <time>2019-07-13T14:16:11Z</time>
      </trkpt>
      <trkpt lat="45.10165" lon="2.71637">
        <ele>1533.92</ele>
        <time>2019-07-13T14:16:14Z</time>
      </trkpt>
      <trkpt lat="45.10154" lon="2.7164">
        <ele>1533.92</ele>
        <time>2019-07-13T14:16:25Z</time>
      </trkpt>
      <trkpt lat="45.10146" lon="2.71642">
        <ele>1533.92</ele>
        <time>2019-07-13T14:16:32Z</time>
      </trkpt>
      <trkpt lat="45.10134" lon="2.71649">
        <ele>1534.4</ele>
        <time>2019-07-13T14:16:46Z</time>
      </trkpt>
      <trkpt lat="45.10133" lon="2.71649">
        <ele>1533.92</ele>
        <time>2019-07-13T14:16:47Z</time>
      </trkpt>
      <trkpt lat="45.10128" lon="2.71651">
        <ele>1533.92</ele>
        <time>2019-07-13T14:16:52Z</time>
      </trkpt>
      <trkpt lat="45.10126" lon="2.71651">
        <ele>1533.92</ele>
        <time>2019-07-13T14:16:54Z</time>
      </trkpt>
      <trkpt lat="45.10124" lon="2.71654">
        <ele>1533.92</ele>
        <time>2019-07-13T14:16:57Z</time>
      </trkpt>
      <trkpt lat="45.10119" lon="2.71656">
        <ele>1533.92</ele>
        <time>2019-07-13T14:17:01Z</time>
      </trkpt>
      <trkpt lat="45.10106" lon="2.71661">
        <ele>1533.92</ele>
        <time>2019-07-13T14:17:14Z</time>
      </trkpt>
      <trkpt lat="45.101" lon="2.71664">
        <ele>1534.4</ele>
        <time>2019-07-13T14:17:21Z</time>
      </trkpt>
      <trkpt lat="45.10094" lon="2.71668">
        <ele>1534.4</ele>
        <time>2019-07-13T14:17:28Z</time>
      </trkpt>
      <trkpt lat="45.10091" lon="2.71674">
        <ele>1535.36</ele>
        <time>2019-07-13T14:17:34Z</time>
      </trkpt>
      <trkpt lat="45.1008" lon="2.71669">
        <ele>1535.36</ele>
        <time>2019-07-13T14:17:47Z</time>
      </trkpt>
      <trkpt lat="45.10067" lon="2.71669">
        <ele>1534.4</ele>
        <time>2019-07-13T14:18:01Z</time>
      </trkpt>
      <trkpt lat="45.10055" lon="2.71662">
        <ele>1534.88</ele>
        <time>2019-07-13T14:18:15Z</time>
      </trkpt>
      <trkpt lat="45.10045" lon="2.71661">
        <ele>1536.8</ele>
        <time>2019-07-13T14:18:26Z</time>
      </trkpt>
      <trkpt lat="45.10038" lon="2.71661">
        <ele>1537.29</ele>
        <time>2019-07-13T14:18:34Z</time>
      </trkpt>
      <trkpt lat="45.1003" lon="2.71662">
        <ele>1537.77</ele>
        <time>2019-07-13T14:18:42Z</time>
      </trkpt>
      <trkpt lat="45.10026" lon="2.7166">
        <ele>1537.77</ele>
        <time>2019-07-13T14:18:47Z</time>
      </trkpt>
      <trkpt lat="45.10015" lon="2.71657">
        <ele>1538.73</ele>
        <time>2019-07-13T14:19:00Z</time>
      </trkpt>
      <trkpt lat="45.10007" lon="2.71656">
        <ele>1539.69</ele>
        <time>2019-07-13T14:19:11Z</time>
      </trkpt>
      <trkpt lat="45.09998" lon="2.71656">
        <ele>1540.65</ele>
        <time>2019-07-13T14:19:23Z</time>
      </trkpt>
      <trkpt lat="45.09997" lon="2.71656">
        <ele>1541.13</ele>
        <time>2019-07-13T14:19:24Z</time>
      </trkpt>
      <trkpt lat="45.09995" lon="2.71654">
        <ele>1540.65</ele>
        <time>2019-07-13T14:19:26Z</time>
      </trkpt>
      <trkpt lat="45.09993" lon="2.71654">
        <ele>1540.65</ele>
        <time>2019-07-13T14:19:28Z</time>
      </trkpt>
      <trkpt lat="45.09988" lon="2.71651">
        <ele>1540.17</ele>
        <time>2019-07-13T14:19:35Z</time>
      </trkpt>
      <trkpt lat="45.09984" lon="2.71651">
        <ele>1540.17</ele>
        <time>2019-07-13T14:19:39Z</time>
      </trkpt>
      <trkpt lat="45.09972" lon="2.71651">
        <ele>1540.65</ele>
        <time>2019-07-13T14:19:51Z</time>
      </trkpt>
      <trkpt lat="45.0997" lon="2.71652">
        <ele>1540.65</ele>
        <time>2019-07-13T14:19:53Z</time>
      </trkpt>
      <trkpt lat="45.0996" lon="2.71651">
        <ele>1541.61</ele>
        <time>2019-07-13T14:20:04Z</time>
      </trkpt>
      <trkpt lat="45.0995" lon="2.71654">
        <ele>1542.57</ele>
        <time>2019-07-13T14:20:16Z</time>
      </trkpt>
      <trkpt lat="45.09944" lon="2.71655">
        <ele>1542.09</ele>
        <time>2019-07-13T14:20:23Z</time>
      </trkpt>
      <trkpt lat="45.09932" lon="2.71654">
        <ele>1542.57</ele>
        <time>2019-07-13T14:20:38Z</time>
      </trkpt>
      <trkpt lat="45.09926" lon="2.71656">
        <ele>1543.53</ele>
        <time>2019-07-13T14:20:43Z</time>
      </trkpt>
      <trkpt lat="45.09915" lon="2.71659">
        <ele>1544.5</ele>
        <time>2019-07-13T14:20:57Z</time>
      </trkpt>
      <trkpt lat="45.09912" lon="2.71662">
        <ele>1544.98</ele>
        <time>2019-07-13T14:21:01Z</time>
      </trkpt>
      <trkpt lat="45.09909" lon="2.71662">
        <ele>1544.5</ele>
        <time>2019-07-13T14:21:04Z</time>
      </trkpt>
      <trkpt lat="45.09902" lon="2.71664">
        <ele>1544.5</ele>
        <time>2019-07-13T14:21:12Z</time>
      </trkpt>
      <trkpt lat="45.0989" lon="2.71667">
        <ele>1544.01</ele>
        <time>2019-07-13T14:21:26Z</time>
      </trkpt>
      <trkpt lat="45.09889" lon="2.71667">
        <ele>1544.5</ele>
        <time>2019-07-13T14:21:27Z</time>
      </trkpt>
      <trkpt lat="45.09887" lon="2.71666">
        <ele>1544.98</ele>
        <time>2019-07-13T14:21:29Z</time>
      </trkpt>
      <trkpt lat="45.09875" lon="2.71671">
        <ele>1544.5</ele>
        <time>2019-07-13T14:21:43Z</time>
      </trkpt>
      <trkpt lat="45.09871" lon="2.71673">
        <ele>1544.5</ele>
        <time>2019-07-13T14:21:48Z</time>
      </trkpt>
      <trkpt lat="45.09868" lon="2.71673">
        <ele>1544.98</ele>
        <time>2019-07-13T14:21:51Z</time>
      </trkpt>
      <trkpt lat="45.09867" lon="2.71674">
        <ele>1544.5</ele>
        <time>2019-07-13T14:21:53Z</time>
      </trkpt>
      <trkpt lat="45.09865" lon="2.71674">
        <ele>1544.98</ele>
        <time>2019-07-13T14:21:55Z</time>
      </trkpt>
      <trkpt lat="45.09859" lon="2.71675">
        <ele>1544.98</ele>
        <time>2019-07-13T14:22:01Z</time>
      </trkpt>
      <trkpt lat="45.09848" lon="2.71679">
        <ele>1544.98</ele>
        <time>2019-07-13T14:22:13Z</time>
      </trkpt>
      <trkpt lat="45.09844" lon="2.71683">
        <ele>1544.5</ele>
        <time>2019-07-13T14:22:18Z</time>
      </trkpt>
      <trkpt lat="45.09832" lon="2.71691">
        <ele>1544.98</ele>
        <time>2019-07-13T14:22:32Z</time>
      </trkpt>
      <trkpt lat="45.0983" lon="2.71692">
        <ele>1544.5</ele>
        <time>2019-07-13T14:22:35Z</time>
      </trkpt>
      <trkpt lat="45.09828" lon="2.71693">
        <ele>1544.98</ele>
        <time>2019-07-13T14:22:37Z</time>
      </trkpt>
      <trkpt lat="45.09816" lon="2.71695">
        <ele>1544.5</ele>
        <time>2019-07-13T14:22:51Z</time>
      </trkpt>
      <trkpt lat="45.09807" lon="2.71698">
        <ele>1544.5</ele>
        <time>2019-07-13T14:23:02Z</time>
      </trkpt>
      <trkpt lat="45.09799" lon="2.71704">
        <ele>1544.98</ele>
        <time>2019-07-13T14:23:13Z</time>
      </trkpt>
      <trkpt lat="45.09791" lon="2.71706">
        <ele>1545.46</ele>
        <time>2019-07-13T14:23:21Z</time>
      </trkpt>
      <trkpt lat="45.0978" lon="2.71709">
        <ele>1545.46</ele>
        <time>2019-07-13T14:23:33Z</time>
      </trkpt>
      <trkpt lat="45.09773" lon="2.71714">
        <ele>1547.38</ele>
        <time>2019-07-13T14:23:45Z</time>
      </trkpt>
      <trkpt lat="45.09758" lon="2.71713">
        <ele>1547.38</ele>
        <time>2019-07-13T14:23:57Z</time>
      </trkpt>
      <trkpt lat="45.09752" lon="2.7171">
        <ele>1546.42</ele>
        <time>2019-07-13T14:24:04Z</time>
      </trkpt>
      <trkpt lat="45.09749" lon="2.71711">
        <ele>1546.9</ele>
        <time>2019-07-13T14:24:07Z</time>
      </trkpt>
      <trkpt lat="45.09735" lon="2.71717">
        <ele>1546.9</ele>
        <time>2019-07-13T14:24:21Z</time>
      </trkpt>
      <trkpt lat="45.09724" lon="2.71724">
        <ele>1547.86</ele>
        <time>2019-07-13T14:24:34Z</time>
      </trkpt>
      <trkpt lat="45.09713" lon="2.71726">
        <ele>1547.38</ele>
        <time>2019-07-13T14:24:48Z</time>
      </trkpt>
      <trkpt lat="45.09701" lon="2.71734">
        <ele>1548.82</ele>
        <time>2019-07-13T14:25:01Z</time>
      </trkpt>
      <trkpt lat="45.09692" lon="2.71737">
        <ele>1548.34</ele>
        <time>2019-07-13T14:25:11Z</time>
      </trkpt>
      <trkpt lat="45.09688" lon="2.7174">
        <ele>1547.86</ele>
        <time>2019-07-13T14:25:15Z</time>
      </trkpt>
      <trkpt lat="45.09684" lon="2.71743">
        <ele>1548.34</ele>
        <time>2019-07-13T14:25:20Z</time>
      </trkpt>
      <trkpt lat="45.09681" lon="2.71745">
        <ele>1547.86</ele>
        <time>2019-07-13T14:25:24Z</time>
      </trkpt>
      <trkpt lat="45.09679" lon="2.71745">
        <ele>1547.86</ele>
        <time>2019-07-13T14:25:26Z</time>
      </trkpt>
      <trkpt lat="45.09676" lon="2.71746">
        <ele>1548.82</ele>
        <time>2019-07-13T14:25:29Z</time>
      </trkpt>
      <trkpt lat="45.09663" lon="2.71752">
        <ele>1546.9</ele>
        <time>2019-07-13T14:25:43Z</time>
      </trkpt>
      <trkpt lat="45.09645" lon="2.71757">
        <ele>1545.94</ele>
        <time>2019-07-13T14:26:00Z</time>
      </trkpt>
      <trkpt lat="45.09642" lon="2.71758">
        <ele>1545.46</ele>
        <time>2019-07-13T14:26:03Z</time>
      </trkpt>
      <trkpt lat="45.09631" lon="2.71763">
        <ele>1545.94</ele>
        <time>2019-07-13T14:26:14Z</time>
      </trkpt>
      <trkpt lat="45.09619" lon="2.71762">
        <ele>1545.46</ele>
        <time>2019-07-13T14:26:26Z</time>
      </trkpt>
      <trkpt lat="45.09615" lon="2.71762">
        <ele>1545.46</ele>
        <time>2019-07-13T14:26:30Z</time>
      </trkpt>
      <trkpt lat="45.09613" lon="2.71762">
        <ele>1545.94</ele>
        <time>2019-07-13T14:26:32Z</time>
      </trkpt>
      <trkpt lat="45.09608" lon="2.71762">
        <ele>1545.46</ele>
        <time>2019-07-13T14:26:37Z</time>
      </trkpt>
      <trkpt lat="45.09604" lon="2.71763">
        <ele>1546.42</ele>
        <time>2019-07-13T14:26:41Z</time>
      </trkpt>
      <trkpt lat="45.09595" lon="2.71764">
        <ele>1545.46</ele>
        <time>2019-07-13T14:26:48Z</time>
      </trkpt>
      <trkpt lat="45.09592" lon="2.71762">
        <ele>1545.46</ele>
        <time>2019-07-13T14:26:51Z</time>
      </trkpt>
      <trkpt lat="45.09584" lon="2.71764">
        <ele>1546.42</ele>
        <time>2019-07-13T14:26:59Z</time>
      </trkpt>
      <trkpt lat="45.09577" lon="2.71765">
        <ele>1545.46</ele>
        <time>2019-07-13T14:27:05Z</time>
      </trkpt>
      <trkpt lat="45.09572" lon="2.71766">
        <ele>1545.94</ele>
        <time>2019-07-13T14:27:11Z</time>
      </trkpt>
      <trkpt lat="45.09557" lon="2.71766">
        <ele>1546.9</ele>
        <time>2019-07-13T14:27:27Z</time>
      </trkpt>
      <trkpt lat="45.09556" lon="2.71766">
        <ele>1546.42</ele>
        <time>2019-07-13T14:27:28Z</time>
      </trkpt>
      <trkpt lat="45.09552" lon="2.71766">
        <ele>1546.9</ele>
        <time>2019-07-13T14:27:32Z</time>
      </trkpt>
      <trkpt lat="45.0955" lon="2.71768">
        <ele>1545.94</ele>
        <time>2019-07-13T14:27:34Z</time>
      </trkpt>
      <trkpt lat="45.0954" lon="2.7177">
        <ele>1546.42</ele>
        <time>2019-07-13T14:27:45Z</time>
      </trkpt>
      <trkpt lat="45.09525" lon="2.7177">
        <ele>1545.94</ele>
        <time>2019-07-13T14:27:59Z</time>
      </trkpt>
      <trkpt lat="45.09517" lon="2.71769">
        <ele>1546.42</ele>
        <time>2019-07-13T14:28:07Z</time>
      </trkpt>
      <trkpt lat="45.09512" lon="2.71769">
        <ele>1545.46</ele>
        <time>2019-07-13T14:28:11Z</time>
      </trkpt>
      <trkpt lat="45.09505" lon="2.71772">
        <ele>1546.42</ele>
        <time>2019-07-13T14:28:18Z</time>
      </trkpt>
      <trkpt lat="45.09497" lon="2.71771">
        <ele>1546.42</ele>
        <time>2019-07-13T14:28:27Z</time>
      </trkpt>
      <trkpt lat="45.09483" lon="2.71769">
        <ele>1546.42</ele>
        <time>2019-07-13T14:28:40Z</time>
      </trkpt>
      <trkpt lat="45.09477" lon="2.71768">
        <ele>1545.46</ele>
        <time>2019-07-13T14:28:46Z</time>
      </trkpt>
      <trkpt lat="45.09471" lon="2.71767">
        <ele>1545.94</ele>
        <time>2019-07-13T14:28:51Z</time>
      </trkpt>
      <trkpt lat="45.09462" lon="2.71762">
        <ele>1545.46</ele>
        <time>2019-07-13T14:29:05Z</time>
      </trkpt>
      <trkpt lat="45.09461" lon="2.71761">
        <ele>1545.46</ele>
        <time>2019-07-13T14:29:06Z</time>
      </trkpt>
      <trkpt lat="45.09459" lon="2.71761">
        <ele>1545.94</ele>
        <time>2019-07-13T14:29:08Z</time>
      </trkpt>
      <trkpt lat="45.09457" lon="2.7176">
        <ele>1545.94</ele>
        <time>2019-07-13T14:29:10Z</time>
      </trkpt>
      <trkpt lat="45.09444" lon="2.71754">
        <ele>1546.42</ele>
        <time>2019-07-13T14:29:24Z</time>
      </trkpt>
      <trkpt lat="45.09432" lon="2.7175">
        <ele>1545.94</ele>
        <time>2019-07-13T14:29:34Z</time>
      </trkpt>
      <trkpt lat="45.09423" lon="2.71746">
        <ele>1545.46</ele>
        <time>2019-07-13T14:29:43Z</time>
      </trkpt>
      <trkpt lat="45.09416" lon="2.71745">
        <ele>1545.46</ele>
        <time>2019-07-13T14:29:49Z</time>
      </trkpt>
      <trkpt lat="45.0941" lon="2.71743">
        <ele>1545.94</ele>
        <time>2019-07-13T14:29:55Z</time>
      </trkpt>
      <trkpt lat="45.09402" lon="2.7174">
        <ele>1545.94</ele>
        <time>2019-07-13T14:30:03Z</time>
      </trkpt>
      <trkpt lat="45.09387" lon="2.71729">
        <ele>1544.98</ele>
        <time>2019-07-13T14:30:20Z</time>
      </trkpt>
      <trkpt lat="45.09374" lon="2.71723">
        <ele>1543.53</ele>
        <time>2019-07-13T14:30:34Z</time>
      </trkpt>
      <trkpt lat="45.09371" lon="2.71722">
        <ele>1544.5</ele>
        <time>2019-07-13T14:30:38Z</time>
      </trkpt>
      <trkpt lat="45.09356" lon="2.71719">
        <ele>1544.5</ele>
        <time>2019-07-13T14:30:54Z</time>
      </trkpt>
      <trkpt lat="45.09349" lon="2.71717">
        <ele>1544.5</ele>
        <time>2019-07-13T14:31:03Z</time>
      </trkpt>
      <trkpt lat="45.09342" lon="2.71713">
        <ele>1544.01</ele>
        <time>2019-07-13T14:31:12Z</time>
      </trkpt>
      <trkpt lat="45.09338" lon="2.7171">
        <ele>1544.01</ele>
        <time>2019-07-13T14:31:17Z</time>
      </trkpt>
      <trkpt lat="45.09333" lon="2.71706">
        <ele>1544.01</ele>
        <time>2019-07-13T14:31:30Z</time>
      </trkpt>
      <trkpt lat="45.0933" lon="2.71704">
        <ele>1544.5</ele>
        <time>2019-07-13T14:32:01Z</time>
      </trkpt>
      <trkpt lat="45.09324" lon="2.71702">
        <ele>1544.5</ele>
        <time>2019-07-13T14:32:07Z</time>
      </trkpt>
      <trkpt lat="45.09322" lon="2.71699">
        <ele>1544.5</ele>
        <time>2019-07-13T14:32:11Z</time>
      </trkpt>
      <trkpt lat="45.09309" lon="2.71689">
        <ele>1543.53</ele>
        <time>2019-07-13T14:32:26Z</time>
      </trkpt>
      <trkpt lat="45.09308" lon="2.71688">
        <ele>1544.01</ele>
        <time>2019-07-13T14:32:27Z</time>
      </trkpt>
      <trkpt lat="45.09303" lon="2.71683">
        <ele>1543.05</ele>
        <time>2019-07-13T14:32:33Z</time>
      </trkpt>
      <trkpt lat="45.09295" lon="2.71682">
        <ele>1541.13</ele>
        <time>2019-07-13T14:32:48Z</time>
      </trkpt>
      <trkpt lat="45.09291" lon="2.71683">
        <ele>1541.61</ele>
        <time>2019-07-13T14:32:54Z</time>
      </trkpt>
      <trkpt lat="45.09278" lon="2.71682">
        <ele>1538.73</ele>
        <time>2019-07-13T14:33:10Z</time>
      </trkpt>
      <trkpt lat="45.09271" lon="2.71681">
        <ele>1537.77</ele>
        <time>2019-07-13T14:33:18Z</time>
      </trkpt>
      <trkpt lat="45.0926" lon="2.71678">
        <ele>1535.36</ele>
        <time>2019-07-13T14:33:32Z</time>
      </trkpt>
      <trkpt lat="45.09247" lon="2.71677">
        <ele>1532.96</ele>
        <time>2019-07-13T14:33:46Z</time>
      </trkpt>
      <trkpt lat="45.09243" lon="2.71679">
        <ele>1532</ele>
        <time>2019-07-13T14:33:51Z</time>
      </trkpt>
      <trkpt lat="45.09239" lon="2.71679">
        <ele>1532.48</ele>
        <time>2019-07-13T14:33:56Z</time>
      </trkpt>
      <trkpt lat="45.09229" lon="2.7168">
        <ele>1531.04</ele>
        <time>2019-07-13T14:34:10Z</time>
      </trkpt>
      <trkpt lat="45.09226" lon="2.71681">
        <ele>1531.04</ele>
        <time>2019-07-13T14:34:24Z</time>
      </trkpt>
      <trkpt lat="45.09219" lon="2.71683">
        <ele>1531.04</ele>
        <time>2019-07-13T14:34:32Z</time>
      </trkpt>
      <trkpt lat="45.09211" lon="2.71685">
        <ele>1530.56</ele>
        <time>2019-07-13T14:34:40Z</time>
      </trkpt>
      <trkpt lat="45.09205" lon="2.71687">
        <ele>1531.04</ele>
        <time>2019-07-13T14:34:46Z</time>
      </trkpt>
      <trkpt lat="45.09198" lon="2.7169">
        <ele>1530.56</ele>
        <time>2019-07-13T14:34:54Z</time>
      </trkpt>
      <trkpt lat="45.09196" lon="2.71692">
        <ele>1529.59</ele>
        <time>2019-07-13T14:34:56Z</time>
      </trkpt>
      <trkpt lat="45.09194" lon="2.71693">
        <ele>1530.08</ele>
        <time>2019-07-13T14:34:58Z</time>
      </trkpt>
      <trkpt lat="45.09191" lon="2.71696">
        <ele>1530.08</ele>
        <time>2019-07-13T14:35:02Z</time>
      </trkpt>
      <trkpt lat="45.09177" lon="2.71705">
        <ele>1529.11</ele>
        <time>2019-07-13T14:35:18Z</time>
      </trkpt>
      <trkpt lat="45.09175" lon="2.71705">
        <ele>1529.59</ele>
        <time>2019-07-13T14:35:20Z</time>
      </trkpt>
      <trkpt lat="45.09169" lon="2.71703">
        <ele>1528.63</ele>
        <time>2019-07-13T14:35:27Z</time>
      </trkpt>
      <trkpt lat="45.09157" lon="2.71706">
        <ele>1528.15</ele>
        <time>2019-07-13T14:35:41Z</time>
      </trkpt>
      <trkpt lat="45.09156" lon="2.71706">
        <ele>1527.67</ele>
        <time>2019-07-13T14:35:42Z</time>
      </trkpt>
      <trkpt lat="45.09154" lon="2.71707">
        <ele>1528.15</ele>
        <time>2019-07-13T14:35:45Z</time>
      </trkpt>
      <trkpt lat="45.09143" lon="2.71711">
        <ele>1527.19</ele>
        <time>2019-07-13T14:35:56Z</time>
      </trkpt>
      <trkpt lat="45.09141" lon="2.7171">
        <ele>1527.19</ele>
        <time>2019-07-13T14:35:58Z</time>
      </trkpt>
      <trkpt lat="45.09136" lon="2.71711">
        <ele>1527.19</ele>
        <time>2019-07-13T14:36:02Z</time>
      </trkpt>
      <trkpt lat="45.09123" lon="2.7171">
        <ele>1525.75</ele>
        <time>2019-07-13T14:36:17Z</time>
      </trkpt>
      <trkpt lat="45.09115" lon="2.7171">
        <ele>1524.79</ele>
        <time>2019-07-13T14:36:28Z</time>
      </trkpt>
      <trkpt lat="45.09109" lon="2.71711">
        <ele>1523.83</ele>
        <time>2019-07-13T14:36:35Z</time>
      </trkpt>
      <trkpt lat="45.09098" lon="2.71716">
        <ele>1521.9</ele>
        <time>2019-07-13T14:36:50Z</time>
      </trkpt>
      <trkpt lat="45.09091" lon="2.71724">
        <ele>1520.46</ele>
        <time>2019-07-13T14:37:03Z</time>
      </trkpt>
      <trkpt lat="45.09083" lon="2.71727">
        <ele>1520.46</ele>
        <time>2019-07-13T14:37:14Z</time>
      </trkpt>
      <trkpt lat="45.09078" lon="2.71736">
        <ele>1519.02</ele>
        <time>2019-07-13T14:37:27Z</time>
      </trkpt>
      <trkpt lat="45.09071" lon="2.71744">
        <ele>1517.58</ele>
        <time>2019-07-13T14:37:42Z</time>
      </trkpt>
      <trkpt lat="45.09067" lon="2.71755">
        <ele>1515.66</ele>
        <time>2019-07-13T14:37:57Z</time>
      </trkpt>
      <trkpt lat="45.09059" lon="2.71766">
        <ele>1513.73</ele>
        <time>2019-07-13T14:38:12Z</time>
      </trkpt>
      <trkpt lat="45.09058" lon="2.71768">
        <ele>1513.73</ele>
        <time>2019-07-13T14:38:14Z</time>
      </trkpt>
      <trkpt lat="45.09052" lon="2.71778">
        <ele>1512.29</ele>
        <time>2019-07-13T14:38:27Z</time>
      </trkpt>
      <trkpt lat="45.09052" lon="2.71778">
        <ele>1512.29</ele>
        <time>2019-07-13T14:39:05Z</time>
      </trkpt>
      <trkpt lat="45.09051" lon="2.71779">
        <ele>1511.81</ele>
        <time>2019-07-13T14:39:57Z</time>
      </trkpt>
      <trkpt lat="45.09045" lon="2.7179">
        <ele>1510.85</ele>
        <time>2019-07-13T14:40:09Z</time>
      </trkpt>
      <trkpt lat="45.09037" lon="2.71806">
        <ele>1509.89</ele>
        <time>2019-07-13T14:40:24Z</time>
      </trkpt>
      <trkpt lat="45.0903" lon="2.71827">
        <ele>1507.97</ele>
        <time>2019-07-13T14:40:41Z</time>
      </trkpt>
      <trkpt lat="45.0903" lon="2.71829">
        <ele>1507.48</ele>
        <time>2019-07-13T14:40:43Z</time>
      </trkpt>
      <trkpt lat="45.09025" lon="2.71846">
        <ele>1507</ele>
        <time>2019-07-13T14:40:58Z</time>
      </trkpt>
      <trkpt lat="45.09024" lon="2.71856">
        <ele>1506.52</ele>
        <time>2019-07-13T14:41:09Z</time>
      </trkpt>
      <trkpt lat="45.09025" lon="2.71867">
        <ele>1505.08</ele>
        <time>2019-07-13T14:41:25Z</time>
      </trkpt>
      <trkpt lat="45.09028" lon="2.71876">
        <ele>1504.6</ele>
        <time>2019-07-13T14:41:40Z</time>
      </trkpt>
      <trkpt lat="45.09028" lon="2.71893">
        <ele>1502.2</ele>
        <time>2019-07-13T14:41:55Z</time>
      </trkpt>
      <trkpt lat="45.09026" lon="2.71908">
        <ele>1499.79</ele>
        <time>2019-07-13T14:42:08Z</time>
      </trkpt>
      <trkpt lat="45.09027" lon="2.71911">
        <ele>1499.31</ele>
        <time>2019-07-13T14:42:10Z</time>
      </trkpt>
      <trkpt lat="45.09021" lon="2.71931">
        <ele>1496.43</ele>
        <time>2019-07-13T14:42:27Z</time>
      </trkpt>
      <trkpt lat="45.09013" lon="2.71948">
        <ele>1494.03</ele>
        <time>2019-07-13T14:42:43Z</time>
      </trkpt>
      <trkpt lat="45.09004" lon="2.71965">
        <ele>1493.06</ele>
        <time>2019-07-13T14:42:58Z</time>
      </trkpt>
      <trkpt lat="45.08997" lon="2.71978">
        <ele>1490.66</ele>
        <time>2019-07-13T14:43:12Z</time>
      </trkpt>
      <trkpt lat="45.08992" lon="2.71985">
        <ele>1488.74</ele>
        <time>2019-07-13T14:43:21Z</time>
      </trkpt>
      <trkpt lat="45.08989" lon="2.71988">
        <ele>1488.26</ele>
        <time>2019-07-13T14:43:25Z</time>
      </trkpt>
      <trkpt lat="45.08977" lon="2.71999">
        <ele>1485.85</ele>
        <time>2019-07-13T14:43:41Z</time>
      </trkpt>
      <trkpt lat="45.08969" lon="2.72011">
        <ele>1483.93</ele>
        <time>2019-07-13T14:43:54Z</time>
      </trkpt>
      <trkpt lat="45.08964" lon="2.72028">
        <ele>1482.01</ele>
        <time>2019-07-13T14:44:09Z</time>
      </trkpt>
      <trkpt lat="45.0896" lon="2.72041">
        <ele>1481.05</ele>
        <time>2019-07-13T14:44:19Z</time>
      </trkpt>
      <trkpt lat="45.08958" lon="2.72052">
        <ele>1480.09</ele>
        <time>2019-07-13T14:44:27Z</time>
      </trkpt>
      <trkpt lat="45.08957" lon="2.72063">
        <ele>1478.65</ele>
        <time>2019-07-13T14:44:35Z</time>
      </trkpt>
      <trkpt lat="45.08947" lon="2.72079">
        <ele>1476.72</ele>
        <time>2019-07-13T14:44:49Z</time>
      </trkpt>
      <trkpt lat="45.08947" lon="2.72093">
        <ele>1474.8</ele>
        <time>2019-07-13T14:45:01Z</time>
      </trkpt>
      <trkpt lat="45.08949" lon="2.72107">
        <ele>1472.88</ele>
        <time>2019-07-13T14:45:13Z</time>
      </trkpt>
      <trkpt lat="45.08949" lon="2.72126">
        <ele>1469.99</ele>
        <time>2019-07-13T14:45:26Z</time>
      </trkpt>
      <trkpt lat="45.08949" lon="2.72126">
        <ele>1469.99</ele>
        <time>2019-07-13T14:45:27Z</time>
      </trkpt>
      <trkpt lat="45.08948" lon="2.72143">
        <ele>1468.55</ele>
        <time>2019-07-13T14:45:41Z</time>
      </trkpt>
      <trkpt lat="45.08947" lon="2.72147">
        <ele>1467.59</ele>
        <time>2019-07-13T14:45:44Z</time>
      </trkpt>
      <trkpt lat="45.08943" lon="2.72167">
        <ele>1466.15</ele>
        <time>2019-07-13T14:45:58Z</time>
      </trkpt>
      <trkpt lat="45.08942" lon="2.72189">
        <ele>1464.71</ele>
        <time>2019-07-13T14:46:11Z</time>
      </trkpt>
      <trkpt lat="45.08942" lon="2.72209">
        <ele>1462.3</ele>
        <time>2019-07-13T14:46:26Z</time>
      </trkpt>
      <trkpt lat="45.08942" lon="2.7222">
        <ele>1461.34</ele>
        <time>2019-07-13T14:46:34Z</time>
      </trkpt>
      <trkpt lat="45.08941" lon="2.72239">
        <ele>1459.42</ele>
        <time>2019-07-13T14:46:47Z</time>
      </trkpt>
      <trkpt lat="45.08928" lon="2.72245">
        <ele>1457.02</ele>
        <time>2019-07-13T14:47:02Z</time>
      </trkpt>
      <trkpt lat="45.08927" lon="2.72246">
        <ele>1457.02</ele>
        <time>2019-07-13T14:47:03Z</time>
      </trkpt>
      <trkpt lat="45.0892" lon="2.72254">
        <ele>1455.57</ele>
        <time>2019-07-13T14:47:14Z</time>
      </trkpt>
      <trkpt lat="45.08906" lon="2.72265">
        <ele>1453.65</ele>
        <time>2019-07-13T14:47:26Z</time>
      </trkpt>
      <trkpt lat="45.08902" lon="2.72269">
        <ele>1453.65</ele>
        <time>2019-07-13T14:47:31Z</time>
      </trkpt>
      <trkpt lat="45.08895" lon="2.72272">
        <ele>1453.17</ele>
        <time>2019-07-13T14:47:36Z</time>
      </trkpt>
      <trkpt lat="45.08881" lon="2.72282">
        <ele>1449.81</ele>
        <time>2019-07-13T14:47:51Z</time>
      </trkpt>
      <trkpt lat="45.08871" lon="2.72292">
        <ele>1446.92</ele>
        <time>2019-07-13T14:48:04Z</time>
      </trkpt>
      <trkpt lat="45.08861" lon="2.72305">
        <ele>1444.04</ele>
        <time>2019-07-13T14:48:19Z</time>
      </trkpt>
      <trkpt lat="45.08854" lon="2.72323">
        <ele>1441.63</ele>
        <time>2019-07-13T14:48:34Z</time>
      </trkpt>
      <trkpt lat="45.08843" lon="2.7233">
        <ele>1438.75</ele>
        <time>2019-07-13T14:48:47Z</time>
      </trkpt>
      <trkpt lat="45.08835" lon="2.72339">
        <ele>1437.31</ele>
        <time>2019-07-13T14:48:57Z</time>
      </trkpt>
      <trkpt lat="45.08829" lon="2.7235">
        <ele>1435.87</ele>
        <time>2019-07-13T14:49:07Z</time>
      </trkpt>
      <trkpt lat="45.08818" lon="2.72365">
        <ele>1433.46</ele>
        <time>2019-07-13T14:49:21Z</time>
      </trkpt>
      <trkpt lat="45.08817" lon="2.72367">
        <ele>1433.46</ele>
        <time>2019-07-13T14:49:23Z</time>
      </trkpt>
      <trkpt lat="45.08813" lon="2.72374">
        <ele>1432.98</ele>
        <time>2019-07-13T14:49:29Z</time>
      </trkpt>
      <trkpt lat="45.08803" lon="2.72389">
        <ele>1430.1</ele>
        <time>2019-07-13T14:49:44Z</time>
      </trkpt>
      <trkpt lat="45.08796" lon="2.72404">
        <ele>1428.18</ele>
        <time>2019-07-13T14:49:56Z</time>
      </trkpt>
      <trkpt lat="45.08793" lon="2.72409">
        <ele>1427.21</ele>
        <time>2019-07-13T14:50:00Z</time>
      </trkpt>
      <trkpt lat="45.08786" lon="2.72425">
        <ele>1426.25</ele>
        <time>2019-07-13T14:50:13Z</time>
      </trkpt>
      <trkpt lat="45.08782" lon="2.72434">
        <ele>1425.29</ele>
        <time>2019-07-13T14:50:21Z</time>
      </trkpt>
      <trkpt lat="45.08775" lon="2.72448">
        <ele>1423.85</ele>
        <time>2019-07-13T14:50:34Z</time>
      </trkpt>
      <trkpt lat="45.08769" lon="2.72466">
        <ele>1422.89</ele>
        <time>2019-07-13T14:50:46Z</time>
      </trkpt>
      <trkpt lat="45.08768" lon="2.72473">
        <ele>1421.93</ele>
        <time>2019-07-13T14:50:51Z</time>
      </trkpt>
      <trkpt lat="45.08767" lon="2.72482">
        <ele>1421.45</ele>
        <time>2019-07-13T14:50:57Z</time>
      </trkpt>
      <trkpt lat="45.08766" lon="2.72494">
        <ele>1420.49</ele>
        <time>2019-07-13T14:51:05Z</time>
      </trkpt>
      <trkpt lat="45.08765" lon="2.72499">
        <ele>1420.49</ele>
        <time>2019-07-13T14:51:08Z</time>
      </trkpt>
      <trkpt lat="45.08761" lon="2.72522">
        <ele>1419.04</ele>
        <time>2019-07-13T14:51:22Z</time>
      </trkpt>
      <trkpt lat="45.08759" lon="2.72548">
        <ele>1415.68</ele>
        <time>2019-07-13T14:51:39Z</time>
      </trkpt>
      <trkpt lat="45.08759" lon="2.72555">
        <ele>1415.2</ele>
        <time>2019-07-13T14:51:43Z</time>
      </trkpt>
      <trkpt lat="45.08752" lon="2.7256">
        <ele>1414.72</ele>
        <time>2019-07-13T14:51:51Z</time>
      </trkpt>
      <trkpt lat="45.08744" lon="2.72568">
        <ele>1412.31</ele>
        <time>2019-07-13T14:52:01Z</time>
      </trkpt>
      <trkpt lat="45.08735" lon="2.7258">
        <ele>1408.47</ele>
        <time>2019-07-13T14:52:14Z</time>
      </trkpt>
      <trkpt lat="45.08728" lon="2.72586">
        <ele>1407.51</ele>
        <time>2019-07-13T14:52:22Z</time>
      </trkpt>
      <trkpt lat="45.08714" lon="2.72598">
        <ele>1404.62</ele>
        <time>2019-07-13T14:52:37Z</time>
      </trkpt>
      <trkpt lat="45.08712" lon="2.72605">
        <ele>1403.18</ele>
        <time>2019-07-13T14:52:42Z</time>
      </trkpt>
      <trkpt lat="45.08711" lon="2.7261">
        <ele>1402.22</ele>
        <time>2019-07-13T14:52:46Z</time>
      </trkpt>
      <trkpt lat="45.08709" lon="2.72616">
        <ele>1400.78</ele>
        <time>2019-07-13T14:52:51Z</time>
      </trkpt>
      <trkpt lat="45.08705" lon="2.72632">
        <ele>1398.37</ele>
        <time>2019-07-13T14:53:03Z</time>
      </trkpt>
      <trkpt lat="45.08698" lon="2.72646">
        <ele>1395.97</ele>
        <time>2019-07-13T14:53:14Z</time>
      </trkpt>
      <trkpt lat="45.08697" lon="2.72655">
        <ele>1395.01</ele>
        <time>2019-07-13T14:53:20Z</time>
      </trkpt>
      <trkpt lat="45.08693" lon="2.72667">
        <ele>1393.57</ele>
        <time>2019-07-13T14:53:28Z</time>
      </trkpt>
      <trkpt lat="45.08687" lon="2.72675">
        <ele>1392.13</ele>
        <time>2019-07-13T14:53:35Z</time>
      </trkpt>
      <trkpt lat="45.08684" lon="2.7269">
        <ele>1390.2</ele>
        <time>2019-07-13T14:53:44Z</time>
      </trkpt>
      <trkpt lat="45.08683" lon="2.72709">
        <ele>1388.76</ele>
        <time>2019-07-13T14:53:55Z</time>
      </trkpt>
      <trkpt lat="45.08685" lon="2.72731">
        <ele>1386.84</ele>
        <time>2019-07-13T14:54:08Z</time>
      </trkpt>
      <trkpt lat="45.08684" lon="2.7275">
        <ele>1383.96</ele>
        <time>2019-07-13T14:54:20Z</time>
      </trkpt>
      <trkpt lat="45.08685" lon="2.7277">
        <ele>1382.51</ele>
        <time>2019-07-13T14:54:33Z</time>
      </trkpt>
      <trkpt lat="45.08686" lon="2.72777">
        <ele>1382.03</ele>
        <time>2019-07-13T14:54:38Z</time>
      </trkpt>
      <trkpt lat="45.08689" lon="2.72796">
        <ele>1379.63</ele>
        <time>2019-07-13T14:54:50Z</time>
      </trkpt>
      <trkpt lat="45.08694" lon="2.7282">
        <ele>1376.26</ele>
        <time>2019-07-13T14:55:06Z</time>
      </trkpt>
      <trkpt lat="45.08699" lon="2.72834">
        <ele>1374.82</ele>
        <time>2019-07-13T14:55:15Z</time>
      </trkpt>
      <trkpt lat="45.08703" lon="2.72841">
        <ele>1373.38</ele>
        <time>2019-07-13T14:55:20Z</time>
      </trkpt>
      <trkpt lat="45.08703" lon="2.72844">
        <ele>1372.9</ele>
        <time>2019-07-13T14:55:22Z</time>
      </trkpt>
      <trkpt lat="45.08703" lon="2.72861">
        <ele>1371.46</ele>
        <time>2019-07-13T14:55:34Z</time>
      </trkpt>
      <trkpt lat="45.08705" lon="2.72879">
        <ele>1369.05</ele>
        <time>2019-07-13T14:55:46Z</time>
      </trkpt>
      <trkpt lat="45.08705" lon="2.72887">
        <ele>1369.54</ele>
        <time>2019-07-13T14:55:52Z</time>
      </trkpt>
      <trkpt lat="45.08704" lon="2.72902">
        <ele>1368.09</ele>
        <time>2019-07-13T14:56:01Z</time>
      </trkpt>
      <trkpt lat="45.08703" lon="2.72908">
        <ele>1368.09</ele>
        <time>2019-07-13T14:56:05Z</time>
      </trkpt>
      <trkpt lat="45.08703" lon="2.72913">
        <ele>1367.61</ele>
        <time>2019-07-13T14:56:08Z</time>
      </trkpt>
      <trkpt lat="45.08702" lon="2.72928">
        <ele>1367.61</ele>
        <time>2019-07-13T14:56:16Z</time>
      </trkpt>
      <trkpt lat="45.08704" lon="2.7295">
        <ele>1367.13</ele>
        <time>2019-07-13T14:56:29Z</time>
      </trkpt>
      <trkpt lat="45.08707" lon="2.72975">
        <ele>1366.65</ele>
        <time>2019-07-13T14:56:42Z</time>
      </trkpt>
      <trkpt lat="45.08702" lon="2.72999">
        <ele>1366.17</ele>
        <time>2019-07-13T14:56:57Z</time>
      </trkpt>
      <trkpt lat="45.08696" lon="2.73023">
        <ele>1364.73</ele>
        <time>2019-07-13T14:57:12Z</time>
      </trkpt>
      <trkpt lat="45.08695" lon="2.73028">
        <ele>1364.25</ele>
        <time>2019-07-13T14:57:15Z</time>
      </trkpt>
      <trkpt lat="45.08689" lon="2.73056">
        <ele>1363.29</ele>
        <time>2019-07-13T14:57:32Z</time>
      </trkpt>
      <trkpt lat="45.08688" lon="2.7306">
        <ele>1362.33</ele>
        <time>2019-07-13T14:57:35Z</time>
      </trkpt>
      <trkpt lat="45.08685" lon="2.73076">
        <ele>1361.36</ele>
        <time>2019-07-13T14:57:45Z</time>
      </trkpt>
      <trkpt lat="45.08677" lon="2.73099">
        <ele>1359.44</ele>
        <time>2019-07-13T14:58:00Z</time>
      </trkpt>
      <trkpt lat="45.08677" lon="2.73109">
        <ele>1358.96</ele>
        <time>2019-07-13T14:58:06Z</time>
      </trkpt>
      <trkpt lat="45.08667" lon="2.73127">
        <ele>1357.04</ele>
        <time>2019-07-13T14:58:20Z</time>
      </trkpt>
      <trkpt lat="45.08664" lon="2.73133">
        <ele>1355.12</ele>
        <time>2019-07-13T14:58:26Z</time>
      </trkpt>
      <trkpt lat="45.08661" lon="2.73144">
        <ele>1353.67</ele>
        <time>2019-07-13T14:58:34Z</time>
      </trkpt>
      <trkpt lat="45.08658" lon="2.73149">
        <ele>1352.23</ele>
        <time>2019-07-13T14:58:39Z</time>
      </trkpt>
      <trkpt lat="45.08656" lon="2.73154">
        <ele>1350.79</ele>
        <time>2019-07-13T14:58:43Z</time>
      </trkpt>
      <trkpt lat="45.08653" lon="2.73162">
        <ele>1348.87</ele>
        <time>2019-07-13T14:58:49Z</time>
      </trkpt>
      <trkpt lat="45.08647" lon="2.73176">
        <ele>1345.5</ele>
        <time>2019-07-13T14:59:00Z</time>
      </trkpt>
      <trkpt lat="45.08647" lon="2.73177">
        <ele>1345.5</ele>
        <time>2019-07-13T14:59:01Z</time>
      </trkpt>
      <trkpt lat="45.08644" lon="2.7318">
        <ele>1344.54</ele>
        <time>2019-07-13T14:59:04Z</time>
      </trkpt>
      <trkpt lat="45.08643" lon="2.73182">
        <ele>1345.02</ele>
        <time>2019-07-13T14:59:06Z</time>
      </trkpt>
      <trkpt lat="45.08639" lon="2.73188">
        <ele>1342.62</ele>
        <time>2019-07-13T14:59:13Z</time>
      </trkpt>
      <trkpt lat="45.08635" lon="2.73197">
        <ele>1339.73</ele>
        <time>2019-07-13T14:59:21Z</time>
      </trkpt>
      <trkpt lat="45.0863" lon="2.73207">
        <ele>1337.81</ele>
        <time>2019-07-13T14:59:30Z</time>
      </trkpt>
      <trkpt lat="45.08625" lon="2.73215">
        <ele>1334.93</ele>
        <time>2019-07-13T14:59:38Z</time>
      </trkpt>
      <trkpt lat="45.08624" lon="2.73218">
        <ele>1333.97</ele>
        <time>2019-07-13T14:59:40Z</time>
      </trkpt>
      <trkpt lat="45.08623" lon="2.73219">
        <ele>1333.97</ele>
        <time>2019-07-13T14:59:41Z</time>
      </trkpt>
      <trkpt lat="45.08619" lon="2.73223">
        <ele>1333.01</ele>
        <time>2019-07-13T14:59:46Z</time>
      </trkpt>
      <trkpt lat="45.08617" lon="2.73229">
        <ele>1331.56</ele>
        <time>2019-07-13T14:59:51Z</time>
      </trkpt>
      <trkpt lat="45.0861" lon="2.73241">
        <ele>1327.72</ele>
        <time>2019-07-13T15:00:03Z</time>
      </trkpt>
      <trkpt lat="45.08604" lon="2.73254">
        <ele>1325.31</ele>
        <time>2019-07-13T15:00:14Z</time>
      </trkpt>
      <trkpt lat="45.08606" lon="2.73261">
        <ele>1323.87</ele>
        <time>2019-07-13T15:00:19Z</time>
      </trkpt>
      <trkpt lat="45.08605" lon="2.73265">
        <ele>1323.39</ele>
        <time>2019-07-13T15:00:22Z</time>
      </trkpt>
      <trkpt lat="45.08605" lon="2.7327">
        <ele>1323.39</ele>
        <time>2019-07-13T15:00:25Z</time>
      </trkpt>
      <trkpt lat="45.08605" lon="2.73283">
        <ele>1319.55</ele>
        <time>2019-07-13T15:00:35Z</time>
      </trkpt>
      <trkpt lat="45.08604" lon="2.73293">
        <ele>1318.59</ele>
        <time>2019-07-13T15:00:42Z</time>
      </trkpt>
      <trkpt lat="45.08602" lon="2.733">
        <ele>1317.62</ele>
        <time>2019-07-13T15:00:48Z</time>
      </trkpt>
      <trkpt lat="45.086" lon="2.73308">
        <ele>1315.7</ele>
        <time>2019-07-13T15:00:54Z</time>
      </trkpt>
      <trkpt lat="45.08598" lon="2.73316">
        <ele>1314.74</ele>
        <time>2019-07-13T15:00:59Z</time>
      </trkpt>
      <trkpt lat="45.0859" lon="2.73333">
        <ele>1312.82</ele>
        <time>2019-07-13T15:01:12Z</time>
      </trkpt>
      <trkpt lat="45.08586" lon="2.7334">
        <ele>1310.9</ele>
        <time>2019-07-13T15:01:18Z</time>
      </trkpt>
      <trkpt lat="45.08578" lon="2.73356">
        <ele>1308.49</ele>
        <time>2019-07-13T15:01:30Z</time>
      </trkpt>
      <trkpt lat="45.08575" lon="2.73363">
        <ele>1308.01</ele>
        <time>2019-07-13T15:01:36Z</time>
      </trkpt>
      <trkpt lat="45.08572" lon="2.73368">
        <ele>1307.05</ele>
        <time>2019-07-13T15:01:40Z</time>
      </trkpt>
      <trkpt lat="45.08563" lon="2.73385">
        <ele>1305.61</ele>
        <time>2019-07-13T15:01:54Z</time>
      </trkpt>
      <trkpt lat="45.08558" lon="2.73403">
        <ele>1303.69</ele>
        <time>2019-07-13T15:02:08Z</time>
      </trkpt>
      <trkpt lat="45.08553" lon="2.73418">
        <ele>1302.72</ele>
        <time>2019-07-13T15:02:19Z</time>
      </trkpt>
      <trkpt lat="45.08547" lon="2.73422">
        <ele>1300.8</ele>
        <time>2019-07-13T15:02:25Z</time>
      </trkpt>
      <trkpt lat="45.08543" lon="2.73414">
        <ele>1300.8</ele>
        <time>2019-07-13T15:02:32Z</time>
      </trkpt>
      <trkpt lat="45.08541" lon="2.73413">
        <ele>1301.76</ele>
        <time>2019-07-13T15:02:34Z</time>
      </trkpt>
      <trkpt lat="45.08537" lon="2.73404">
        <ele>1301.76</ele>
        <time>2019-07-13T15:02:41Z</time>
      </trkpt>
      <trkpt lat="45.08535" lon="2.73399">
        <ele>1301.28</ele>
        <time>2019-07-13T15:02:45Z</time>
      </trkpt>
      <trkpt lat="45.08526" lon="2.73378">
        <ele>1301.76</ele>
        <time>2019-07-13T15:03:01Z</time>
      </trkpt>
      <trkpt lat="45.08517" lon="2.73359">
        <ele>1300.8</ele>
        <time>2019-07-13T15:03:14Z</time>
      </trkpt>
      <trkpt lat="45.08514" lon="2.73356">
        <ele>1301.28</ele>
        <time>2019-07-13T15:03:29Z</time>
      </trkpt>
    </trkseg>
  </trk>
</gpx>